Date StartTime U_cm/s V_cm/s W_cm/s Ustd_cm/s Vstd_cm/s Wstd_cm/s Uvar_(cm/s)^2 Vvar_(cm/s)^2 Wvar_(cm/s)^2 KE_(m/s)^2 TurbulentKE_(m/s)^2 HorizWindSpeed_cm/s FrictionSpeec_cm/s DragCoef SpeedOfSound_m/s SonicTemperature_C Pressure_mb 
08/23/2014  00:00:00     -279.881      -30.614      -16.538      130.614       76.936       56.231    17060.068     5919.124     3161.885        5.284        1.307      281.551       57.215        0.041      343.880       20.301      861.212
08/23/2014  00:01:00     -336.208      -60.585      -14.300      117.933      115.208       60.260    13908.259    13272.776     3631.325        7.386        1.541      341.623       54.726        0.026      343.905       20.342      861.218
08/23/2014  00:02:00     -229.643      -53.616        2.233      124.180      105.698       47.945    15420.554    11172.160     2298.759        4.225        1.445      235.819       37.249        0.025      343.869       20.282      861.217
08/23/2014  00:03:00     -285.384      -41.682      -26.358       97.420      101.431       52.315     9490.602    10288.163     2736.869        5.319        1.126      288.412       39.608        0.019      343.904       20.341      861.219
08/23/2014  00:04:00     -343.358      -84.320      -33.747      143.009      104.653       58.295    20451.694    10952.173     3398.300        8.047        1.740      353.560       72.950        0.043      343.967       20.450      861.216
08/23/2014  00:05:00     -306.591      -10.115      -28.131       98.465       85.840       42.453     9695.440     7368.440     1802.255        5.688        0.943      306.758       40.328        0.017      343.948       20.415      861.207
08/23/2014  00:06:00     -286.397      -41.502      -24.831       90.116       73.891       40.063     8120.822     5459.857     1605.016        4.977        0.759      289.388       28.609        0.010      343.880       20.299      861.210
08/23/2014  00:07:00     -380.228      -35.306      -32.725       96.908       89.662       49.856     9391.161     8039.239     2485.616        8.340        0.996      381.864       45.080        0.014      343.906       20.344      861.202
08/23/2014  00:08:00     -266.091     -110.946       -5.196      170.275      147.149       76.669    28993.589    21652.681     5878.103        6.982        2.826      288.294       81.246        0.079      343.894       20.325      861.192
08/23/2014  00:09:00     -434.985      -88.931      -19.126      152.081      108.226       60.044    23128.688    11712.825     3605.276       11.796        1.922      443.983       62.903        0.020      343.945       20.412      861.207
08/23/2014  00:10:00     -349.718      -51.457       -9.625      168.649      108.809       73.773    28442.508    11839.444     5442.501        8.537        2.286      353.483       75.682        0.046      343.992       20.491      861.206
08/23/2014  00:11:00     -515.002      -94.517      -31.778      120.089      104.747       62.856    14421.398    10971.974     3950.928       15.225        1.467      523.603       60.093        0.013      344.047       20.586      861.207
08/23/2014  00:12:00     -258.844      -65.076       -1.537      116.534       93.671       53.346    13580.271     8774.224     2845.816        4.821        1.260      266.899       56.973        0.046      343.918       20.364      861.207
08/23/2014  00:13:00     -365.375     -117.134       -6.952      143.876      113.627       65.000    20700.239    12911.077     4225.046        9.254        1.892      383.692       54.154        0.020      343.956       20.430      861.211
08/23/2014  00:14:00     -400.647     -106.959      -10.249      110.489       86.413       54.311    12207.762     7467.184     2949.644        9.734        1.131      414.678       52.614        0.016      343.997       20.500      861.210
08/23/2014  00:15:00     -212.199      -55.738       -4.442       78.110       78.904       44.828     6101.117     6225.802     2009.545        3.124        0.717      219.397       34.834        0.025      343.935       20.393      861.213
08/23/2014  00:16:00     -261.782      -62.331       -2.248      127.845       91.824       62.350    16344.393     8431.729     3887.471        5.054        1.433      269.100       61.208        0.052      343.959       20.435      861.197
08/23/2014  00:17:00     -293.367      -64.081      -29.305      102.941       94.704       44.760    10596.762     8968.908     2003.488        5.630        1.078      300.284       34.205        0.013      343.968       20.450      861.191
08/23/2014  00:18:00     -275.082      -41.162       -4.176      118.228       79.463       51.998    13977.875     6314.419     2703.779        5.018        1.150      278.144       64.104        0.053      343.933       20.389      861.194
08/23/2014  00:19:00     -296.211      -21.042      -13.291      122.783      119.816       54.838    15075.763    14355.845     3007.243        6.039        1.622      296.957       55.690        0.035      343.947       20.415      861.205
08/23/2014  00:20:00     -318.673      -54.654      -17.875      105.235       77.705       53.938    11074.453     6038.104     2909.350        6.244        1.001      323.326       57.695        0.032      343.938       20.400      861.208
08/23/2014  00:21:00     -279.352      -59.041      -16.505       98.998      102.950       57.565     9800.696    10598.630     3313.767        5.275        1.186      285.523       60.900        0.045      343.910       20.351      861.216
08/23/2014  00:22:00     -294.291      -66.311      -16.070      134.629       98.501       49.610    18124.911     9702.425     2461.128        6.077        1.514      301.670       56.790        0.035      343.916       20.360      861.222
08/23/2014  00:23:00     -317.464      -55.194      -13.407      105.391       99.575       59.433    11107.216     9915.146     3532.303        6.428        1.228      322.227       57.375        0.032      343.945       20.409      861.224
08/23/2014  00:24:00     -241.588      -62.488      -11.809      112.345       95.031       50.446    12621.397     9030.811     2544.790        4.330        1.210      249.538       56.022        0.050      343.934       20.393      861.234
08/23/2014  00:25:00     -322.555      -42.572      -34.607       94.111       82.282       56.855     8856.788     6770.328     3232.493        6.295        0.943      325.352       53.713        0.027      343.977       20.464      861.249
08/23/2014  00:26:00     -232.736      -72.516      -29.071       81.751       62.126       42.337     6683.283     3859.701     1792.454        3.630        0.617      243.772       32.741        0.018      343.948       20.415      861.249
08/23/2014  00:27:00     -244.920      -88.045      -25.676       70.735       71.074       39.489     5003.489     5051.566     1559.353        4.000        0.581      260.265       25.411        0.010      343.952       20.422      861.246
08/23/2014  00:28:00     -206.467      -76.202      -15.528       77.465       67.162       45.527     6000.834     4510.792     2072.665        3.063        0.629      220.081       35.040        0.025      343.873       20.287      861.266
08/23/2014  00:29:00     -274.753      -67.444       -6.984      148.414       76.373       52.533    22026.828     5832.769     2759.675        5.535        1.531      282.910       64.102        0.051      343.869       20.281      861.279
08/23/2014  00:30:00     -238.765      -21.913        0.320      113.053      106.950       52.687    12780.956    11438.340     2775.903        4.224        1.350      239.769       47.571        0.039      343.882       20.304      861.286
08/23/2014  00:31:00     -197.388      -24.684      -16.854      114.531       88.854       51.959    13117.434     7895.026     2699.721        3.178        1.186      198.925       42.841        0.046      343.875       20.291      861.296
08/23/2014  00:32:00     -167.787      -64.237       -1.466       93.538       93.084       48.772     8749.347     8664.692     2378.694        2.603        0.990      179.663       46.820        0.068      343.881       20.303      861.303
08/23/2014  00:33:00     -241.699        2.834      -25.263       87.665       79.763       42.058     7685.168     6362.188     1768.881        3.744        0.791      241.716       36.067        0.022      344.009       20.520      861.305
08/23/2014  00:34:00     -303.235      -49.068      -25.974      104.740       92.824       52.207    10970.401     8616.353     2725.553        5.867        1.116      307.180       44.542        0.021      344.006       20.514      861.305
08/23/2014  00:35:00     -228.376      -34.896       -7.549       94.168       94.872       41.316     8867.621     9000.705     1707.000        3.650        0.979      231.027       35.839        0.024      344.016       20.533      861.291
08/23/2014  00:36:00     -248.388       15.824      -18.830      122.652       92.736       50.180    15043.471     8599.876     2518.022        4.423        1.308      248.892       54.675        0.048      344.015       20.530      861.291
08/23/2014  00:37:00     -277.741      -39.612      -22.443      113.986      111.543       52.447    12992.752    12441.736     2750.664        5.369        1.409      280.552       29.336        0.011      344.030       20.558      861.294
08/23/2014  00:38:00     -334.486      -29.113      -15.748       97.766      137.805       62.114     9558.167    18990.123     3858.100        7.268        1.620      335.750       44.927        0.018      344.058       20.604      861.306
08/23/2014  00:39:00     -231.035      -43.751      -11.460       97.557       79.201       47.553     9517.316     6272.769     2261.315        3.673        0.903      235.141       47.543        0.041      344.026       20.550      861.327
08/23/2014  00:40:00     -185.112       -0.521      -16.978       72.793       60.765       37.135     5298.755     3692.423     1379.039        2.246        0.519      185.113       36.600        0.039      344.008       20.520      861.338
08/23/2014  00:41:00      -50.283       -5.067        5.139       68.947       33.700       35.617     4753.721     1135.695     1268.554        0.487        0.358       50.538       36.887        0.533      343.925       20.380      861.341
08/23/2014  00:42:00      -91.495      -25.731       -1.380       47.546       32.186       32.824     2260.631     1035.950     1077.409        0.670        0.219       95.044       29.134        0.094      343.987       20.486      861.352
08/23/2014  00:43:00      -89.032      -32.974      -11.921       30.094       34.571       24.381      905.630     1195.161      594.418        0.593        0.135       94.942       16.164        0.029      344.018       20.539      861.353
08/23/2014  00:44:00      -30.475      -26.500      -12.986       30.659       25.794       18.032      939.976      665.340      325.150        0.186        0.097       40.385       18.611        0.212      343.995       20.498      861.372
08/23/2014  00:45:00       28.441       15.450       34.545       27.941       40.357       45.384      780.719     1628.710     2059.674        0.335        0.223       32.367       27.414        0.717      343.939       20.407      861.376
08/23/2014  00:46:00       -8.279       38.525       71.154       12.406       30.199       18.566      153.897      911.954      344.702        0.401        0.071       39.405       18.851        0.229      343.899       20.336      861.380
08/23/2014  00:47:00      -10.045       11.364       65.917       22.742       53.916       28.263      517.211     2906.982      798.791        0.440        0.211       15.167       31.652        4.355      343.835       20.228      861.401
08/23/2014  00:48:00       67.011      -86.913        2.026       53.807       59.281       39.284     2895.190     3514.209     1543.212        1.000        0.398      109.747       37.733        0.118      343.834       20.225      861.439
08/23/2014  00:49:00       53.415        3.946       42.844       46.313       30.608       27.177     2144.912      936.858      738.588        0.426        0.191       53.560       25.682        0.230      343.742       20.067      861.462
08/23/2014  00:50:00       24.819       -7.784       26.080       40.781       37.469       30.646     1663.091     1403.891      939.148        0.268        0.200       26.011       31.332        1.451      343.707       20.008      861.471
08/23/2014  00:51:00       45.303     -103.637       -5.422       49.878       71.382       49.250     2487.783     5095.336     2425.550        1.141        0.500      113.106       46.421        0.168      343.680       19.961      861.475
08/23/2014  00:52:00      114.241     -145.144      -31.574       69.752       48.118       31.980     4865.371     2315.319     1022.715        2.166        0.410      184.710       26.803        0.021      343.539       19.719      861.462
08/23/2014  00:53:00       69.260      -96.358       -3.056       65.006       51.075       45.220     4225.734     2608.649     2044.889        1.148        0.444      118.667       35.721        0.091      343.459       19.583      861.457
08/23/2014  00:54:00       98.844     -141.608      -12.505       59.981       66.348       35.903     3597.771     4401.992     1289.036        1.963        0.464      172.693       39.231        0.052      343.468       19.598      861.464
08/23/2014  00:55:00       27.059       16.065       54.009       47.554       53.766       54.022     2261.357     2890.772     2918.390        0.599        0.404       31.469       44.437        1.994      343.355       19.406      861.465
08/23/2014  00:56:00        7.775       38.202       69.270       26.310       32.889       18.143      692.190     1081.683      329.181        0.421        0.105       38.986       11.862        0.093      343.322       19.353      861.486
08/23/2014  00:57:00       11.022       51.738       67.204       29.363       23.932       25.060      862.159      572.738      627.987        0.469        0.103       52.898       18.673        0.125      343.401       19.486      861.484
08/23/2014  00:58:00       58.365       54.242       45.142       43.550       28.621       28.743     1896.568      819.189      826.153        0.596        0.177       79.679        4.535        0.003      343.499       19.654      861.476
08/23/2014  00:59:00       52.474       33.732       38.239       34.894       49.841       20.362     1217.558     2484.159      414.628        0.473        0.206       62.381       23.580        0.143      343.455       19.576      861.484
08/23/2014  01:00:00       10.426        7.687       26.390       35.417       27.306       20.751     1254.336      745.615      430.590        0.165        0.122       12.953       12.535        0.936      343.380       19.450      861.478
08/23/2014  01:01:00        4.636       75.286       95.564       24.942       61.093       37.726      622.083     3732.330     1423.235        1.030        0.289       75.429       42.294        0.314      343.375       19.442      861.467
08/23/2014  01:02:00       72.679       90.898       90.429       55.035       46.772       34.669     3028.841     2187.599     1201.943        1.407        0.321      116.381       30.304        0.068      343.492       19.640      861.462
08/23/2014  01:03:00        4.401       62.871       85.772       39.447       38.106       22.173     1556.054     1452.045      491.625        0.741        0.175       63.025       18.432        0.086      343.400       19.483      861.473
08/23/2014  01:04:00       21.836      -26.597        9.567       42.213       31.827       23.572     1781.904     1012.958      555.621        0.231        0.168       34.412       23.087        0.450      343.360       19.418      861.489
08/23/2014  01:05:00      -35.470      -14.320       -4.932       27.790       19.749       18.092      772.270      390.039      327.326        0.149        0.074       38.251        9.707        0.064      343.180       19.110      861.504
08/23/2014  01:06:00      -90.300      -12.610      -15.199       20.636       11.287        9.309      425.835      127.389       86.661        0.459        0.032       91.176        5.591        0.004      343.116       19.001      861.524
08/23/2014  01:07:00     -122.778      -36.465      -12.675       20.151       33.466       13.085      406.045     1119.954      171.216        0.913        0.085      128.079       16.952        0.018      343.159       19.073      861.535
08/23/2014  01:08:00      -43.045      -86.530       -9.819       32.044       33.203       20.388     1026.837     1102.427      415.685        0.599        0.127       96.646       18.434        0.036      343.210       19.161      861.526
08/23/2014  01:09:00      -14.248      -82.955       -7.881       46.358       30.596       22.715     2149.048      936.115      515.987        0.537        0.180       84.169       19.144        0.052      343.398       19.482      861.498
08/23/2014  01:10:00       -2.953      -34.858        7.257       20.929       47.804       29.875      438.004     2285.243      892.539        0.245        0.181       34.983       22.497        0.414      343.354       19.409      861.475
08/23/2014  01:11:00       23.366       44.351       31.577       36.470       33.278       27.723     1330.032     1107.427      768.538        0.336        0.160       50.130       22.990        0.210      343.342       19.387      861.485
08/23/2014  01:12:00       53.297       71.726       -3.893       30.293       30.939       23.716      917.691      957.212      562.448        0.522        0.122       89.360       21.406        0.057      343.151       19.060      861.490
08/23/2014  01:13:00       51.350       58.966        1.773       26.072       20.949       22.186      679.758      438.879      492.234        0.386        0.081       78.191       14.298        0.033      343.098       18.972      861.486
08/23/2014  01:14:00       21.746       57.997       -8.382       34.345       33.905       12.007     1179.601     1149.560      144.165        0.319        0.124       61.940        8.463        0.019      343.157       19.071      861.469
08/23/2014  01:15:00      -29.753       50.059       -2.944       17.268       54.655       23.503      298.172     2987.140      552.368        0.362        0.192       58.234       33.284        0.327      343.290       19.296      861.467
08/23/2014  01:16:00      -13.673       -2.010        5.808       14.339       31.059       10.936      205.598      964.669      119.594        0.076        0.064       13.820       10.913        0.624      343.523       19.693      861.459
08/23/2014  01:17:00      -61.295       12.618       -8.284       11.876       29.615       11.407      141.051      877.076      130.109        0.257        0.057       62.580        8.906        0.020      343.338       19.379      861.464
08/23/2014  01:18:00      -26.400       19.279        2.782       41.953       26.040       16.552     1760.062      678.062      273.952        0.189        0.136       32.690       20.519        0.394      343.491       19.641      861.459
08/23/2014  01:19:00      -86.201      -25.618       -1.433       24.594       28.754       15.865      604.876      826.770      251.683        0.489        0.084       89.927       13.185        0.021      343.396       19.479      861.460
08/23/2014  01:20:00     -111.081      -55.169      -10.742       25.566       22.792       16.129      653.614      519.487      260.146        0.847        0.072      124.027       12.248        0.010      343.381       19.451      861.461
08/23/2014  01:21:00     -101.397      -51.012       -4.435       23.411       21.282       13.576      548.062      452.909      184.300        0.704        0.059      113.506        5.771        0.003      343.387       19.461      861.458
08/23/2014  01:22:00     -107.596      -68.154       -1.113       63.330       46.610       26.863     4010.672     2172.465      721.606        1.156        0.345      127.365       22.159        0.030      343.299       19.312      861.460
08/23/2014  01:23:00     -113.131      -82.370       -0.648       47.133       48.185       21.501     2221.551     2321.819      462.280        1.229        0.250      139.941       18.127        0.017      343.332       19.369      861.476
08/23/2014  01:24:00      -76.505      -36.387       -2.398       33.204       38.900       17.027     1102.477     1513.217      289.935        0.504        0.145       84.717       18.645        0.048      343.303       19.321      861.489
08/23/2014  01:25:00       -0.207      -51.573      -12.903       31.659       30.689       18.295     1002.265      941.801      334.723        0.255        0.114       51.573       20.016        0.151      343.350       19.399      861.496
08/23/2014  01:26:00       53.494       75.085       40.932       39.187       23.143       27.124     1535.583      535.618      735.705        0.649        0.140       92.192        6.516        0.005      343.203       19.149      861.484
08/23/2014  01:27:00       39.606       43.271       35.763       39.187       28.961       29.972     1535.594      838.732      898.336        0.400        0.164       58.660       21.935        0.140      343.094       18.964      861.481
08/23/2014  01:28:00       -2.212       50.200       58.586       22.264       23.806       13.421      495.699      566.710      180.119        0.360        0.062       50.249       10.159        0.041      343.027       18.849      861.490
08/23/2014  01:29:00       -4.924       23.304       49.222       12.713       27.394       22.842      161.609      750.424      521.754        0.221        0.072       23.819       21.546        0.818      343.068       18.919      861.502
08/23/2014  01:30:00       -2.332       40.907       65.744       16.072       22.692       15.488      258.303      514.949      239.869        0.351        0.051       40.973       15.378        0.141      343.119       19.006      861.515
08/23/2014  01:31:00       39.096       70.164       68.860       35.036       32.601       26.157     1227.502     1062.822      684.202        0.708        0.149       80.321       23.140        0.083      342.980       18.769      861.517
08/23/2014  01:32:00       79.503       98.898       82.149       52.860       47.584       40.185     2794.175     2264.191     1614.854        1.476        0.334      126.892       31.386        0.061      342.782       18.432      861.513
08/23/2014  01:33:00       77.426       90.549       70.381       42.246       39.969       36.984     1784.697     1597.557     1367.787        1.195        0.238      119.138       28.118        0.056      342.902       18.636      861.505
08/23/2014  01:34:00       88.317       55.422       40.636       44.708       44.432       33.393     1998.833     1974.169     1115.059        0.880        0.254      104.267       29.183        0.078      342.932       18.687      861.505
08/23/2014  01:35:00       84.252       42.462       10.733       30.780       17.879       17.942      947.397      319.676      321.925        0.530        0.079       94.347       15.721        0.028      342.867       18.577      861.506
08/23/2014  01:36:00       70.694       31.894       15.700       31.361       23.729       19.707      983.541      563.054      388.379        0.410        0.097       77.555       17.014        0.048      342.885       18.608      861.498
08/23/2014  01:37:00       44.958       20.062       11.460       23.415       26.157       14.691      548.278      684.183      215.834        0.200        0.072       49.231        5.362        0.012      342.874       18.589      861.500
08/23/2014  01:38:00       20.164       18.528       18.683       11.810       10.462        8.909      139.465      109.461       79.373        0.071        0.016       27.384        4.142        0.023      342.729       18.342      861.507
08/23/2014  01:39:00        1.254        0.475        7.834       10.613       12.005        7.315      112.629      144.109       53.506        0.019        0.016        1.341        5.042       14.142      342.756       18.388      861.507
08/23/2014  01:40:00      -24.108      -16.027       -0.216       14.962       17.319       10.518      223.876      299.953      110.628        0.074        0.032       28.949       10.292        0.126      342.906       18.644      861.505
08/23/2014  01:41:00      -28.202       16.926        1.212        7.707       11.703        7.406       59.405      136.960       54.851        0.067        0.013       32.891        4.903        0.022      343.011       18.823      861.498
08/23/2014  01:42:00      -29.854        3.545       -3.471        9.107       11.001        5.229       82.929      121.014       27.341        0.057        0.012       30.063        2.512        0.007      343.064       18.914      861.488
08/23/2014  01:43:00      -14.071       -5.927       -2.056       12.498        6.819        5.500      156.202       46.502       30.249        0.024        0.012       15.268        4.593        0.090      342.949       18.718      861.478
08/23/2014  01:44:00      -23.140       -2.650       -6.138       12.461       14.397        9.289      155.265      207.286       86.282        0.051        0.022       23.291        6.831        0.086      343.046       18.882      861.479
08/23/2014  01:45:00      -74.949       38.563      -17.313       14.523       12.372        8.513      210.915      153.077       72.476        0.392        0.022       84.288        5.835        0.005      343.386       19.462      861.482
08/23/2014  01:46:00      -82.150       -2.274      -13.971       33.180       21.493       14.333     1100.925      461.960      205.422        0.436        0.088       82.182       18.026        0.048      343.097       18.970      861.488
08/23/2014  01:47:00      -58.964      -41.600      -10.190       22.498       18.343       15.205      506.140      336.479      231.193        0.319        0.054       72.162       13.447        0.035      342.795       18.454      861.503
08/23/2014  01:48:00      -70.153      -29.733       -3.979       21.450       11.304        8.818      460.111      127.773       77.764        0.324        0.033       76.194        8.344        0.012      342.723       18.332      861.515
08/23/2014  01:49:00      -86.561      -27.486       -6.073       17.032       18.015       12.501      290.082      324.540      156.273        0.453        0.039       90.821       10.036        0.012      342.847       18.543      861.521
08/23/2014  01:50:00      -69.662      -22.588       -3.988       28.777       11.872       11.596      828.140      140.947      134.469        0.324        0.055       73.232       12.755        0.030      342.826       18.506      861.524
08/23/2014  01:51:00      -86.034       -4.294       -4.346       20.411       20.450        9.777      416.626      418.201       95.583        0.418        0.047       86.141        7.283        0.007      342.889       18.615      861.521
08/23/2014  01:52:00      -64.673       -8.914       -2.273       20.906       15.976        9.035      437.056      255.243       81.636        0.252        0.039       65.285        9.692        0.022      342.936       18.694      861.514
08/23/2014  01:53:00      -14.824      -20.637       -0.758       14.456       10.600       11.338      208.966      112.362      128.549        0.055        0.022       25.409        7.686        0.091      342.973       18.760      861.509
08/23/2014  01:54:00        6.441      -27.948       -1.994        7.990        8.648        6.606       63.847       74.780       43.644        0.050        0.009       28.680        4.589        0.026      343.031       18.854      861.512
08/23/2014  01:55:00        8.439      -13.585       -9.082       13.046       12.392       12.072      170.188      153.567      145.737        0.040        0.023       15.993        8.423        0.277      342.999       18.803      861.509
08/23/2014  01:56:00       34.730       26.078        6.435       36.156       20.251       22.342     1307.275      410.088      499.154        0.207        0.111       43.430       15.146        0.122      342.792       18.451      861.512
08/23/2014  01:57:00       44.190       45.608       -2.677       28.432       22.782       19.099      808.367      519.011      364.764        0.287        0.085       63.504       17.036        0.072      342.459       17.884      861.522
08/23/2014  01:58:00       20.079       30.433       -2.667       18.682       18.872       18.339      349.033      356.163      336.333        0.119        0.052       36.460       12.485        0.117      342.431       17.834      861.532
08/23/2014  01:59:00       43.440       33.110       -6.307       14.741       17.642       12.900      217.304      311.241      166.415        0.186        0.035       54.620       10.266        0.035      342.654       18.213      861.538
08/23/2014  02:00:00       41.129       26.145       -3.541       13.128       14.325        7.795      172.349      205.199       60.770        0.141        0.022       48.735        4.257        0.008      342.868       18.580      861.536
08/23/2014  02:01:00       13.709        5.079        1.940        6.622        5.127        5.605       43.855       26.286       31.412        0.016        0.005       14.620        3.183        0.047      342.950       18.721      861.530
08/23/2014  02:02:00       25.118       30.079       -1.662       23.880       12.827        8.962      570.257      164.529       80.313        0.118        0.041       39.188        8.437        0.046      342.823       18.503      861.533
08/23/2014  02:03:00       44.370       16.635        8.183       18.767       17.297        9.352      352.205      299.176       87.452        0.153        0.037       47.386        7.758        0.027      342.761       18.398      861.539
08/23/2014  02:04:00       16.334        5.096        7.963       11.596       11.565        8.355      134.460      133.756       69.798        0.035        0.017       17.111        7.409        0.188      342.697       18.287      861.542
08/23/2014  02:05:00       34.339       11.241       -0.144       20.452       17.069       12.509      418.301      291.355      156.475        0.109        0.043       36.132       12.179        0.114      342.724       18.335      861.541
08/23/2014  02:06:00       34.517       38.828       27.074       16.367       14.765       20.308      267.884      218.011      412.421        0.216        0.045       51.952       16.867        0.105      342.695       18.285      861.536
08/23/2014  02:07:00       25.586       57.218       47.321       25.131       21.067       21.267      631.589      443.807      452.293        0.385        0.076       62.678       12.588        0.040      342.633       18.177      861.530
08/23/2014  02:08:00       38.971       48.117       48.022       41.938       24.604       32.613     1758.759      605.344     1063.601        0.478        0.171       61.919       32.814        0.281      342.639       18.189      861.515
08/23/2014  02:09:00       74.854       60.430       36.655       39.562       36.853       37.062     1565.144     1358.110     1373.602        0.745        0.215       96.202       36.321        0.143      342.571       18.075      861.507
08/23/2014  02:10:00       84.549       36.572       14.369       19.093       19.001       17.004      364.559      361.039      289.147        0.485        0.051       92.120       12.053        0.017      342.505       17.962      861.498
08/23/2014  02:11:00       52.275       21.419        8.661       26.056       16.127       11.283      678.891      260.086      127.297        0.217        0.053       56.493        7.678        0.018      342.485       17.929      861.495
08/23/2014  02:12:00       13.768       50.375       -5.120       10.382       10.999        8.874      107.785      120.967       78.747        0.153        0.015       52.223        7.700        0.022      342.472       17.905      861.490
08/23/2014  02:13:00       -1.824       61.849      -12.301        7.461       13.602        7.267       55.660      185.022       52.803        0.214        0.015       61.876        7.676        0.015      342.622       18.158      861.489
08/23/2014  02:14:00      -36.428       45.539      -10.197       25.449       23.094        7.755      647.652      533.313       60.144        0.237        0.062       58.317        9.491        0.026      342.519       17.986      861.493
08/23/2014  02:15:00      -86.130        8.600      -18.182       29.352       16.123       11.927      861.555      259.943      142.254        0.454        0.063       86.559       10.110        0.014      342.263       17.550      861.505
08/23/2014  02:16:00      -59.077       10.514      -11.468       29.396       17.931       15.939      864.107      321.536      254.037        0.259        0.072       60.005       11.140        0.034      342.155       17.369      861.506
08/23/2014  02:17:00      -55.666       52.819      -14.354       17.369       23.174       11.408      301.699      537.035      130.150        0.353        0.048       76.737        9.624        0.016      342.327       17.659      861.503
08/23/2014  02:18:00      -18.662       75.670       -8.978       18.119       20.835       10.430      328.311      434.102      108.790        0.351        0.044       77.937        8.024        0.011      342.345       17.688      861.490
08/23/2014  02:19:00       -5.343       78.477       -7.243       16.916       15.656       10.340      286.146      245.102      106.909        0.344        0.032       78.659        8.077        0.011      342.372       17.735      861.486
08/23/2014  02:20:00      -27.586       46.325       -3.961       24.292       31.706       14.268      590.116     1005.240      203.565        0.236        0.090       53.916       16.480        0.093      342.382       17.752      861.484
08/23/2014  02:21:00      -63.176       24.101      -11.730       18.207       30.225       11.221      331.478      913.524      125.902        0.304        0.069       67.617       14.721        0.047      342.188       17.423      861.499
08/23/2014  02:22:00      -68.716      -18.623      -13.734       16.551       17.448        9.297      273.937      304.437       86.426        0.296        0.033       71.195        3.870        0.003      342.178       17.406      861.506
08/23/2014  02:23:00      -89.494      -64.748       -4.434       36.782       22.479       21.711     1352.882      505.322      471.373        0.727        0.116      110.460       11.102        0.010      342.150       17.360      861.503
08/23/2014  02:24:00      -38.975      -34.269        9.014       45.729       32.897       26.010     2091.101     1082.188      676.511        0.331        0.192       51.898       19.665        0.144      342.086       17.249      861.501
08/23/2014  02:25:00      -36.331      -49.751        3.658       53.431       36.606       25.760     2854.848     1339.984      663.554        0.433        0.243       61.605       24.768        0.162      342.129       17.323      861.503
08/23/2014  02:26:00      -83.571      -40.040        1.417       18.536       23.453       14.106      343.601      550.055      198.967        0.484        0.055       92.667       12.988        0.020      342.162       17.378      861.502
08/23/2014  02:27:00      -61.577      -39.392        0.922       20.521       17.131       12.610      421.131      293.471      159.009        0.311        0.044       73.099       11.457        0.025      342.163       17.380      861.492
08/23/2014  02:28:00      -86.234      -47.224       -2.263       40.932       20.845       13.051     1675.436      434.533      170.317        0.598        0.114       98.317       14.003        0.020      342.162       17.380      861.502
08/23/2014  02:29:00     -147.933      -71.948       -7.109       33.508       32.272       19.445     1122.796     1041.500      378.107        1.483        0.127      164.502       16.919        0.011      342.138       17.339      861.519
08/23/2014  02:30:00     -133.765      -69.054      -12.587       38.489       32.961       18.694     1481.368     1086.412      349.476        1.287        0.146      150.537       12.742        0.007      342.156       17.370      861.536
08/23/2014  02:31:00     -123.943      -34.831      -10.647       34.918       37.166       26.539     1219.298     1381.279      704.339        1.000        0.165      128.744       22.579        0.031      342.010       17.121      861.551
08/23/2014  02:32:00      -88.741      -35.305        6.231       47.541       56.707       32.607     2260.138     3215.671     1063.226        0.785        0.327       95.506       27.516        0.083      341.962       17.039      861.554
08/23/2014  02:33:00     -101.228      -23.293      -12.107       23.867       21.881       17.083      569.642      478.798      291.830        0.614        0.067      103.873       14.929        0.021      341.964       17.044      861.557
08/23/2014  02:34:00      -40.332       -3.238        2.586       30.023       20.454       16.632      901.407      418.386      276.617        0.162        0.080       40.461       12.100        0.089      341.957       17.031      861.574
08/23/2014  02:35:00        4.254      -14.552        1.899        9.203       14.001        8.040       84.702      196.026       64.639        0.029        0.017       15.161        2.899        0.037      341.958       17.032      861.572
08/23/2014  02:36:00       -1.035      -30.573       -4.417       13.428       28.823       10.176      180.309      830.744      103.549        0.103        0.056       30.590       12.618        0.170      342.153       17.363      861.572
08/23/2014  02:37:00      -50.067      -30.669       -4.676       14.701       10.086        9.601      216.128      101.726       92.189        0.194        0.021       58.713        5.995        0.010      342.124       17.314      861.599
08/23/2014  02:38:00      -33.790      -24.188       -0.048       33.950       22.105       11.286     1152.614      488.619      127.374        0.175        0.088       41.555        5.402        0.017      342.060       17.204      861.631
08/23/2014  02:39:00      -45.020      -30.244        0.994       26.735       19.328       11.567      714.773      373.555      133.802        0.208        0.061       54.235        9.901        0.033      341.999       17.103      861.659
08/23/2014  02:40:00      -59.735      -27.674        0.436       18.940       12.837       10.495      358.713      164.785      110.135        0.248        0.032       65.834        8.694        0.017      342.089       17.257      861.675
08/23/2014  02:41:00      -71.792      -34.692        4.255       34.136       21.444       13.004     1165.267      459.834      169.108        0.408        0.090       79.735       12.024        0.023      342.042       17.174      861.693
08/23/2014  02:42:00      -53.448       -5.132       -3.399       21.961       29.500       10.676      482.279      870.240      113.970        0.218        0.073       53.694        9.926        0.034      341.866       16.876      861.726
08/23/2014  02:43:00      -16.560       14.481       -4.867       25.335       16.042       12.661      641.840      257.346      160.297        0.078        0.053       21.999       10.553        0.230      341.579       16.389      861.743
08/23/2014  02:44:00      -21.270       35.337       -3.962       12.834       12.111        8.310      164.710      146.665       69.053        0.105        0.019       41.245        6.004        0.021      341.717       16.624      861.745
08/23/2014  02:45:00       14.106       27.478        1.346       16.617       17.763       12.747      276.109      315.512      162.494        0.085        0.038       30.887       13.690        0.196      341.609       16.442      861.751
08/23/2014  02:46:00       -3.523       25.479       -0.149       18.343       17.030       11.153      336.471      290.033      124.389        0.071        0.038       25.722       10.524        0.167      341.615       16.452      861.761
08/23/2014  02:47:00      -43.368        1.261       -7.586        8.194       15.974        5.960       67.137      255.169       35.518        0.115        0.018       43.386        4.561        0.011      341.796       16.758      861.756
08/23/2014  02:48:00      -41.632      -18.168        0.169       12.580        9.149        6.232      158.258       83.712       38.832        0.117        0.014       45.424        5.284        0.014      341.743       16.666      861.757
08/23/2014  02:49:00      -83.801      -12.177       -6.249       29.451       17.416       12.812      867.353      303.327      164.152        0.427        0.067       84.681       15.146        0.032      341.715       16.620      861.765
08/23/2014  02:50:00     -112.440      -27.285       -6.831       29.725       20.064       17.929      883.555      402.575      321.443        0.752        0.080      115.703       17.342        0.022      341.585       16.400      861.769
08/23/2014  02:51:00     -137.045      -53.460      -11.382       19.856       19.856       13.860      394.279      394.271      192.094        1.137        0.049      147.103        7.818        0.003      341.509       16.269      861.769
08/23/2014  02:52:00     -113.426      -55.913       -3.302       35.538       25.295       17.933     1262.925      639.818      321.589        0.911        0.111      126.458       19.675        0.024      341.524       16.296      861.760
08/23/2014  02:53:00      -98.310      -49.376       -2.646       26.647       17.659       19.546      710.037      311.831      382.041        0.676        0.070      110.013       13.936        0.016      341.560       16.357      861.755
08/23/2014  02:54:00      -95.947      -37.899       -5.010       20.538       16.907       11.823      421.800      285.851      139.791        0.576        0.042      103.161       10.254        0.010      341.610       16.443      861.754
08/23/2014  02:55:00      -65.595      -42.232       -4.301       28.891       16.658       11.270      834.681      277.485      127.016        0.367        0.062       78.015        8.993        0.013      341.651       16.512      861.750
08/23/2014  02:56:00      -15.254      -19.432        4.542       24.445       12.485       10.701      597.550      155.876      114.512        0.075        0.043       24.704        8.499        0.118      341.622       16.462      861.740
08/23/2014  02:57:00      -27.835      -45.445       -3.153       17.985       14.165       10.199      323.476      200.654      104.023        0.174        0.031       53.292        8.396        0.025      341.813       16.785      861.738
08/23/2014  02:58:00      -28.221      -27.574       -4.446       22.343       14.814       11.582      499.230      219.462      134.139        0.121        0.043       39.456        6.111        0.024      341.896       16.925      861.744
08/23/2014  02:59:00      -13.574      -33.406      -10.423       18.326       12.675       13.697      335.846      160.658      187.614        0.105        0.034       36.059        9.030        0.063      341.914       16.955      861.739
08/23/2014  03:00:00      -39.954      -18.644        6.396       30.921       25.929       17.295      956.114      672.316      299.111        0.196        0.096       44.090       14.769        0.112      341.884       16.908      861.747
08/23/2014  03:01:00      -77.159      -23.495        3.959       37.905       36.729       19.917     1436.825     1348.998      396.696        0.485        0.159       80.657       17.453        0.047      341.665       16.535      861.759
08/23/2014  03:02:00      -71.766        9.750       -4.029       34.747       32.709       23.476     1207.347     1069.885      551.118        0.404        0.141       72.426       19.056        0.069      341.262       15.853      861.781
08/23/2014  03:03:00     -132.382       25.508      -15.566       58.736       36.710       24.037     3449.860     1347.636      577.765        1.190        0.269      134.817       24.877        0.034      341.279       15.881      861.791
08/23/2014  03:04:00     -107.431        2.281       -3.931       51.479       30.990       21.851     2650.139      960.402      477.471        0.782        0.204      107.455       21.540        0.040      341.257       15.844      861.800
08/23/2014  03:05:00      -90.572        0.519       -7.365       34.942       24.541       18.258     1220.978      602.249      333.352        0.521        0.108       90.574       15.904        0.031      341.404       16.093      861.808
08/23/2014  03:06:00      -95.656       -5.322       -9.235       30.191       35.631       16.065      911.479     1269.577      258.100        0.585        0.122       95.804       10.837        0.013      341.525       16.297      861.818
08/23/2014  03:07:00      -85.715      -38.369       -6.490       45.283       22.861       15.336     2050.521      522.637      235.188        0.583        0.140       93.911       17.993        0.037      341.408       16.098      861.815
08/23/2014  03:08:00     -110.562      -53.087       -0.966       25.553       25.771       17.980      652.969      664.170      323.263        0.834        0.082      122.647       15.750        0.016      341.336       15.978      861.829
08/23/2014  03:09:00      -73.150       -9.978       -1.603       38.299       23.127       17.376     1466.782      534.861      301.928        0.388        0.115       73.827       15.741        0.045      341.369       16.034      861.850
08/23/2014  03:10:00     -112.236       -2.281      -12.871       26.791       23.893       13.260      717.742      570.859      175.836        0.712        0.073      112.259        5.891        0.003      341.253       15.837      861.873
08/23/2014  03:11:00     -151.018       24.315      -22.579       42.109       30.513       23.444     1773.135      931.069      549.643        1.358        0.163      152.963       18.853        0.015      341.417       16.116      861.880
08/23/2014  03:12:00     -193.965       63.845      -16.751       45.954       37.513       27.194     2111.736     1407.243      739.517        2.312        0.213      204.203       21.574        0.011      341.438       16.147      861.902
08/23/2014  03:13:00     -175.362       50.634      -14.828       36.561       28.019       21.519     1336.705      785.072      463.085        1.806        0.129      182.525       15.747        0.007      341.332       15.970      861.922
08/23/2014  03:14:00     -129.453       32.600      -13.630       37.923       29.032       17.658     1438.117      842.867      311.815        1.030        0.130      133.494        9.519        0.005      341.449       16.168      861.927
08/23/2014  03:15:00     -106.032       50.730      -19.031       33.815       38.298       26.088     1143.422     1466.719      680.569        0.873        0.165      117.542       20.047        0.029      341.576       16.383      861.940
08/23/2014  03:16:00      -97.447       48.532      -10.925       29.031       39.250       22.332      842.791     1540.590      498.704        0.743        0.144      108.863       20.333        0.035      341.580       16.391      861.939
08/23/2014  03:17:00      -70.318       68.187      -13.710       26.398       36.335       21.410      696.867     1320.215      458.407        0.613        0.124       97.949       17.327        0.031      341.773       16.718      861.943
08/23/2014  03:18:00      -61.300      106.307      -13.510       26.513       29.716       19.958      702.925      883.050      398.337        0.861        0.099      122.715       16.672        0.018      341.901       16.936      861.953
08/23/2014  03:19:00      -25.768       72.615      -10.965       23.493       26.284       12.774      551.909      690.859      163.166        0.373        0.070       77.052        9.547        0.015      341.956       17.029      861.943
08/23/2014  03:20:00      -39.222       41.433      -10.276       20.085       26.168       10.109      403.415      684.767      102.198        0.228        0.060       57.053        8.039        0.020      341.872       16.886      861.949
08/23/2014  03:21:00      -48.969       26.092       -8.769       18.139       18.453       12.799      329.038      340.504      163.827        0.199        0.042       55.486        9.201        0.027      341.806       16.775      861.943
08/23/2014  03:22:00      -45.190        0.596      -11.591       10.733       12.469        9.275      115.199      155.476       86.034        0.127        0.018       45.194        3.968        0.008      341.895       16.924      861.944
08/23/2014  03:23:00      -67.896       -4.769       -7.259       36.525       27.336       12.951     1334.101      747.235      167.741        0.347        0.112       68.063        9.430        0.019      341.859       16.866      861.948
08/23/2014  03:24:00      -67.482        3.118       -8.193       27.292       37.815       22.316      744.858     1429.955      498.004        0.365        0.134       67.554       21.244        0.099      341.906       16.945      861.957
08/23/2014  03:25:00      -94.142       -2.466      -11.619       40.127       29.786       16.122     1610.148      887.198      259.904        0.588        0.138       94.174       16.311        0.030      341.580       16.390      861.962
08/23/2014  03:26:00      -86.427       -0.856      -13.278       27.591       22.947       15.989      761.261      526.543      255.648        0.459        0.077       86.431       10.671        0.015      341.583       16.396      861.957
08/23/2014  03:27:00      -49.149        0.127       -1.914       28.058       18.459       16.056      787.227      340.724      257.790        0.190        0.069       49.149       15.414        0.098      341.615       16.451      861.950
08/23/2014  03:28:00      -79.749      -23.680      -10.244       33.988       17.431       14.335     1155.178      303.853      205.501        0.434        0.083       83.190       14.564        0.031      341.573       16.379      861.962
08/23/2014  03:29:00      -78.175      -22.116       -4.907       24.170       28.458       15.231      584.169      809.840      231.969        0.412        0.081       81.243       14.921        0.034      341.647       16.504      861.969
08/23/2014  03:30:00      -98.363       10.455       -8.536       42.141       32.749       25.892     1775.833     1072.488      670.386        0.669        0.176       98.917       22.609        0.052      341.817       16.793      861.964
08/23/2014  03:31:00      -70.555      -22.238       -0.431       56.739       29.789       26.369     3219.329      887.397      695.350        0.514        0.240       73.977       34.058        0.212      341.715       16.620      861.967
08/23/2014  03:32:00      -82.948      -36.079        1.138       57.908       35.651       24.484     3353.349     1271.015      599.447        0.670        0.261       90.455       17.944        0.039      341.751       16.681      861.971
08/23/2014  03:33:00      -93.241      -77.007       -7.664       34.747       41.646       26.121     1207.355     1734.379      682.305        0.915        0.181      120.930       20.930        0.030      341.794       16.754      861.967
08/23/2014  03:34:00      -72.890      -53.263       -1.549       62.907       44.223       27.959     3957.284     1955.660      781.725        0.742        0.335       90.277       24.012        0.071      341.715       16.620      861.962
08/23/2014  03:35:00      -64.761      -45.508       11.512       52.757       29.711       22.663     2783.281      882.747      513.619        0.529        0.209       79.152       28.185        0.127      341.608       16.439      861.975
08/23/2014  03:36:00      -48.287      -53.494        9.538       42.060       34.912       24.514     1769.051     1218.850      600.920        0.444        0.179       72.064       25.103        0.121      341.721       16.630      861.980
08/23/2014  03:37:00       14.167       -3.085       11.466       25.057       13.212       14.873      627.872      174.567      221.206        0.068        0.051       14.499       11.731        0.655      341.630       16.476      861.981
08/23/2014  03:38:00      -45.787       -0.151       -2.677       23.947       39.217       23.007      573.447     1537.955      529.330        0.237        0.132       45.787       18.377        0.161      341.674       16.553      862.002
08/23/2014  03:39:00      -27.400       15.015        3.653       23.853       37.166       19.416      568.943     1381.330      376.964        0.166        0.116       31.245       17.668        0.320      341.604       16.432      862.029
08/23/2014  03:40:00       16.533      -21.432        8.751       26.608       27.015       16.210      707.982      729.797      262.770        0.125        0.085       27.068       10.610        0.154      341.473       16.209      862.051
08/23/2014  03:41:00       46.631       -7.556       21.614       28.223       47.250       21.351      796.545     2232.519      455.886        0.309        0.174       47.239       21.607        0.209      341.316       15.944      862.044
08/23/2014  03:42:00       21.795      -64.570       -6.068       40.677       32.827       25.505     1654.617     1077.625      650.511        0.403        0.169       68.149       19.711        0.084      341.104       15.584      862.021
08/23/2014  03:43:00       53.680       41.524       24.001       37.538       28.982       22.862     1409.124      839.945      522.668        0.398        0.139       67.866       10.822        0.025      341.361       16.019      862.031
08/23/2014  03:44:00        3.069        4.420       41.765       22.766       37.338       16.586      518.295     1394.123      275.101        0.198        0.109        5.381       11.849        4.850      341.398       16.083      862.042
08/23/2014  03:45:00       64.338        7.933       36.592       38.006       48.233       24.313     1444.420     2326.406      591.107        0.495        0.218       64.825       22.703        0.123      341.433       16.143      862.039
08/23/2014  03:46:00       72.829       49.987       10.921       16.713       23.502       17.649      279.331      552.347      311.497        0.453        0.057       88.333        8.546        0.009      341.372       16.039      862.038
08/23/2014  03:47:00       76.770       36.426       15.177       31.057       18.017       22.255      964.530      324.612      495.266        0.462        0.089       84.974       12.088        0.020      341.441       16.157      862.039
08/23/2014  03:48:00       62.380       26.722       10.622       26.857       18.244       17.390      721.277      332.860      302.418        0.304        0.068       67.863       14.840        0.048      341.457       16.182      862.056
08/23/2014  03:49:00       76.401       36.342       12.394       28.666       19.671       18.795      821.742      386.958      353.238        0.444        0.078       84.604       14.903        0.031      341.409       16.102      862.066
08/23/2014  03:50:00       91.854       48.742        9.660       39.646       24.292       27.284     1571.831      590.109      744.429        0.691        0.145      103.985       13.210        0.016      341.417       16.116      862.065
08/23/2014  03:51:00       70.698       34.871       22.226       39.242       26.755       29.352     1539.932      715.825      861.562        0.491        0.156       78.830       22.813        0.084      341.353       16.007      862.062
08/23/2014  03:52:00       72.365       27.227       15.976       35.545       29.010       22.572     1263.478      841.572      509.483        0.442        0.131       77.317       16.928        0.048      341.307       15.929      862.067
08/23/2014  03:53:00       84.071       37.260       15.148       19.296       23.189       23.189      372.328      537.724      537.710        0.507        0.072       91.958       13.859        0.023      341.368       16.031      862.076
08/23/2014  03:54:00       54.439       18.712       15.360       21.099       17.582       20.516      445.147      309.130      420.905        0.236        0.059       57.565        9.744        0.029      341.351       16.003      862.071
08/23/2014  03:55:00       49.497       51.859       42.383       26.565       28.006       29.859      705.683      784.325      891.562        0.466        0.119       71.689       14.242        0.039      341.275       15.875      862.068
08/23/2014  03:56:00       59.615       57.546       52.390       42.843       21.163       27.818     1835.555      447.875      773.817        0.633        0.153       82.858       29.191        0.124      341.371       16.038      862.089
08/23/2014  03:57:00      104.268       56.484       28.185       37.973       22.234       25.744     1441.926      494.371      662.759        0.873        0.130      118.584       19.910        0.028      341.551       16.343      862.096
08/23/2014  03:58:00       63.343       50.918       41.847       54.304       31.108       26.505     2948.923      967.721      702.517        0.649        0.231       81.271       19.813        0.059      341.374       16.041      862.094
08/23/2014  03:59:00       74.966       55.613       40.352       42.394       26.558       32.573     1797.210      705.318     1061.002        0.695        0.178       93.341       27.658        0.088      341.369       16.033      862.092
08/23/2014  04:00:00       81.289       34.990       11.837       37.003       40.465       23.904     1369.199     1637.398      571.398        0.577        0.179       88.499       15.776        0.032      341.381       16.053      862.096
08/23/2014  04:01:00       44.811       37.528       23.968       21.592       21.761       18.505      466.218      473.531      342.432        0.264        0.064       58.450       12.925        0.049      341.325       15.959      862.105
08/23/2014  04:02:00       -7.190        4.563       16.746       30.513       28.710       18.633      931.019      824.268      347.193        0.123        0.105        8.516       23.708        7.751      341.284       15.889      862.105
08/23/2014  04:03:00       10.851      -35.131       -6.196       27.944       20.375       14.304      780.864      415.161      204.613        0.140        0.070       36.769        8.528        0.054      341.491       16.240      862.100
08/23/2014  04:04:00       37.238      -12.307        9.895       31.927       18.784       18.453     1019.328      352.847      340.522        0.167        0.086       39.219       12.298        0.098      341.183       15.718      862.099
08/23/2014  04:05:00       28.458      -19.296        9.023       25.054       15.734       14.511      627.684      247.551      210.584        0.117        0.054       34.383       13.964        0.165      341.267       15.863      862.105
08/23/2014  04:06:00      -33.921      -12.302      -10.482       18.179       10.333        6.749      330.459      106.780       45.546        0.095        0.024       36.083        5.185        0.021      341.467       16.199      862.123
08/23/2014  04:07:00      -62.330      -28.583       -9.353       24.031       19.330       13.356      577.476      373.630      178.384        0.296        0.056       68.571        7.295        0.011      341.462       16.192      862.123
08/23/2014  04:08:00      -57.110      -45.308        5.214       46.894       36.919       24.654     2199.027     1362.984      607.835        0.475        0.208       72.900       24.407        0.112      341.369       16.034      862.122
08/23/2014  04:09:00     -113.223     -102.863       -5.145       32.637       33.597       22.660     1065.148     1128.772      513.481        1.307        0.135      152.971       18.159        0.014      341.494       16.246      862.118
08/23/2014  04:10:00     -131.787      -70.815       -0.178       41.326       34.704       29.035     1707.873     1204.399      843.003        1.307        0.188      149.609       21.615        0.021      341.471       16.206      862.120
08/23/2014  04:11:00     -117.179      -71.512        3.440       49.881       29.997       23.924     2488.080      899.840      572.374        1.141        0.198      137.277       23.483        0.029      341.456       16.182      862.124
08/23/2014  04:12:00      -93.380      -60.372        6.444       46.128       37.149       21.677     2127.762     1380.084      469.906        0.819        0.199      111.197       20.565        0.034      341.436       16.147      862.129
08/23/2014  04:13:00      -86.222      -50.849        3.539       44.916       32.105       18.796     2017.437     1030.757      353.295        0.672        0.170      100.099       18.801        0.035      341.447       16.166      862.132
08/23/2014  04:14:00      -95.089      -75.630       -3.438       37.252       27.246       19.856     1387.740      742.324      394.279        0.865        0.126      121.498       19.447        0.026      341.470       16.204      862.138
08/23/2014  04:15:00     -110.143     -127.233      -12.035       52.205       40.695       22.454     2725.402     1656.064      504.189        1.667        0.244      168.285       26.934        0.026      341.389       16.067      862.144
08/23/2014  04:16:00      -82.378      -70.422        0.154       56.231       45.083       27.717     3161.969     2032.453      768.242        0.885        0.298      108.376       29.431        0.074      341.293       15.906      862.164
08/23/2014  04:17:00     -106.558     -132.442      -10.172       56.630       40.849       32.609     3207.005     1668.606     1063.363        1.747        0.297      169.987       31.103        0.033      341.213       15.768      862.171
08/23/2014  04:18:00      -42.782     -130.548        2.130       39.439       55.816       26.206     1555.448     3115.396      686.735        1.212        0.268      137.379       14.903        0.012      341.191       15.732      862.173
08/23/2014  04:19:00      -50.265      -96.562        1.067       44.434       48.702       31.012     1974.374     2371.927      961.761        0.858        0.265      108.861       19.857        0.033      341.144       15.653      862.171
08/23/2014  04:20:00      -12.861      -61.363       11.758       51.524       43.645       28.763     2654.680     1904.909      827.301        0.473        0.269       62.697       29.384        0.220      341.117       15.607      862.169
08/23/2014  04:21:00      -61.844      -57.223        1.061       41.809       48.376       28.554     1747.977     2340.265      815.316        0.600        0.245       84.257       25.977        0.095      341.114       15.602      862.194
08/23/2014  04:22:00      -82.414      -81.153       -5.537       30.574       61.347       21.900      934.798     3763.508      479.612        0.929        0.259      115.662       18.111        0.025      341.087       15.557      862.208
08/23/2014  04:23:00      -56.175      -57.374        1.088       41.198       48.383       20.563     1697.315     2340.948      422.831        0.545        0.223       80.296       19.625        0.060      341.136       15.640      862.225
08/23/2014  04:24:00      -27.792       12.081       29.380       48.524       20.166       26.395     2354.564      406.681      696.677        0.262        0.173       30.305       31.431        1.076      341.032       15.464      862.251
08/23/2014  04:25:00       13.761       96.326      -10.269       35.220       44.797       25.763     1240.475     2006.777      663.707        0.674        0.196       97.304       17.803        0.033      340.895       15.232      862.288
08/23/2014  04:26:00       20.484       77.577       -6.074       20.995       34.540       22.977      440.776     1193.029      527.957        0.432        0.108       80.236       22.131        0.076      340.906       15.250      862.302
08/23/2014  04:27:00        3.781       60.508      -14.073       15.177       21.081        8.695      230.348      444.391       75.599        0.231        0.038       60.626        4.252        0.005      341.042       15.481      862.294
08/23/2014  04:28:00      -57.422        2.582       -5.595       27.784       17.275        8.823      771.931      298.429       77.842        0.224        0.057       57.480        4.433        0.006      341.074       15.535      862.279
08/23/2014  04:29:00     -107.597      -33.245      -13.720       16.695       27.111       14.176      278.725      734.990      200.946        0.704        0.061      112.616        5.334        0.002      341.103       15.584      862.267
08/23/2014  04:30:00     -152.598      -71.468       -5.255       31.779       21.947       21.232     1009.933      481.663      450.780        1.518        0.097      168.505       13.412        0.006      341.109       15.593      862.266
08/23/2014  04:31:00     -153.141      -75.196       -1.862       39.024       32.294       27.584     1522.866     1042.904      760.857        1.622        0.166      170.606       24.674        0.021      341.053       15.498      862.267
08/23/2014  04:32:00     -113.586      -74.327        4.806       57.060       37.749       30.003     3255.849     1424.968      900.151        1.201        0.279      135.743       25.123        0.034      341.060       15.511      862.259
08/23/2014  04:33:00     -126.808      -80.075        0.191       59.539       39.413       28.222     3544.902     1553.359      796.472        1.419        0.295      149.974       29.557        0.039      341.103       15.584      862.250
08/23/2014  04:34:00     -108.821      -98.564       -0.966       51.033       39.880       30.199     2604.355     1590.429      911.953        1.333        0.255      146.822       23.759        0.026      341.098       15.575      862.254
08/23/2014  04:35:00      -95.819      -61.781        1.434       44.337       43.273       23.920     1965.812     1872.517      572.152        0.870        0.221      114.009       24.374        0.046      341.126       15.620      862.259
08/23/2014  04:36:00      -52.277      -60.681        0.806       48.428       43.998       25.198     2345.225     1935.781      634.918        0.566        0.246       80.094       28.063        0.123      341.149       15.660      862.254
08/23/2014  04:37:00      -93.925      -29.624      -13.274       32.454       23.291       17.779     1053.289      542.471      316.082        0.589        0.096       98.486       14.692        0.022      341.099       15.578      862.250
08/23/2014  04:38:00     -176.090        4.309      -25.925       53.066       37.324       26.250     2816.014     1393.104      689.071        1.830        0.245      176.143       24.281        0.019      340.967       15.352      862.257
08/23/2014  04:39:00     -146.919      -34.740      -15.565       48.328       40.165       18.023     2335.614     1613.229      324.829        1.365        0.214      150.971       10.722        0.005      340.900       15.239      862.260
08/23/2014  04:40:00     -147.687      -50.159      -15.159       42.904       51.673       24.717     1840.740     2670.109      610.936        1.484        0.256      155.973       21.844        0.020      340.845       15.147      862.258
08/23/2014  04:41:00     -189.056      -28.389      -13.978       41.008       32.137       25.284     1681.690     1032.758      639.295        2.005        0.168      191.175       23.485        0.015      340.809       15.086      862.252
08/23/2014  04:42:00     -198.449      -20.210      -15.869       51.644       42.173       30.538     2667.089     1778.604      932.544        2.271        0.269      199.475       29.263        0.022      340.756       14.995      862.250
08/23/2014  04:43:00     -215.331      -60.577      -13.191       52.246       50.563       32.979     2729.593     2556.656     1087.644        2.829        0.319      223.690       29.770        0.018      340.745       14.974      862.249
08/23/2014  04:44:00     -221.755      -76.123       -2.573       45.739       51.814       30.602     2092.079     2684.703      936.463        3.034        0.286      234.457       25.849        0.012      340.681       14.864      862.233
08/23/2014  04:45:00     -187.162      -51.257       -0.628       71.127       52.117       36.516     5058.994     2716.174     1333.390        2.338        0.455      194.054       34.822        0.032      340.636       14.791      862.218
08/23/2014  04:46:00     -173.729      -62.155       -2.742       86.058       58.904       37.902     7405.942     3469.739     1436.591        2.318        0.616      184.513       44.100        0.057      340.613       14.751      862.217
08/23/2014  04:47:00     -175.748      -53.276        4.873       85.296       56.843       42.128     7275.444     3231.104     1774.755        2.301        0.614      183.645       46.511        0.064      340.543       14.634      862.218
08/23/2014  04:48:00     -243.640      -70.894       -4.202       62.332       53.864       35.055     3885.323     2901.363     1228.885        3.621        0.401      253.744       27.432        0.012      340.541       14.627      862.211
08/23/2014  04:49:00     -227.458      -29.642       -7.416       97.761       64.890       43.941     9557.193     4210.770     1930.807        3.418        0.785      229.381       47.659        0.043      340.613       14.752      862.209
08/23/2014  04:50:00     -178.676      -33.109       -8.046       88.120       42.904       36.077     7765.053     1840.718     1301.556        2.199        0.545      181.718       38.655        0.045      340.712       14.920      862.212
08/23/2014  04:51:00     -167.430      -11.427      -11.019       45.056       49.510       26.693     2030.048     2451.272      712.511        1.674        0.260      167.820       22.464        0.018      340.710       14.918      862.204
08/23/2014  04:52:00     -181.946      -26.282      -16.730       51.327       51.750       32.860     2634.507     2678.062     1079.755        2.023        0.320      183.835       27.010        0.022      340.718       14.930      862.199
08/23/2014  04:53:00     -213.512      -47.141      -18.832       55.409       53.576       31.292     3070.134     2870.430      979.182        2.754        0.346      218.654       29.797        0.019      340.846       15.145      862.184
08/23/2014  04:54:00     -141.970      -47.063       -5.872       48.630       35.710       30.092     2364.894     1275.188      905.535        1.347        0.227      149.567       32.802        0.048      340.844       15.144      862.177
08/23/2014  04:55:00      -90.494      -22.715        0.890       38.674       38.040       24.494     1495.646     1447.019      599.975        0.612        0.177       93.302       12.760        0.019      340.911       15.260      862.180
08/23/2014  04:56:00      -40.007      -15.211       15.783       57.903       25.272       20.806     3352.787      638.663      432.883        0.325        0.221       42.801       21.348        0.249      340.847       15.150      862.174
08/23/2014  04:57:00      -44.007      -15.676        3.184       42.597       23.323       20.827     1814.522      543.963      433.779        0.249        0.140       46.715       19.935        0.182      340.822       15.108      862.177
08/23/2014  04:58:00      -67.037      -17.002       -4.353       30.697       31.739       16.071      942.303     1007.359      258.266        0.350        0.110       69.160       15.169        0.048      340.917       15.268      862.178
08/23/2014  04:59:00      -85.138       12.903        0.114       44.562       22.447       21.040     1985.814      503.879      442.679        0.517        0.147       86.110       24.431        0.080      340.914       15.262      862.199
08/23/2014  05:00:00     -110.268        9.853       -9.911       21.575       17.994       12.146      465.501      323.800      147.531        0.665        0.047      110.707        9.185        0.007      340.953       15.329      862.213
08/23/2014  05:01:00      -48.016       -6.210        0.918       27.649       34.086       13.048      764.456     1161.828      170.263        0.222        0.105       48.416       13.684        0.080      340.933       15.295      862.234
08/23/2014  05:02:00      -32.725      -17.526        3.579       24.233       22.379       13.098      587.250      500.827      171.550        0.133        0.063       37.123       13.162        0.126      340.915       15.265      862.247
08/23/2014  05:03:00      -31.686       -6.455        0.447       17.693       24.949       18.242      313.037      622.465      332.753        0.116        0.063       32.337       12.947        0.160      340.896       15.232      862.244
08/23/2014  05:04:00      -31.904      -19.682       -0.781       38.927       17.670       12.040     1515.326      312.240      144.967        0.169        0.099       37.487       15.860        0.179      340.914       15.264      862.244
08/23/2014  05:05:00      -50.970      -20.138        2.128       35.231       35.016       21.150     1241.211     1226.127      447.308        0.296        0.146       54.804       20.188        0.136      340.871       15.190      862.251
08/23/2014  05:06:00      -93.965      -25.366       -7.608       29.247       14.879       18.735      855.400      221.390      351.008        0.548        0.071       97.329       17.657        0.033      340.870       15.189      862.258
08/23/2014  05:07:00      -75.669      -40.862       -0.365       31.784       20.228       14.244     1010.230      409.154      202.892        0.451        0.081       85.997       16.884        0.039      340.980       15.374      862.258
08/23/2014  05:08:00      -50.251      -42.162       -2.242       41.185       17.709       17.864     1696.202      313.624      319.135        0.332        0.116       65.595       20.314        0.096      340.960       15.342      862.274
08/23/2014  05:09:00       10.832      -12.740       20.267       16.467       17.793       13.920      271.154      316.608      193.755        0.074        0.039       16.722       11.589        0.480      340.841       15.140      862.287
08/23/2014  05:10:00        2.819       10.709        3.764       25.509       19.148       21.288      650.726      366.655      453.167        0.080        0.074       11.074        6.417        0.336      340.736       14.963      862.297
08/23/2014  05:11:00        6.341      -30.005        5.435       15.264       22.963       14.163      232.981      527.322      200.603        0.097        0.048       30.668       12.492        0.166      340.779       15.034      862.311
08/23/2014  05:12:00       15.716        7.572        9.604       18.792       23.582       21.211      353.140      556.096      449.898        0.088        0.068       17.445        7.427        0.181      340.599       14.729      862.332
08/23/2014  05:13:00       36.121       38.741        8.790       15.374        9.465        9.468      236.350       89.590       89.639        0.165        0.021       52.967        3.352        0.004      340.575       14.690      862.355
08/23/2014  05:14:00       56.205       30.403        3.151       15.492       14.450       12.870      240.017      208.817      165.645        0.235        0.031       63.901        9.290        0.021      340.522       14.598      862.367
08/23/2014  05:15:00      111.474       54.882       16.357       25.552       20.711       21.748      652.908      428.945      472.974        0.863        0.078      124.251        4.692        0.001      340.600       14.732      862.374
08/23/2014  05:16:00       78.610       62.251       31.840       32.176       20.257       22.813     1035.295      410.335      520.440        0.652        0.098      100.273       10.146        0.010      340.641       14.803      862.374
08/23/2014  05:17:00       52.429       52.931       49.536       31.184       25.409       28.917      972.446      645.624      836.211        0.523        0.123       74.502       13.339        0.032      340.445       14.470      862.379
08/23/2014  05:18:00       43.521       43.129       39.397       25.571       22.665       23.239      653.878      513.719      540.055        0.351        0.085       61.272       14.252        0.054      340.409       14.410      862.387
08/23/2014  05:19:00       -1.414      -12.009        6.966       20.781       35.535       22.296      431.845     1262.720      497.113        0.119        0.110       12.092       24.216        4.011      340.368       14.340      862.393
08/23/2014  05:20:00       -7.053      -46.740       -6.609       12.809       19.222       12.926      164.063      369.470      167.088        0.149        0.035       47.269        5.915        0.016      340.572       14.684      862.386
08/23/2014  05:21:00        9.030      -30.090        1.195       11.042       17.603       12.234      121.916      309.875      149.670        0.078        0.029       31.416        9.097        0.084      340.680       14.869      862.370
08/23/2014  05:22:00      -60.114      -28.408        0.025       17.549       14.620        9.338      307.969      213.743       87.202        0.251        0.030       66.488        3.628        0.003      340.713       14.923      862.364
08/23/2014  05:23:00      -67.204      -47.395       -3.859       34.272       21.527       15.908     1174.592      463.411      253.049        0.433        0.095       82.236        7.347        0.008      340.731       14.955      862.359
08/23/2014  05:24:00      -86.490      -58.943        2.329       33.316       21.358       16.914     1109.948      456.181      286.098        0.641        0.093      104.665       16.049        0.024      340.640       14.800      862.358
08/23/2014  05:25:00      -66.087      -47.676        2.104       32.776       17.172       15.621     1074.244      294.864      244.027        0.413        0.081       81.489       18.441        0.051      340.608       14.745      862.369
08/23/2014  05:26:00      -73.299      -39.514        0.016       25.808       14.535       14.690      666.072      211.263      215.798        0.401        0.055       83.271       15.109        0.033      340.659       14.831      862.385
08/23/2014  05:27:00      -65.913      -57.588       -4.177       31.619       22.339       15.791      999.736      499.024      249.362        0.471        0.087       87.527       13.774        0.025      340.636       14.795      862.386
08/23/2014  05:28:00      -61.155      -57.490        1.761       27.979       28.781       13.670      782.816      828.368      186.863        0.442        0.090       83.934       11.543        0.019      340.671       14.852      862.387
08/23/2014  05:29:00      -88.790      -65.429       -0.217       37.078       32.189       20.428     1374.793     1036.127      417.316        0.750        0.141      110.293       16.238        0.022      340.688       14.882      862.381
08/23/2014  05:30:00      -83.383     -107.864        0.520       57.819       44.292       29.991     3343.072     1961.799      899.482        1.239        0.310      136.335       28.894        0.045      340.638       14.797      862.376
08/23/2014  05:31:00     -125.504     -101.833       -5.142       37.823       49.105       25.830     1430.573     2411.307      667.173        1.533        0.225      161.620       22.506        0.019      340.680       14.869      862.377
08/23/2014  05:32:00     -110.790      -84.633       -3.138       33.024       33.676       25.153     1090.570     1134.069      632.669        1.115        0.143      139.418       22.342        0.026      340.643       14.806      862.391
08/23/2014  05:33:00     -110.006      -68.973       -3.827       32.522       37.202       22.513     1057.683     1383.970      506.824        0.991        0.147      129.841       18.607        0.021      340.627       14.779      862.407
08/23/2014  05:34:00      -87.093      -48.324        5.741       43.368       29.963       20.075     1880.770      897.764      403.024        0.657        0.159       99.601       20.628        0.043      340.597       14.728      862.418
08/23/2014  05:35:00      -94.886      -28.599       -4.619       23.924       20.423       14.068      572.335      417.095      197.907        0.551        0.059       99.102        7.792        0.006      340.663       14.839      862.419
08/23/2014  05:36:00      -66.547      -53.208       -6.854       26.827       28.997       11.245      719.707      840.830      126.461        0.450        0.084       85.203        7.566        0.008      340.695       14.892      862.417
08/23/2014  05:37:00      -93.899      -56.698       -1.351       26.087       21.834       15.093      680.556      476.715      227.810        0.671        0.069      109.689       14.400        0.017      340.607       14.747      862.404
08/23/2014  05:38:00      -80.130      -60.199       -3.956       24.272       17.620       16.248      589.106      310.450      263.987        0.561        0.058      100.224       14.855        0.022      340.668       14.849      862.389
08/23/2014  05:39:00      -54.773      -29.689        1.628       42.257       22.691       13.775     1785.664      514.883      189.748        0.319        0.125       62.301       14.342        0.053      340.570       14.683      862.383
08/23/2014  05:40:00      -94.745      -56.939       -3.878       27.162       21.084       14.850      737.757      444.522      220.528        0.682        0.070      110.538        9.204        0.007      340.599       14.732      862.381
08/23/2014  05:41:00      -68.361      -54.182        1.892       41.347       25.347       22.047     1709.597      642.463      486.084        0.522        0.142       87.229       20.380        0.055      340.503       14.569      862.373
08/23/2014  05:42:00      -62.762      -35.703       -0.440       38.062       21.036       13.273     1448.721      442.516      176.164        0.364        0.103       72.206       14.964        0.043      340.468       14.509      862.378
08/23/2014  05:43:00      -89.628      -52.801       -2.351       34.542       23.244       14.435     1193.139      540.284      208.365        0.638        0.097      104.025        9.103        0.008      340.545       14.641      862.388
08/23/2014  05:44:00      -74.582      -54.523        3.751       32.251       25.995       19.560     1040.125      675.754      382.580        0.532        0.105       92.387       14.155        0.023      340.467       14.507      862.404
08/23/2014  05:45:00      -74.612      -40.970       -1.735       28.411       22.005       14.961      807.165      484.231      223.821        0.438        0.076       85.120       13.365        0.025      340.516       14.592      862.424
08/23/2014  05:46:00      -80.589      -48.567       -0.927       31.401       25.368       13.731      986.028      643.533      188.543        0.534        0.091       94.092       11.996        0.016      340.498       14.561      862.441
08/23/2014  05:47:00      -75.102      -58.533        8.138       38.405       36.067       25.612     1474.953     1300.854      655.961        0.628        0.172       95.218       18.442        0.038      340.431       14.447      862.444
08/23/2014  05:48:00      -92.515      -54.016        6.666       56.096       25.138       23.196     3146.807      631.925      538.064        0.792        0.216      107.130       26.119        0.059      340.361       14.329      862.441
08/23/2014  05:49:00      -84.938      -57.753        1.667       55.542       42.207       29.271     3084.864     1781.433      856.777        0.814        0.286      102.713       28.500        0.077      340.301       14.227      862.438
08/23/2014  05:50:00     -121.623      -55.982       -2.639       45.335       27.422       22.577     2055.222      751.965      509.729        1.062        0.166      133.889       21.902        0.027      340.376       14.355      862.436
08/23/2014  05:51:00      -92.262      -97.410        4.201       53.061       55.638       25.679     2815.454     3095.640      659.391        1.229        0.329      134.168       27.309        0.041      340.302       14.229      862.446
08/23/2014  05:52:00     -105.942      -60.255       -2.719       30.515       39.285       22.197      931.137     1543.289      492.715        0.891        0.148      121.879       19.143        0.025      340.304       14.232      862.451
08/23/2014  05:53:00     -114.883      -54.126       -3.792       53.149       33.094       22.782     2824.813     1095.235      519.012        1.029        0.222      126.995       13.209        0.011      340.243       14.129      862.463
08/23/2014  05:54:00     -110.645      -83.715        0.252       57.373       38.046       28.475     3291.617     1447.528      810.849        1.240        0.277      138.746       31.867        0.053      340.173       14.010      862.477
08/23/2014  05:55:00      -92.515      -53.614       -2.904       65.845       25.139       21.750     4335.586      631.969      473.046        0.844        0.272      106.928       31.200        0.085      340.189       14.036      862.499
08/23/2014  05:56:00     -108.799      -91.028       -7.477       38.448       31.309       17.371     1478.250      980.270      301.760        1.147        0.138      141.856       13.698        0.009      340.176       14.017      862.519
08/23/2014  05:57:00     -125.761      -99.576      -12.414       45.376       36.380       23.154     2058.975     1323.513      536.126        1.490        0.196      160.409       22.453        0.020      340.127       13.933      862.534
08/23/2014  05:58:00     -107.684      -75.821       -7.142       47.729       37.780       24.855     2278.046     1427.353      617.756        1.086        0.216      131.699       21.785        0.027      340.115       13.914      862.547
08/23/2014  05:59:00     -105.178      -70.822       -2.393       44.790       33.030       25.624     2006.157     1090.990      656.599        0.992        0.188      126.800       27.400        0.047      340.090       13.871      862.550
08/23/2014  06:00:00     -102.097      -76.184       -1.489       41.384       32.885       21.238     1712.608     1081.423      451.040        0.974        0.162      127.389       20.971        0.027      340.110       13.905      862.559
08/23/2014  06:01:00      -88.460      -77.527        6.009       43.442       29.624       23.079     1887.206      877.605      532.660        0.858        0.165      117.625       23.291        0.039      340.101       13.890      862.576
08/23/2014  06:02:00     -102.840      -71.579       -5.230       26.079       25.548       15.304      680.126      652.708      234.207        0.865        0.078      125.298       13.566        0.012      340.094       13.878      862.574
08/23/2014  06:03:00      -73.304      -60.111       -2.069       47.469       21.046       15.511     2253.267      442.947      240.603        0.596        0.147       94.799       16.353        0.030      340.101       13.889      862.568
08/23/2014  06:04:00      -98.699      -68.528       -9.413       31.918       21.818       17.657     1018.783      476.013      311.761        0.817        0.090      120.157        9.420        0.006      340.085       13.862      862.586
08/23/2014  06:05:00     -102.322      -91.716      -12.053       35.761       31.792       24.427     1278.868     1010.733      596.699        1.096        0.144      137.411       20.769        0.023      340.068       13.834      862.586
08/23/2014  06:06:00      -78.444      -90.120       -6.519       35.045       46.928       22.876     1228.172     2202.279      523.297        0.913        0.198      119.478       17.539        0.022      339.987       13.697      862.582
08/23/2014  06:07:00      -97.739      -93.491       -4.892       45.750       38.053       20.335     2093.045     1448.066      413.527        1.114        0.198      135.254       21.670        0.026      340.003       13.724      862.590
08/23/2014  06:08:00     -126.424     -114.358       -9.399       39.631       41.277       21.627     1570.622     1703.812      467.736        1.644        0.187      170.473       21.340        0.016      339.989       13.699      862.602
08/23/2014  06:09:00     -104.673     -118.713       -7.522       42.447       35.830       27.711     1801.730     1283.817      767.908        1.448        0.193      158.269       20.609        0.017      339.964       13.658      862.606
08/23/2014  06:10:00      -54.208      -69.482       -0.165       51.947       49.050       28.440     2698.507     2405.950      808.852        0.684        0.296       88.126       23.247        0.070      339.952       13.639      862.614
08/23/2014  06:11:00      -87.554      -85.323       -7.941       33.872       37.865       20.243     1147.307     1433.725      409.795        0.900        0.150      122.252       18.436        0.023      339.972       13.672      862.627
08/23/2014  06:12:00      -93.274      -56.151       -3.566       49.202       32.051       23.786     2420.809     1027.266      565.750        0.794        0.201      108.872       26.857        0.061      339.931       13.603      862.649
08/23/2014  06:13:00      -66.373      -55.929       -2.050       35.848       30.096       21.908     1285.083      905.794      479.965        0.510        0.134       86.795       15.255        0.031      339.996       13.713      862.658
08/23/2014  06:14:00      -71.766      -52.567        4.489       30.675       33.374       25.785      940.958     1113.797      664.887        0.533        0.136       88.959       18.824        0.045      339.965       13.660      862.669
08/23/2014  06:15:00      -74.517      -36.303        0.313       36.687       33.544       22.951     1345.946     1125.219      526.756        0.493        0.150       82.889       15.654        0.036      339.946       13.628      862.687
08/23/2014  06:16:00      -76.349      -81.094       -7.566       41.833       24.940       17.276     1749.982      622.019      298.445        0.757        0.134      111.380       19.629        0.031      340.025       13.761      862.704
08/23/2014  06:17:00      -90.695      -75.319      -18.325       40.248       38.266       19.465     1619.923     1464.313      378.881        0.885        0.173      117.892       10.649        0.008      340.094       13.878      862.714
08/23/2014  06:18:00      -69.559      -42.812       -1.251       34.307       37.606       22.670     1177.000     1414.191      513.909        0.489        0.155       81.678       20.044        0.060      339.997       13.713      862.736
08/23/2014  06:19:00      -84.532      -96.454      -19.584       31.408       24.154       18.015      986.450      583.406      324.547        0.936        0.095      128.254       13.305        0.011      340.073       13.842      862.760
08/23/2014  06:20:00      -40.466      -38.514      -10.259       31.261       19.934       12.721      977.260      397.348      161.825        0.238        0.077       55.864       10.994        0.039      340.014       13.740      862.780
08/23/2014  06:21:00      -37.348      -46.313        7.496       29.103       40.681       16.076      846.970     1654.912      258.445        0.318        0.138       59.496       10.755        0.033      340.011       13.737      862.807
08/23/2014  06:22:00      -27.528      -44.316        2.202       20.262       40.007       16.702      410.556     1600.558      278.954        0.251        0.115       52.170       18.596        0.127      340.098       13.882      862.827
08/23/2014  06:23:00      -22.312      -10.953        8.597       25.137       15.414       14.673      631.873      237.604      215.293        0.089        0.054       24.855       11.911        0.230      340.127       13.933      862.847
08/23/2014  06:24:00      -44.176      -18.899        8.581       29.118       19.678       14.653      847.880      387.219      214.706        0.192        0.072       48.049        4.605        0.009      340.093       13.875      862.865
08/23/2014  06:25:00      -31.703       -4.638        5.393       29.326       16.959       16.305      860.025      287.619      265.854        0.123        0.071       32.041       11.197        0.122      340.081       13.856      862.880
08/23/2014  06:26:00      -30.912      -12.386       -4.702       29.173       13.550       13.694      851.057      183.607      187.523        0.118        0.061       33.301       13.079        0.154      340.064       13.827      862.886
08/23/2014  06:27:00      -27.057       -9.671       -4.992       20.530       17.461       14.984      421.474      304.890      224.528        0.090        0.048       28.734        9.704        0.114      340.087       13.864      862.899
08/23/2014  06:28:00      -18.236       -6.011      -13.695       16.950       18.739        9.886      287.296      351.140       97.738        0.065        0.037       19.201        3.190        0.028      339.964       13.658      862.901
08/23/2014  06:29:00       -7.104       -7.328      -14.255       17.028       13.653       12.110      289.949      186.391      146.647        0.047        0.031       10.206        4.483        0.193      340.021       13.754      862.907
08/23/2014  06:30:00       13.971        7.511       -9.715       14.769       14.506       12.821      218.127      210.428      164.371        0.047        0.030       15.862        4.337        0.075      340.127       13.933      862.912
08/23/2014  06:31:00       23.768       -9.054        1.335       11.192        8.706       11.033      125.255       75.803      121.718        0.049        0.016       25.434        5.691        0.050      340.030       13.769      862.917
08/23/2014  06:32:00        1.416      -11.429       -2.499       18.385       12.347        9.882      338.025      152.439       97.661        0.036        0.029       11.517        3.131        0.074      340.092       13.873      862.917
08/23/2014  06:33:00       -3.342      -52.113      -18.339       23.559       18.739       20.623      555.050      351.161      425.328        0.220        0.067       52.220        6.167        0.014      340.167       14.000      862.911
08/23/2014  06:34:00       12.519      -61.994       -8.447       19.890       18.721       18.649      395.597      350.491      347.796        0.258        0.055       63.246        7.082        0.013      340.080       13.854      862.910
08/23/2014  06:35:00      -20.747      -21.340        9.873       21.466       12.910       15.128      460.768      166.670      228.852        0.092        0.043       29.763       16.995        0.326      340.230       14.106      862.908
08/23/2014  06:36:00      -38.861      -46.609       -2.957       31.020       17.027        9.563      962.253      289.911       91.449        0.252        0.067       60.684        6.330        0.011      340.289       14.207      862.904
08/23/2014  06:37:00      -43.856      -42.648        0.423       45.137       21.400       25.730     2037.388      457.975      662.035        0.345        0.158       61.174       22.857        0.140      340.171       14.007      862.905
08/23/2014  06:38:00       -3.808      -37.924       -1.196       26.741       19.640       12.797      715.064      385.741      163.754        0.136        0.063       38.114        3.356        0.008      339.898       13.548      862.910
08/23/2014  06:39:00       -1.758      -45.150        0.174       20.472       15.995       16.059      419.092      255.825      257.899        0.149        0.047       45.185       14.342        0.101      340.077       13.849      862.921
08/23/2014  06:40:00       20.972      -30.306       -1.026       19.391       11.527        9.252      376.026      132.876       85.593        0.098        0.030       36.855        8.389        0.052      339.868       13.496      862.932
08/23/2014  06:41:00      -10.024      -29.985      -14.320       21.393       19.426       15.815      457.664      377.357      250.100        0.114        0.054       31.616       12.752        0.163      339.934       13.607      862.943
08/23/2014  06:42:00      -15.956      -14.702        9.471       31.974       19.912       21.140     1022.345      396.500      446.902        0.121        0.093       21.696       12.295        0.321      340.075       13.845      862.957
08/23/2014  06:43:00      -30.560      -47.865       -3.975       49.035       32.756       20.438     2404.468     1072.983      417.719        0.357        0.195       56.789        3.816        0.005      340.082       13.855      862.966
08/23/2014  06:44:00      -44.236      -54.106        0.153       26.147       19.098       17.358      683.662      364.728      301.313        0.312        0.067       69.887       14.489        0.043      340.132       13.942      862.968
08/23/2014  06:45:00      -20.875      -32.005       11.814       28.416       26.559       14.549      807.492      705.397      211.680        0.166        0.086       38.211       11.021        0.083      340.096       13.880      862.967
08/23/2014  06:46:00      -57.853      -35.664       -6.014       33.353       21.191       22.908     1112.454      449.067      524.798        0.337        0.104       67.963       17.081        0.063      340.033       13.774      862.958
08/23/2014  06:47:00      -46.547      -58.982        1.186       43.879       45.992       20.413     1925.389     2115.257      416.710        0.505        0.223       75.137       21.346        0.081      340.032       13.774      862.959
08/23/2014  06:48:00      -80.812      -75.447        2.701       36.456       38.083       22.171     1329.073     1450.316      491.575        0.775        0.164      110.557       19.340        0.031      339.955       13.642      862.958
08/23/2014  06:49:00     -100.528      -86.172       -9.889       50.517       30.246       27.108     2551.928      914.807      734.835        1.091        0.210      132.406       22.040        0.028      339.936       13.610      862.962
08/23/2014  06:50:00     -113.195     -115.509       -6.713       46.193       42.161       25.003     2133.790     1777.571      625.148        1.537        0.227      161.726       26.590        0.027      339.885       13.524      862.967
08/23/2014  06:51:00      -88.628      -88.502       -3.166       39.725       48.399       22.994     1578.098     2342.474      528.723        1.007        0.222      125.250       21.488        0.029      339.850       13.465      862.968
08/23/2014  06:52:00     -109.147      -71.629        2.608       44.420       50.496       27.864     1973.173     2549.842      776.398        1.117        0.265      130.552       23.901        0.034      339.834       13.439      862.979
08/23/2014  06:53:00      -97.396      -56.726        5.569       32.860       37.782       21.036     1079.753     1427.463      442.501        0.784        0.147      112.711       18.090        0.026      339.870       13.499      862.989
08/23/2014  06:54:00      -93.027      -78.911        2.039       43.379       35.278       26.283     1881.697     1244.543      690.774        0.935        0.191      121.988       27.189        0.050      339.870       13.499      862.993
08/23/2014  06:55:00      -75.438      -69.694        8.820       41.652       37.014       23.755     1734.854     1370.056      564.283        0.715        0.183      102.704       21.785        0.045      339.921       13.586      862.992
08/23/2014  06:56:00      -86.025      -71.268       -4.548       49.416       30.411       29.390     2441.933      924.825      863.747        0.836        0.212      111.711       28.463        0.065      339.936       13.612      862.989
08/23/2014  06:57:00      -83.227      -72.538       -4.927       56.687       40.173       23.381     3213.434     1613.844      546.689        0.879        0.269      110.402       30.867        0.078      339.925       13.593      862.999
08/23/2014  06:58:00      -93.979      -95.034      -10.371       49.764       33.273       20.716     2476.505     1107.102      429.147        1.099        0.201      133.654       17.970        0.018      339.912       13.570      863.005
08/23/2014  06:59:00      -49.704      -70.405        2.972       53.902       31.590       25.184     2905.463      997.958      634.211        0.599        0.227       86.182       26.038        0.091      339.931       13.602      863.019
08/23/2014  07:00:00      -17.668      -22.294       13.488       27.792       37.396       23.950      772.378     1398.483      573.599        0.187        0.137       28.447       21.637        0.579      340.043       13.792      863.010
08/23/2014  07:01:00      -51.345      -25.856       -3.834       32.379       27.965       16.928     1048.374      782.028      286.554        0.272        0.106       57.487       18.841        0.107      340.028       13.767      863.023
08/23/2014  07:02:00      -41.417      -13.841       -4.521       36.854       28.182       20.900     1358.249      794.201      436.813        0.226        0.129       43.669       15.614        0.128      339.992       13.704      863.045
08/23/2014  07:03:00      -64.104      -51.758        4.288       41.340       25.550       17.970     1709.034      652.803      322.937        0.475        0.134       82.390       16.808        0.042      339.989       13.701      863.044
08/23/2014  07:04:00      -39.932      -20.453        9.010       26.339       24.118       18.775      693.744      581.664      352.487        0.186        0.081       44.866       17.503        0.152      340.130       13.939      863.047
08/23/2014  07:05:00      -74.961      -62.126       -1.396       31.201       31.101       21.839      973.532      967.264      476.933        0.595        0.121       97.359       16.447        0.029      340.024       13.759      863.053
08/23/2014  07:06:00      -83.867     -127.944       -4.905       49.649       47.841       30.639     2465.024     2288.741      938.767        1.456        0.285      152.981       28.284        0.034      339.963       13.656      863.046
08/23/2014  07:07:00      -87.159     -121.851       -8.005       44.210       50.042       24.760     1954.505     2504.181      613.042        1.379        0.254      149.814        7.626        0.003      339.971       13.671      863.048
08/23/2014  07:08:00      -93.551      -64.188        5.536       69.233       45.912       34.413     4793.170     2107.944     1184.221        1.049        0.404      113.454       38.313        0.114      339.973       13.673      863.056
08/23/2014  07:09:00      -79.930      -95.205       -6.902       60.436       48.137       30.700     3652.541     2317.204      942.474        1.120        0.346      124.309       20.451        0.027      339.961       13.653      863.043
08/23/2014  07:10:00      -94.922      -59.995        1.334       51.477       45.319       36.504     2649.853     2053.852     1332.506        0.932        0.302      112.293       27.910        0.062      339.995       13.711      863.046
08/23/2014  07:11:00      -91.846     -115.699       -9.579       52.591       55.175       27.585     2765.854     3044.334      760.936        1.424        0.329      147.722       17.313        0.014      340.015       13.744      863.048
08/23/2014  07:12:00     -147.837     -127.989      -22.724       55.400       58.891       29.595     3069.164     3468.137      875.859        2.308        0.371      195.543       24.031        0.015      339.952       13.636      863.053
08/23/2014  07:13:00     -111.930     -121.495        4.889       60.433       64.265       35.701     3652.151     4130.033     1274.593        1.818        0.453      165.195       32.546        0.039      339.972       13.669      863.070
08/23/2014  07:14:00     -111.816     -114.078       -4.021       67.519       66.015       38.811     4558.772     4357.920     1506.321        1.798        0.521      159.739       34.897        0.048      339.947       13.627      863.071
08/23/2014  07:15:00     -105.237     -129.803        6.070       60.578       67.251       38.869     3669.703     4522.713     1510.792        1.883        0.485      167.104       36.329        0.047      339.952       13.637      863.086
08/23/2014  07:16:00     -103.967     -187.041        1.466       56.897       74.084       36.248     3237.303     5488.469     1313.932        2.792        0.502      213.994       19.910        0.009      339.911       13.567      863.088
08/23/2014  07:17:00      -83.116     -115.950       -9.749       61.429       71.476       29.153     3773.531     5108.797      849.870        1.509        0.487      142.663       27.324        0.037      339.950       13.633      863.103
08/23/2014  07:18:00      -98.820     -137.693        0.086       60.001       58.721       28.326     3600.094     3448.110      802.371        1.829        0.393      169.484       23.514        0.019      339.973       13.673      863.117
08/23/2014  07:19:00      -83.686     -110.139        4.429       63.596       56.806       30.554     4044.486     3226.978      933.570        1.368        0.410      138.325       32.600        0.056      340.007       13.731      863.131
08/23/2014  07:20:00     -107.729     -102.850        1.249       51.545       52.777       29.936     2656.886     2785.413      896.172        1.426        0.317      148.942       22.783        0.023      339.987       13.696      863.142
08/23/2014  07:21:00      -71.741      -56.307       -3.042       34.643       34.535       29.616     1200.118     1192.635      877.095        0.580        0.163       91.199       17.596        0.037      340.046       13.797      863.154
08/23/2014  07:22:00     -132.654     -103.802       -8.392       30.328       48.095       23.974      919.777     2313.114      574.744        1.612        0.190      168.440       19.357        0.013      340.067       13.833      863.167
08/23/2014  07:23:00      -63.951      -49.534        5.811       49.883       41.893       28.515     2488.361     1755.064      813.119        0.582        0.253       80.891       20.365        0.063      340.119       13.919      863.177
08/23/2014  07:24:00     -105.038      -47.857       -4.213       40.763       33.935       29.045     1661.654     1151.557      843.622        0.850        0.183      115.426       27.470        0.057      340.170       14.006      863.173
08/23/2014  07:25:00      -94.157      -60.827       -5.865       20.244       21.671       17.103      409.803      469.623      292.498        0.689        0.059      112.096       12.459        0.012      340.194       14.046      863.187
08/23/2014  07:26:00      -66.839      -35.876        5.924       41.627       38.428       21.632     1732.785     1476.697      467.961        0.473        0.184       75.859       21.522        0.080      340.273       14.180      863.200
08/23/2014  07:27:00      -72.816      -72.412        1.310       34.707       39.749       21.761     1204.588     1579.993      473.562        0.690        0.163      102.692       23.376        0.052      340.326       14.269      863.202
08/23/2014  07:28:00      -73.195      -81.337        2.150       36.436       38.905       23.973     1327.547     1513.611      574.707        0.770        0.171      109.422       22.392        0.042      340.318       14.255      863.216
08/23/2014  07:29:00     -104.464      -24.673       -5.831       39.180       38.678       19.943     1535.074     1495.994      397.739        0.749        0.171      107.338       15.871        0.022      340.318       14.254      863.214
08/23/2014  07:30:00      -30.178      -51.836       13.115       30.810       31.932       18.996      949.241     1019.659      360.843        0.305        0.116       59.981       17.446        0.085      340.455       14.486      863.223
08/23/2014  07:31:00      -56.564      -24.678        2.326       22.739       23.281       18.194      517.075      541.996      331.039        0.260        0.070       61.713       12.383        0.040      340.470       14.512      863.233
08/23/2014  07:32:00      -73.604      -59.376        2.420       45.659       29.178       20.409     2084.754      851.367      416.515        0.615        0.168       94.568       21.089        0.050      340.480       14.528      863.244
08/23/2014  07:33:00      -91.389      -74.890        7.827       55.458       36.454       24.849     3075.613     1328.877      617.460        0.952        0.251      118.155       25.824        0.048      340.446       14.472      863.242
08/23/2014  07:34:00      -99.499      -10.719        9.555       38.662       43.065       27.560     1494.784     1854.571      759.557        0.711        0.205      100.075       20.760        0.043      340.391       14.379      863.252
08/23/2014  07:35:00      -88.723      -45.487       -5.694       45.293       30.984       17.090     2051.452      960.029      292.064        0.664        0.165       99.703       21.545        0.047      340.405       14.402      863.257
08/23/2014  07:36:00      -37.144      -65.520        2.548       30.101       27.426       22.394      906.094      752.190      501.482        0.392        0.108       75.316       15.961        0.045      340.383       14.367      863.268
08/23/2014  07:37:00      -46.422      -28.016        0.655       21.841       17.831       10.634      477.050      317.935      113.085        0.192        0.045       54.221        5.973        0.012      340.502       14.566      863.278
08/23/2014  07:38:00      -56.806      -29.916        7.218       38.711       25.886       19.352     1498.561      670.091      374.510        0.336        0.127       64.202       16.122        0.063      340.596       14.727      863.301
08/23/2014  07:39:00      -36.735      -69.997        8.800       46.560       35.174       32.889     2167.817     1237.216     1081.678        0.541        0.224       79.051       34.672        0.192      340.586       14.710      863.323
08/23/2014  07:40:00      -53.613      -30.952        6.243       42.038       22.391       18.773     1767.182      501.355      352.436        0.325        0.131       61.906       20.337        0.108      340.568       14.679      863.344
08/23/2014  07:41:00      -95.415      -13.905       -0.564       16.879       20.705       11.072      284.890      428.703      122.584        0.507        0.042       96.423        5.097        0.003      340.500       14.562      863.362
08/23/2014  07:42:00      -45.139       -9.821        1.537       16.176       27.764       10.923      261.651      770.846      119.313        0.164        0.058       46.195        6.737        0.021      340.627       14.778      863.379
08/23/2014  07:43:00      -40.817      -38.623        0.868       20.413       25.052       12.501      416.697      627.609      156.279        0.218        0.060       56.194       10.353        0.034      340.650       14.816      863.399
08/23/2014  07:44:00      -62.214       -9.482       -4.072       24.723       15.871       14.555      611.215      251.880      211.847        0.253        0.054       62.932       11.403        0.033      340.678       14.866      863.405
08/23/2014  07:45:00      -36.453      -23.358       -1.320       19.164       16.379        9.593      367.248      268.286       92.034        0.130        0.036       43.295        6.565        0.023      340.710       14.919      863.423
08/23/2014  07:46:00      -20.413      -19.336       -1.265       12.688       12.212       10.068      160.973      149.130      101.359        0.060        0.021       28.117        8.861        0.099      340.763       15.009      863.436
08/23/2014  07:47:00      -35.588       13.684       -0.581       17.983       13.509        9.923      323.401      182.481       98.466        0.103        0.030       38.128        6.050        0.025      340.834       15.127      863.448
08/23/2014  07:48:00      -70.633       18.246       -6.438       14.488       15.723       11.375      209.909      247.198      129.393        0.297        0.029       72.952        9.185        0.016      340.681       14.869      863.465
08/23/2014  07:49:00      -58.337       25.983       -9.613       15.237       10.418        9.509      232.180      108.539       90.430        0.230        0.022       63.862        7.585        0.014      340.673       14.855      863.475
08/23/2014  07:50:00      -58.985        6.905       -0.896       16.157       17.300        8.117      261.045      299.280       65.887        0.208        0.031       59.388        6.433        0.012      340.726       14.946      863.490
08/23/2014  07:51:00      -45.782       -1.569       -3.646       10.038       12.444        7.933      100.756      154.864       62.932        0.122        0.016       45.809        3.033        0.004      340.764       15.009      863.494
08/23/2014  07:52:00      -29.868       -5.933        0.825       22.588       17.268       15.604      510.208      298.168      243.487        0.099        0.053       30.452       15.923        0.273      340.988       15.389      863.495
08/23/2014  07:53:00      -52.287        3.977       -4.624       24.790       24.049       20.982      614.528      578.341      440.232        0.220        0.082       52.438       14.173        0.073      341.138       15.642      863.483
08/23/2014  07:54:00      -47.428      -34.958        1.812       29.592       42.428       17.005      875.662     1800.114      289.161        0.322        0.148       58.919       10.494        0.032      341.045       15.486      863.473
08/23/2014  07:55:00      -10.136      -30.696       10.175       24.434       24.867       16.864      597.041      618.360      284.401        0.132        0.075       32.326       14.157        0.192      341.208       15.762      863.454
08/23/2014  07:56:00      -43.665      -67.349        3.022       37.534       33.457       19.088     1408.836     1119.401      364.361        0.467        0.145       80.266       13.993        0.030      341.095       15.569      863.438
08/23/2014  07:57:00      -72.603      -49.792      -10.019       22.436       26.781       16.412      503.395      717.197      269.368        0.467        0.074       88.036       12.662        0.021      341.033       15.465      863.434
08/23/2014  07:58:00      -41.070      -17.623       -6.534       20.947       13.926       10.041      438.756      193.927      100.821        0.139        0.037       44.691        5.709        0.016      341.169       15.696      863.428
08/23/2014  07:59:00       -9.639      -27.107       -1.108       22.060       18.282       17.106      486.659      334.228      292.604        0.097        0.056       28.770       11.299        0.154      341.297       15.912      863.431
08/23/2014  08:00:00      -49.871      -37.782       -1.608       29.358       23.713       15.319      861.876      562.285      234.663        0.279        0.083       62.567       12.509        0.040      341.148       15.660      863.436
08/23/2014  08:01:00      -40.930      -55.122       -1.638       15.824       16.440       10.922      250.388      270.262      119.293        0.268        0.032       68.657        5.496        0.006      341.115       15.606      863.439
08/23/2014  08:02:00      -37.988      -45.388       -1.298       20.617       18.504       14.373      425.040      342.391      206.572        0.224        0.049       59.187       10.436        0.031      341.192       15.733      863.447
08/23/2014  08:03:00      -47.112      -27.550       -2.733       18.898       14.984       12.388      357.133      224.535      153.461        0.186        0.037       54.576       11.312        0.043      341.223       15.788      863.451
08/23/2014  08:04:00       -4.432       -7.625       23.230       12.419       22.832       22.427      154.228      521.291      502.969        0.090        0.059        8.819       15.980        3.283      341.857       16.862      863.457
08/23/2014  08:05:00      -21.808       -9.345       18.245       14.248       21.160       16.138      203.006      447.746      260.423        0.090        0.046       23.726        7.349        0.096      341.728       16.642      863.465
08/23/2014  08:06:00      -30.762      -31.878        0.116       18.703       12.353       15.954      349.789      152.607      254.524        0.136        0.038       44.300        5.490        0.015      341.402       16.089      863.470
08/23/2014  08:07:00      -38.416      -35.990       -0.131       24.187       25.097       16.950      585.025      629.867      287.296        0.214        0.075       52.640       12.362        0.055      341.415       16.111      863.477
08/23/2014  08:08:00      -43.886      -59.658       -1.917       26.937       28.157       13.315      725.605      792.834      177.280        0.359        0.085       74.061       16.620        0.050      341.290       15.900      863.484
08/23/2014  08:09:00      -19.852      -39.288        8.152       33.488       18.620       18.819     1121.457      346.694      354.154        0.191        0.091       44.019       16.359        0.138      341.435       16.145      863.486
08/23/2014  08:10:00      -36.704      -40.187        4.535       39.441       28.866       17.147     1555.559      833.237      294.028        0.283        0.134       54.426       16.024        0.087      341.543       16.329      863.486
08/23/2014  08:11:00      -52.444      -37.009       -3.784       16.258       18.361       11.173      264.308      337.144      124.844        0.243        0.036       64.188        8.136        0.016      341.363       16.022      863.494
08/23/2014  08:12:00      -19.958      -21.108       20.448       27.858       24.276       19.214      776.046      589.321      369.169        0.150        0.087       29.049       16.634        0.328      341.839       16.833      863.496
08/23/2014  08:13:00      -52.227      -44.145       -0.646       22.524       15.819       12.997      507.331      250.226      168.928        0.280        0.046       68.385        8.965        0.017      341.427       16.133      863.506
08/23/2014  08:14:00      -77.886      -41.120        0.933       28.995       28.164       18.175      840.703      793.220      330.316        0.486        0.098       88.074       15.546        0.031      341.479       16.221      863.514
08/23/2014  08:15:00      -51.743      -66.694       -1.804       29.040       25.097       18.003      843.342      629.839      324.107        0.446        0.090       84.412       17.796        0.044      341.436       16.147      863.518
08/23/2014  08:16:00      -59.288      -62.064       -3.291       19.636       19.042       16.075      385.572      362.598      258.408        0.419        0.050       85.831       14.114        0.027      341.476       16.213      863.515
08/23/2014  08:17:00      -55.742      -96.331       -0.794       23.477       23.054       14.635      551.148      531.502      214.172        0.684        0.065      111.296       13.535        0.015      341.457       16.182      863.519
08/23/2014  08:18:00      -91.177     -104.015      -12.529       14.276       24.981       15.680      203.813      624.032      245.873        1.018        0.054      138.320        8.690        0.004      341.467       16.199      863.515
08/23/2014  08:19:00      -63.059     -108.197       -4.740       19.969       18.658       14.699      398.767      348.113      216.063        0.833        0.048      125.232        7.463        0.004      341.497       16.249      863.512
08/23/2014  08:20:00      -64.678      -50.679       -9.571       32.989       20.173       15.646     1088.287      406.935      244.782        0.429        0.087       82.168       13.419        0.027      341.600       16.424      863.511
08/23/2014  08:21:00      -50.004      -42.688        3.907       42.165       38.160       25.683     1777.870     1456.184      659.630        0.412        0.195       65.747       26.711        0.165      341.901       16.937      863.518
08/23/2014  08:22:00      -62.839      -53.988        5.725       53.913       37.656       29.035     2906.630     1417.975      843.056        0.603        0.258       82.846       29.937        0.131      341.822       16.803      863.518
08/23/2014  08:23:00      -71.564      -93.868       -6.148       38.153       32.746       19.027     1455.626     1072.317      362.036        0.843        0.144      118.037       20.452        0.030      341.653       16.515      863.518
08/23/2014  08:24:00      -47.650      -91.944        2.793       25.017       38.105       17.396      625.839     1451.994      302.633        0.656        0.119      103.558       14.642        0.020      341.667       16.539      863.518
08/23/2014  08:25:00      -52.316     -102.113       -0.021       39.743       37.971       23.771     1579.504     1441.771      565.044        0.837        0.179      114.735       22.487        0.038      341.730       16.645      863.518
08/23/2014  08:26:00      -30.354      -46.604       12.698       49.715       24.686       25.499     2471.544      609.391      650.187        0.349        0.187       55.617       26.511        0.227      341.841       16.834      863.526
08/23/2014  08:27:00      -55.934      -22.067       11.251       28.621       31.435       28.982      819.174      988.162      839.967        0.319        0.132       60.129       25.284        0.177      342.040       17.173      863.524
08/23/2014  08:28:00      -49.194      -28.505       11.004       34.778       29.630       22.081     1209.488      877.943      487.586        0.296        0.129       56.855       21.630        0.145      341.982       17.072      863.523
08/23/2014  08:29:00      -41.752      -43.002        6.727       53.667       37.505       28.682     2880.130     1406.591      822.644        0.437        0.255       59.937       33.806        0.318      342.171       17.396      863.521
08/23/2014  08:30:00      -55.545      -43.314        8.071       24.389       30.003       17.613      594.801      900.185      310.211        0.342        0.090       70.437       15.669        0.049      341.972       17.056      863.521
08/23/2014  08:31:00      -27.690      -25.278       12.709       36.079       33.486       27.671     1301.709     1121.287      765.701        0.238        0.159       37.492       25.576        0.465      342.268       17.559      863.513
08/23/2014  08:32:00      -24.992       -5.300        0.415       34.051       33.893       26.141     1159.492     1148.725      683.346        0.182        0.150       25.548       14.648        0.329      342.183       17.415      863.516
08/23/2014  08:33:00       -0.905      -38.498      -11.308       33.597       38.562       28.050     1128.783     1487.060      786.823        0.251        0.170       38.509        7.791        0.041      341.858       16.863      863.510
08/23/2014  08:34:00      -37.313        3.830       16.144       18.353       25.960       20.430      336.818      673.933      417.378        0.155        0.071       37.509       17.687        0.222      342.111       17.293      863.514
08/23/2014  08:35:00       -3.735      -40.464        8.722       30.305       26.052       18.812      918.392      678.694      353.893        0.184        0.098       40.636       16.921        0.173      342.230       17.495      863.521
08/23/2014  08:36:00      -34.885        2.101        6.831       30.713       23.964       25.309      943.267      574.284      640.535        0.171        0.108       34.948       17.039        0.238      342.363       17.720      863.523
08/23/2014  08:37:00      -42.749      -29.376       -6.669       39.714       30.543       20.671     1577.175      932.898      427.283        0.284        0.147       51.870       19.617        0.143      342.202       17.447      863.536
08/23/2014  08:38:00      -32.132        1.967       11.588       21.512       24.987       17.827      462.771      624.341      317.805        0.129        0.070       32.192       14.871        0.213      342.459       17.882      863.545
08/23/2014  08:39:00      -39.381      -29.441        8.199       36.735       27.132       18.806     1349.430      736.167      353.657        0.246        0.122       49.169       21.108        0.184      342.607       18.137      863.555
08/23/2014  08:40:00      -68.251      -40.886        1.448       24.005       25.518       14.486      576.261      651.147      209.834        0.388        0.072       79.560       11.364        0.020      342.163       17.380      863.557
08/23/2014  08:41:00      -27.925        3.432       -4.171       15.372       19.703       16.331      236.295      388.227      266.715        0.085        0.045       28.135       13.205        0.220      342.402       17.787      863.553
08/23/2014  08:42:00      -33.542        9.665       -2.677       13.899       21.176       20.222      193.191      448.435      408.934        0.114        0.053       34.906       15.681        0.202      342.519       17.986      863.549
08/23/2014  08:43:00      -14.173       -7.006        6.698       22.362       13.459       20.461      500.066      181.132      418.657        0.070        0.055       15.811       15.688        0.985      342.767       18.408      863.553
08/23/2014  08:44:00      -15.998        7.476       27.591       16.384       24.830       28.129      268.424      616.520      791.241        0.137        0.084       17.658       17.873        1.024      343.120       19.008      863.561
08/23/2014  08:45:00       -5.348       18.023       32.970       20.985       23.018       22.146      440.382      529.813      490.437        0.145        0.073       18.800       15.744        0.701      342.873       18.588      863.566
08/23/2014  08:46:00       20.777       -1.366       18.384       28.169       25.991       29.459      793.480      675.528      867.805        0.155        0.117       20.822       21.468        1.063      342.656       18.219      863.566
08/23/2014  08:47:00       -1.609      -18.528       18.743       28.525       43.779       32.149      813.671     1916.629     1033.574        0.223        0.188       18.598       19.437        1.092      342.324       17.653      863.549
08/23/2014  08:48:00       50.063      -18.361       21.775       40.862       34.508       28.175     1669.716     1190.772      793.809        0.349        0.183       53.324       24.555        0.212      342.463       17.890      863.550
08/23/2014  08:49:00       33.341      -11.360       13.599       23.080       30.133       27.945      532.702      907.976      780.924        0.182        0.111       35.223       20.897        0.352      342.684       18.267      863.546
08/23/2014  08:50:00      -19.543       -8.709       24.630       26.498       41.861       22.263      702.148     1752.379      495.659        0.201        0.148       21.395       24.026        1.261      342.710       18.310      863.542
08/23/2014  08:51:00       30.887       37.739       45.323       42.911       27.551       21.440     1841.333      759.069      459.668        0.375        0.153       48.768       14.008        0.083      342.784       18.437      863.534
08/23/2014  08:52:00       76.216       67.346       21.046       43.794       22.189       28.592     1917.908      492.371      817.484        0.701        0.161      101.707       10.795        0.011      342.491       17.939      863.521
08/23/2014  08:53:00       35.734       46.473       28.720       22.585       32.218       25.447      510.104     1038.027      647.566        0.323        0.110       58.623       20.960        0.128      342.575       18.082      863.517
08/23/2014  08:54:00        6.782        7.143       18.153       17.522       15.918       14.467      307.005      253.367      209.291        0.060        0.038        9.850        9.886        1.007      343.182       19.115      863.510
08/23/2014  08:55:00       22.628      -30.783        1.312       24.336       41.707       25.082      592.239     1739.456      629.095        0.221        0.148       38.205       18.787        0.242      342.588       18.103      863.505
08/23/2014  08:56:00       -4.687      -20.232       18.711       18.621       47.576       29.053      346.740     2263.433      844.052        0.212        0.173       20.767       33.289        2.569      342.938       18.700      863.499
08/23/2014  08:57:00       11.100       -6.843       37.303       27.552       38.202       20.664      759.091     1459.407      427.021        0.210        0.132       13.040       22.501        2.978      343.088       18.955      863.502
08/23/2014  08:58:00       70.655       42.637       20.246       35.075       31.466       36.887     1230.227      990.127     1360.633        0.540        0.179       82.523       28.765        0.122      342.646       18.201      863.507
08/23/2014  08:59:00       67.877       57.033       19.128       28.778       28.939       33.356      828.149      837.446     1112.612        0.550        0.139       88.657       19.897        0.050      342.813       18.485      863.503
08/23/2014  09:00:00       70.164       69.574       24.748       23.963       20.315       22.168      574.247      412.701      491.405        0.593        0.074       98.810       14.150        0.021      342.710       18.311      863.506
08/23/2014  09:01:00       20.309       34.362       17.315       23.366       30.779       29.495      545.948      947.336      869.951        0.213        0.118       39.915       23.427        0.344      343.098       18.971      863.510
08/23/2014  09:02:00       12.372       25.425       12.779       26.730       25.958       17.726      714.475      673.803      314.196        0.133        0.085       28.275       12.052        0.182      343.226       19.190      863.507
08/23/2014  09:03:00       14.193       -2.637       28.086       23.288       30.105       22.688      542.350      906.290      514.747        0.148        0.098       14.436       15.379        1.135      343.196       19.139      863.516
08/23/2014  09:04:00       15.679        8.070       32.437       34.540       29.738       25.425     1193.042      884.356      646.450        0.204        0.136       17.633       16.850        0.913      343.032       18.860      863.520
08/23/2014  09:05:00       40.713        2.759       17.257       38.753       39.621       33.040     1501.818     1569.787     1091.640        0.306        0.208       40.806       22.867        0.314      342.660       18.226      863.524
08/23/2014  09:06:00       73.136      -32.678        9.527       35.122       38.257       30.955     1233.560     1463.583      958.240        0.508        0.183       80.104       22.726        0.080      342.475       17.912      863.516
08/23/2014  09:07:00       27.604        5.714        2.720       30.444       25.296       28.802      926.847      639.885      829.584        0.160        0.120       28.189       14.424        0.262      342.875       18.590      863.518
08/23/2014  09:08:00        2.106       -5.508       30.002       23.332       23.565       15.469      544.390      555.303      239.298        0.114        0.067        5.897        7.968        1.826      343.584       19.800      863.508
08/23/2014  09:09:00       29.935        7.485       39.771       34.297       33.571       28.899     1176.308     1127.043      835.175        0.284        0.157       30.856       21.681        0.494      343.410       19.503      863.506
08/23/2014  09:10:00       47.560       49.432       38.252       39.540       25.448       30.688     1563.422      647.585      941.781        0.466        0.158       68.596       22.016        0.103      342.937       18.697      863.512
08/23/2014  09:11:00       41.749       43.675       14.187       43.629       29.498       26.355     1903.472      870.155      694.568        0.366        0.173       60.419       26.584        0.194      343.183       19.115      863.522
08/23/2014  09:12:00       15.657       18.850       13.795       26.456       22.902       21.400      699.921      524.491      457.976        0.124        0.084       24.504       10.828        0.195      343.653       19.918      863.514
08/23/2014  09:13:00       44.515       26.011       18.308       46.011       39.141       32.892     2117.006     1532.044     1081.875        0.386        0.237       51.558       28.537        0.306      343.512       19.676      863.512
08/23/2014  09:14:00      113.538       82.130       49.391       54.323       41.540       50.261     2950.997     1725.533     2526.124        1.464        0.360      140.130       13.481        0.009      343.172       19.097      863.504
08/23/2014  09:15:00       79.807      103.648       77.286       62.948       46.882       49.029     3962.506     2197.907     2403.797        1.582        0.428      130.813       43.244        0.109      342.831       18.515      863.515
08/23/2014  09:16:00       98.080      103.574       19.026       50.696       41.547       34.943     2570.043     1726.125     1220.990        1.311        0.276      142.644       20.548        0.021      342.856       18.559      863.513
08/23/2014  09:17:00       35.845       -6.702       -0.714       47.089       72.424       22.921     2217.408     5245.267      525.384        0.466        0.399       36.466       20.956        0.330      342.917       18.664      863.521
08/23/2014  09:18:00       70.073      -47.898       11.826       35.725       46.205       32.567     1276.278     2134.915     1060.601        0.591        0.224       84.879       29.769        0.123      342.717       18.323      863.537
08/23/2014  09:19:00       45.161      -57.805       -9.008       25.787       29.979       22.644      664.959      898.742      512.751        0.377        0.104       73.355       12.934        0.031      342.762       18.398      863.537
08/23/2014  09:20:00       17.192       21.737       27.336       18.700       21.382       25.568      349.689      457.204      653.728        0.149        0.073       27.714       17.534        0.400      343.378       19.448      863.546
08/23/2014  09:21:00       24.061       30.691       45.004       46.723       49.915       41.694     2182.993     2491.511     1738.368        0.498        0.321       38.998       37.074        0.904      343.404       19.492      863.554
08/23/2014  09:22:00       49.980        9.415       30.428       37.889       61.043       33.078     1435.576     3726.269     1094.182        0.488        0.313       50.859       32.491        0.408      342.988       18.784      863.553
08/23/2014  09:23:00       40.496      -49.309        0.572       60.103       67.831       42.520     3612.375     4600.998     1807.984        0.704        0.501       63.807       44.063        0.477      343.072       18.926      863.551
08/23/2014  09:24:00       41.542      -84.595        2.880       48.794       62.788       41.660     2380.830     3942.328     1735.550        0.847        0.403       94.245       36.380        0.149      343.401       19.486      863.543
08/23/2014  09:25:00        8.342      -41.983       18.453       33.949       28.287       22.938     1152.558      800.156      526.129        0.233        0.124       42.804       15.279        0.127      343.617       19.856      863.540
08/23/2014  09:26:00       21.851       36.905       62.467       39.180       33.732       30.329     1535.107     1137.846      919.852        0.467        0.180       42.889       28.194        0.432      343.631       19.879      863.545
08/23/2014  09:27:00       50.098       57.372       46.404       30.029       24.739       26.577      901.769      612.033      706.339        0.509        0.111       76.166       16.533        0.047      343.116       19.003      863.544
08/23/2014  09:28:00       53.474       66.422       20.130       38.411       36.665       37.036     1475.378     1344.321     1371.651        0.593        0.210       85.273       29.797        0.122      343.313       19.337      863.536
08/23/2014  09:29:00       37.564       55.359       17.886       36.173       45.811       32.022     1308.462     2098.648     1025.435        0.461        0.222       66.900       28.616        0.183      343.644       19.902      863.540
08/23/2014  09:30:00       30.043       92.898       -2.693       47.320       52.678       36.289     2239.138     2774.978     1316.915        0.793        0.317       97.636       29.723        0.093      343.448       19.567      863.545
08/23/2014  09:31:00       49.920        8.848       10.807       50.844       47.936       29.914     2585.141     2297.862      894.872        0.423        0.289       50.698       15.188        0.090      343.531       19.709      863.553
08/23/2014  09:32:00       54.141       31.805       38.275       88.587       65.380       32.337     7847.745     4274.492     1045.688        0.929        0.658       62.791       15.526        0.061      343.842       20.239      863.554
08/23/2014  09:33:00       89.500       93.412       15.712       73.245       50.894       44.158     5364.888     2590.186     1949.894        1.344        0.495      129.367       34.427        0.071      343.377       19.445      863.552
08/23/2014  09:34:00       66.424       88.713        3.853       49.256       50.723       46.655     2426.190     2572.787     2176.643        0.973        0.359      110.825       38.888        0.123      343.516       19.682      863.554
08/23/2014  09:35:00       60.423       81.225      -12.968       29.740       38.641       34.047      884.462     1493.162     1159.221        0.698        0.177      101.234       22.780        0.051      343.252       19.233      863.548
08/23/2014  09:36:00       47.991       18.402        0.442       28.241       43.884       31.086      797.560     1925.815      966.357        0.317        0.184       51.398       11.388        0.049      343.344       19.390      863.556
08/23/2014  09:37:00       48.459      -55.873        2.007       40.665       34.422       34.369     1653.606     1184.901     1181.207        0.475        0.201       73.960       22.378        0.092      343.049       18.888      863.554
08/23/2014  09:38:00       34.991      -14.881       38.175       39.433       43.029       46.427     1554.952     1851.467     2155.434        0.423        0.278       38.024       31.441        0.684      343.254       19.236      863.557
08/23/2014  09:39:00       41.165      -41.867       39.109       49.613       94.041       45.272     2461.437     8843.759     2049.579        0.916        0.668       58.714       56.628        0.930      343.753       20.086      863.554
08/23/2014  09:40:00       30.455      -37.622       27.634       36.743       50.517       34.895     1350.013     2551.975     1217.636        0.411        0.256       48.404       25.576        0.279      344.061       20.612      863.563
08/23/2014  09:41:00       28.650       -0.823       18.900       27.456       51.877       33.215      753.821     2691.197     1103.232        0.286        0.227       28.662       33.547        1.370      343.628       19.875      863.574
08/23/2014  09:42:00        7.862       29.146       38.426       47.014       46.376       28.653     2210.355     2150.725      820.972        0.378        0.259       30.187       15.941        0.279      343.780       20.133      863.575
08/23/2014  09:43:00       56.307       69.383        4.149       53.124       34.423       40.059     2822.210     1184.975     1604.713        0.681        0.281       89.356       27.944        0.098      343.539       19.721      863.598
08/23/2014  09:44:00      137.097      127.161       -5.008       54.386       39.055       42.036     2957.801     1525.309     1766.993        2.062        0.313      186.990       22.523        0.015      343.369       19.430      863.605
08/23/2014  09:45:00       48.204       55.288       10.263       58.192       38.783       41.971     3386.319     1504.144     1761.580        0.607        0.333       73.351       28.759        0.154      343.619       19.859      863.601
08/23/2014  09:46:00       28.797       18.215       15.858       34.026       23.212       19.322     1157.778      538.780      373.325        0.174        0.103       34.074       15.006        0.194      343.913       20.360      863.588
08/23/2014  09:47:00       -4.142       60.419       24.685       42.882       47.356       29.497     1838.831     2242.631      870.083        0.461        0.248       60.560       26.638        0.193      344.166       20.792      863.578
08/23/2014  09:48:00       43.555       41.278       59.996       75.090       74.686       50.308     5638.500     5578.046     2530.902        1.047        0.687       60.008       48.774        0.661      344.177       20.811      863.569
08/23/2014  09:49:00       71.091       83.002       91.549       73.738       67.865       65.472     5437.255     4605.632     4286.644        1.732        0.716      109.285       47.630        0.190      343.519       19.687      863.547
08/23/2014  09:50:00       47.156       73.386       73.460       65.784       75.271       65.490     4327.538     5665.739     4288.918        1.364        0.714       87.231       55.010        0.398      344.054       20.601      863.541
08/23/2014  09:51:00       77.884       56.921       48.069       35.593       37.999       48.041     1266.880     1443.894     2307.986        0.832        0.251       96.468       26.382        0.075      343.463       19.593      863.543
08/23/2014  09:52:00       36.485        0.050       40.988       42.285       56.135       27.753     1788.038     3151.106      770.255        0.436        0.285       36.485       26.026        0.509      343.887       20.315      863.539
08/23/2014  09:53:00       62.476       40.343       18.782       30.065       22.832       29.675      903.905      521.283      880.615        0.409        0.115       74.370       21.202        0.081      343.501       19.658      863.526
08/23/2014  09:54:00       23.912      -17.744       25.781       35.064       54.715       39.667     1229.476     2993.727     1573.459        0.367        0.290       29.776       24.277        0.665      343.869       20.286      863.513
08/23/2014  09:55:00       20.771        5.246       83.292       47.747       68.986       46.709     2279.795     4759.007     2181.751        0.831        0.461       21.423       36.391        2.886      344.454       21.285      863.497
08/23/2014  09:56:00       87.987     -107.375      -29.233       48.841       62.143       36.618     2385.405     3861.754     1340.872        1.386        0.379      138.820       29.452        0.045      343.922       20.376      863.490
08/23/2014  09:57:00        1.145      -23.647       22.896       25.820       41.565       39.768      666.685     1727.633     1581.506        0.253        0.199       23.675       29.550        1.558      344.517       21.393      863.477
08/23/2014  09:58:00       21.166       -0.476       38.730       29.838       42.600       24.493      890.288     1814.775      599.901        0.263        0.165       21.171       27.923        1.740      344.124       20.720      863.475
08/23/2014  09:59:00       13.544       47.019       46.559       29.915       32.648       26.329      894.885     1065.912      693.242        0.361        0.133       48.931       17.834        0.133      344.022       20.546      863.487
08/23/2014  10:00:00      104.938     -122.832       -5.346       62.045       79.743       41.622     3849.578     6358.866     1732.397        1.903        0.597      161.554       41.607        0.066      343.883       20.308      863.474
08/23/2014  10:01:00       -4.993      -55.666       26.399       33.127       62.634       40.324     1097.427     3923.063     1626.012        0.523        0.332       55.889       22.266        0.159      344.053       20.598      863.472
08/23/2014  10:02:00       75.659      -40.201        8.575       70.943       95.262       51.755     5032.917     9074.862     2678.612        1.210        0.839       85.676       44.057        0.264      344.291       21.004      863.476
08/23/2014  10:03:00       44.366      -58.205       11.138       46.744       74.057       43.991     2185.032     5484.408     1935.190        0.754        0.480       73.186       47.366        0.419      344.091       20.663      863.483
08/23/2014  10:04:00       -9.801       51.334       80.067       19.913       48.823       43.912      396.534     2383.689     1928.276        0.692        0.235       52.262       35.982        0.474      344.468       21.308      863.480
08/23/2014  10:05:00       37.971       95.128      120.776       76.546       77.428       48.922     5859.344     5995.087     2393.375        1.966        0.712      102.426       45.247        0.195      343.941       20.406      863.481
08/23/2014  10:06:00       65.879       87.402       51.296       52.835       42.986       43.145     2791.590     1847.817     1861.533        1.055        0.325      109.449       33.028        0.091      343.948       20.420      863.477
08/23/2014  10:07:00        5.069       -8.551       35.669       42.337       57.960       36.334     1792.385     3359.419     1320.131        0.392        0.324        9.941       34.027       11.718      344.458       21.291      863.476
08/23/2014  10:08:00       43.268       22.336       31.127       63.965       87.264       46.802     4091.531     7615.053     2190.399        0.862        0.695       48.693       37.312        0.587      344.273       20.976      863.470
08/23/2014  10:09:00       38.323      -93.952       23.788       53.404       75.606       55.362     2852.035     5716.238     3064.927        1.125        0.582      101.468       32.996        0.106      344.232       20.906      863.470
08/23/2014  10:10:00       99.240      110.035      100.689       90.866       67.792       58.045     8256.719     4595.740     3369.248        2.415        0.811      148.176       48.348        0.106      343.879       20.298      863.465
08/23/2014  10:11:00       36.425      -22.485       41.544       50.732       80.798       52.350     2573.783     6528.339     2740.528        0.770        0.592       42.806       55.824        1.701      344.106       20.690      863.457
08/23/2014  10:12:00       52.306       -8.459       60.264       54.069       45.725       49.079     2923.491     2090.751     2408.789        0.693        0.371       52.986       30.629        0.334      344.096       20.673      863.465
08/23/2014  10:13:00       27.319       -1.382       50.568       51.831       70.007       37.831     2686.463     4900.975     1431.214        0.616        0.451       27.354       45.050        2.712      344.238       20.914      863.461
08/23/2014  10:14:00       17.342       10.177       32.873       32.382       48.055       34.076     1048.604     2309.249     1161.172        0.300        0.226       20.107       32.088        2.547      344.166       20.793      863.452
08/23/2014  10:15:00        9.027      -10.094       33.407       23.272       41.674       31.866      541.570     1736.707     1015.429        0.230        0.165       13.541       28.520        4.436      344.555       21.457      863.451
08/23/2014  10:16:00       36.392       25.403       41.304       54.891       56.954       46.500     3013.068     3243.749     2162.292        0.605        0.421       44.382       45.901        1.070      343.907       20.351      863.443
08/23/2014  10:17:00       48.797       35.663       46.797       48.584       41.225       35.703     2360.437     1699.474     1274.695        0.559        0.267       60.440       32.234        0.284      344.167       20.793      863.426
08/23/2014  10:18:00       89.019       43.466       35.929       46.241       55.581       29.164     2138.191     3089.198      850.544        0.859        0.304       99.064       28.872        0.085      344.004       20.515      863.431
08/23/2014  10:19:00      149.876      114.459       19.828       66.087       49.048       44.740     4367.526     2405.737     2001.668        2.236        0.439      188.583       22.785        0.015      344.185       20.822      863.429
08/23/2014  10:20:00      195.838      126.020       16.686       63.521       52.227       47.038     4034.927     2727.645     2212.565        3.174        0.449      232.881       31.954        0.019      343.993       20.492      863.434
08/23/2014  10:21:00      154.991      114.024        8.209       38.114       33.440       40.433     1452.674     1118.260     1634.817        2.065        0.210      192.416       23.828        0.015      343.744       20.071      863.458
08/23/2014  10:22:00      129.556       57.532        7.177       48.110       35.890       38.953     2314.537     1288.117     1517.307        1.263        0.256      141.756       14.610        0.011      343.943       20.410      863.455
08/23/2014  10:23:00       21.218       30.748       34.929       29.905       30.148       32.735      894.312      908.902     1071.604        0.274        0.144       37.358       12.693        0.115      344.601       21.536      863.461
08/23/2014  10:24:00        7.848       -8.063       36.395       33.269       78.158       37.377     1106.803     6108.670     1397.023        0.503        0.431       11.252       44.451       15.606      344.380       21.158      863.466
08/23/2014  10:25:00       37.675       19.807       20.879       36.442       75.402       46.835     1328.023     5685.512     2193.518        0.573        0.460       42.564       35.179        0.683      344.290       21.005      863.475
08/23/2014  10:26:00       93.688       76.398        6.371      127.336       90.625       48.852    16214.512     8212.900     2386.530        2.073        1.341      120.889       47.337        0.153      344.306       21.029      863.476
08/23/2014  10:27:00      203.899      154.953       22.098      105.852       65.700       57.155    11204.676     4316.445     3266.676        4.243        0.939      256.096       34.141        0.018      344.022       20.543      863.472
08/23/2014  10:28:00      230.892      200.623       21.437      111.108       69.666       69.806    12345.060     4853.358     4872.894        5.804        1.104      305.877       41.036        0.018      343.874       20.290      863.458
08/23/2014  10:29:00      195.341      113.843       29.018       87.404       65.192       54.226     7639.482     4250.019     2940.442        3.339        0.741      226.093       21.935        0.009      343.869       20.283      863.453
08/23/2014  10:30:00      249.734      160.252       44.130       70.991       62.976       60.208     5039.753     3965.952     3624.991        5.131        0.632      296.729       38.305        0.017      343.946       20.413      863.446
08/23/2014  10:31:00      224.094      113.518       16.076       89.817       60.820       55.287     8067.112     3699.025     3056.688        3.909        0.741      251.206       34.425        0.019      344.142       20.747      863.431
08/23/2014  10:32:00      159.259      110.007       31.600       95.518       66.034       70.115     9123.648     4360.549     4916.095        2.843        0.920      193.559       62.724        0.105      344.031       20.559      863.436
08/23/2014  10:33:00       45.054       57.937       22.676       43.563       62.233       47.238     1897.713     3872.922     2231.433        0.695        0.400       73.393       36.484        0.247      343.867       20.282      863.417
08/23/2014  10:34:00      111.144       46.231       39.813       76.788       61.720       49.848     5896.431     3809.392     2484.804        1.413        0.610      120.376       38.652        0.103      344.024       20.550      863.402
08/23/2014  10:35:00      232.518      166.562       10.612       80.889       71.284       62.733     6542.970     5081.464     3935.402        4.874        0.778      286.020       35.920        0.016      344.012       20.525      863.421
08/23/2014  10:36:00      123.530       61.456       22.873       54.446       41.999       39.336     2964.377     1763.886     1547.337        1.292        0.314      137.973       29.174        0.045      343.998       20.503      863.427
08/23/2014  10:37:00      102.479       62.351       14.270       31.910       36.923       30.058     1018.226     1363.331      903.499        0.894        0.164      119.957       21.768        0.033      343.745       20.074      863.405
08/23/2014  10:38:00      104.348       90.949       69.387       93.282       50.303       45.384     8701.453     2530.376     2059.711        1.863        0.665      138.420       17.720        0.016      343.980       20.474      863.399
08/23/2014  10:39:00      158.662      101.029       59.157      136.209       90.592       50.536    18552.835     8206.998     2553.877        3.409        1.466      188.097       57.306        0.093      344.457       21.288      863.361
08/23/2014  10:40:00       69.637       58.025      100.908       84.897       91.681       56.016     7207.522     8405.381     3137.847        1.857        0.938       90.643       50.836        0.315      344.494       21.351      863.355
08/23/2014  10:41:00       30.645       56.881       18.925       67.215       51.771       47.084     4517.821     2680.249     2216.939        0.697        0.471       64.611       34.731        0.289      344.919       22.079      863.341
08/23/2014  10:42:00       13.244       24.900       71.868       38.257       60.964       58.013     1463.560     3716.630     3365.484        0.725        0.427       28.203       53.652        3.619      345.054       22.311      863.331
08/23/2014  10:43:00       84.358       21.216       63.226       71.348       91.882       54.030     5090.551     8442.335     2919.262        1.400        0.823       86.985       56.884        0.428      344.372       21.142      863.329
08/23/2014  10:44:00      111.450      -25.983       61.282       89.638       88.909       69.539     8034.928     7904.889     4835.740        1.881        1.039      114.438       66.336        0.336      344.306       21.029      863.329
08/23/2014  10:45:00       83.213      -40.148       32.530       50.446       75.612       54.237     2544.811     5717.219     2941.655        1.040        0.560       92.392       51.729        0.313      344.669       21.653      863.324
08/23/2014  10:46:00      107.875       84.946       52.626       87.452       72.644       50.005     7647.813     5277.181     2500.476        1.852        0.771      137.306       38.368        0.078      344.426       21.236      863.305
08/23/2014  10:47:00      123.208       82.647       54.133      102.326       83.043       68.452    10470.532     6896.164     4685.706        2.349        1.103      148.361       59.045        0.158      344.562       21.466      863.301
08/23/2014  10:48:00      200.139       96.087       10.757       56.970       49.244       53.684     3245.581     2424.972     2881.997        2.898        0.428      222.010       36.173        0.027      344.133       20.732      863.298
08/23/2014  10:49:00      108.621       75.496       12.979       95.983       63.165       49.027     9212.771     3989.868     2403.659        1.663        0.780      132.280       39.386        0.089      344.283       20.991      863.281
08/23/2014  10:50:00      -41.128      141.801       -0.900       40.245       60.525       39.343     1619.641     3663.247     1547.875        1.431        0.342      147.645       38.889        0.069      344.445       21.269      863.272
08/23/2014  10:51:00      116.300       59.987       20.607       58.616       51.419       44.843     3435.893     2643.877     2010.925        1.282        0.405      130.859       25.615        0.038      344.452       21.280      863.282
08/23/2014  10:52:00       12.649       67.824        6.301       47.934       48.775       34.142     2297.676     2379.005     1165.690        0.532        0.292       68.993       33.648        0.238      344.676       21.665      863.256
08/23/2014  10:53:00       37.563       47.374        5.348       54.393       52.416       40.319     2958.566     2747.442     1625.600        0.551        0.367       60.459       32.311        0.286      344.692       21.691      863.241
08/23/2014  10:54:00       75.482       81.519       11.221       67.036       44.901       40.179     4493.854     2016.122     1614.373        1.029        0.406      111.099       32.943        0.088      344.640       21.600      863.236
08/23/2014  10:55:00       91.918       91.064       13.158       93.595       74.769       50.923     8759.988     5590.362     2593.115        1.693        0.847      129.389       36.819        0.081      344.776       21.834      863.218
08/23/2014  10:56:00      136.761      149.545      -11.312       87.319       95.044       68.574     7624.650     9033.323     4702.454        3.127        1.068      202.651       61.011        0.091      344.358       21.117      863.207
08/23/2014  10:57:00       64.601       95.387       16.007       87.708       93.498       60.028     7692.774     8741.831     3603.351        1.678        1.002      115.204       53.109        0.213      344.650       21.619      863.176
08/23/2014  10:58:00      122.499       99.450      110.655      113.793      114.763       95.781    12948.759    13170.606     9174.054        3.621        1.765      157.786       83.951        0.283      344.886       22.021      863.162
08/23/2014  10:59:00       38.019       36.387       60.734       60.280       55.076       41.695     3633.723     3033.322     1738.464        0.743        0.420       52.625       20.513        0.152      344.635       21.594      863.180
08/23/2014  11:00:00       78.105       67.616       35.878       71.735       50.995       54.131     5145.942     2600.511     2930.124        1.132        0.534      103.306       44.428        0.185      344.636       21.596      863.196
08/23/2014  11:01:00       65.793      154.966       -0.683       76.444       79.123       61.653     5843.639     6260.445     3801.123        2.212        0.795      168.354       49.604        0.087      344.681       21.671      863.201
08/23/2014  11:02:00       69.833      190.885       -3.327       84.357       96.401       61.946     7116.116     9293.161     3837.260        3.078        1.012      203.258       54.819        0.073      344.745       21.779      863.206
08/23/2014  11:03:00      114.814      125.109       -0.223      111.861       81.189       50.535    12512.962     6591.578     2553.816        2.524        1.083      169.808       41.525        0.060      344.553       21.451      863.215
08/23/2014  11:04:00       22.871      156.678      -14.717       51.894       64.583       41.923     2692.971     4171.025     1757.508        1.695        0.431      158.339       39.562        0.062      344.430       21.243      863.210
08/23/2014  11:05:00       26.673       77.689       13.782       38.165       66.663       41.768     1456.578     4444.012     1744.603        0.729        0.382       82.141       43.863        0.285      344.971       22.170      863.174
08/23/2014  11:06:00      106.283       71.216        8.949       64.715       58.525       38.513     4188.026     3425.124     1483.280        1.277        0.455      127.937       35.381        0.076      344.764       21.815      863.158
08/23/2014  11:07:00      153.847      101.505        4.554       80.940       53.490       48.802     6551.224     2861.185     2381.625        2.289        0.590      184.315       32.445        0.031      344.461       21.294      863.148
08/23/2014  11:08:00      113.499       52.298       44.595       98.293       57.586       42.536     9661.515     3316.156     1809.346        1.619        0.739      124.968       12.352        0.010      344.920       22.081      863.136
08/23/2014  11:09:00      153.796       80.311       81.555       86.070       82.897       64.159     7408.100     6871.909     4116.350        2.757        0.920      173.502       28.214        0.026      344.636       21.592      863.119
08/23/2014  11:10:00      121.463      103.664       92.605      103.475       86.433       61.082    10707.131     7470.689     3730.986        2.799        1.095      159.686       56.008        0.123      344.564       21.469      863.119
08/23/2014  11:11:00       17.981       58.926       84.282       61.992       94.863       60.467     3843.034     8998.999     3656.204        1.370        0.825       61.608       58.042        0.888      345.173       22.513      863.112
08/23/2014  11:12:00      138.284       70.264       21.388       76.271       61.781       60.305     5817.317     3816.940     3636.750        1.889        0.664      155.111       40.380        0.068      345.049       22.300      863.134
08/23/2014  11:13:00       61.900      114.507      118.012       63.377       78.904       60.414     4016.706     6225.876     3649.895        2.238        0.695      130.167       60.751        0.218      344.921       22.082      863.136
08/23/2014  11:14:00      168.035      161.423       88.643       91.977       54.622       78.728     8459.813     2983.595     6198.050        3.989        0.882      233.008       65.047        0.078      344.489       21.340      863.136
08/23/2014  11:15:00      108.458      110.723      112.369       75.230       61.151       54.285     5659.507     3739.466     2946.892        2.450        0.617      154.992       44.620        0.083      344.616       21.558      863.162
08/23/2014  11:16:00       34.280       23.848       39.269       34.883       30.059       29.315     1216.839      903.568      859.383        0.313        0.149       41.760       22.801        0.298      344.790       21.859      863.161
08/23/2014  11:17:00       22.429       63.974        6.988       34.376       44.451       27.264     1181.677     1975.892      743.332        0.427        0.195       67.791       20.956        0.096      344.739       21.772      863.155
08/23/2014  11:18:00      -10.752       58.432        4.148       32.390       62.214       32.955     1049.129     3870.616     1086.003        0.478        0.300       59.413       25.739        0.188      345.064       22.328      863.152
08/23/2014  11:19:00        6.699       14.048       22.148       17.452       29.145       24.456      304.571      849.439      598.108        0.124        0.088       15.564       20.561        1.745      345.658       23.345      863.143
08/23/2014  11:20:00       25.361       15.232       27.596       24.333       22.572       21.391      592.115      509.475      457.563        0.160        0.078       29.584       13.340        0.203      345.601       23.248      863.139
08/23/2014  11:21:00      125.090      108.941       40.842       55.903       53.716       44.001     3125.110     2885.370     1936.053        1.856        0.397      165.878       23.049        0.019      344.946       22.124      863.120
08/23/2014  11:22:00      150.492      119.502        8.849       48.194       40.900       45.310     2322.682     1672.782     2053.020        2.153        0.302      192.168       24.479        0.016      344.472       21.313      863.120
08/23/2014  11:23:00       16.420       79.977       -2.957       45.111       47.908       33.340     2034.962     2295.191     1111.523        0.606        0.272       81.645       31.285        0.147      345.084       22.363      863.099
08/23/2014  11:24:00      -30.557      114.397       -6.270       23.441       58.985       32.193      549.476     3479.196     1036.412        0.956        0.253      118.408       32.840        0.077      344.873       22.003      863.088
08/23/2014  11:25:00      -29.878        6.290       12.601       19.944       23.299       26.289      397.776      542.851      691.098        0.136        0.082       30.533       13.241        0.188      345.182       22.531      863.079
08/23/2014  11:26:00       58.371       48.722       27.312       45.092       42.680       35.293     2033.284     1821.574     1245.597        0.581        0.255       76.033       28.560        0.141      345.207       22.574      863.075
08/23/2014  11:27:00       16.830       36.964       17.041       32.824       49.383       30.109     1077.415     2438.635      906.564        0.318        0.221       40.615       28.497        0.492      345.459       23.005      863.072
08/23/2014  11:28:00       38.887       14.755       15.334       28.411       42.959       24.268      807.208     1845.441      588.927        0.260        0.162       41.592       23.304        0.314      345.053       22.309      863.058
08/23/2014  11:29:00        5.476      -36.905       16.264       32.074       67.196       30.367     1028.717     4515.262      922.178        0.406        0.323       37.309       35.313        0.896      345.435       22.963      863.039
08/23/2014  11:30:00       34.683      -22.891       71.219       54.640      111.260       65.916     2985.565    12378.767     4344.935        1.325        0.985       41.556       76.001        3.345      345.389       22.885      862.997
08/23/2014  11:31:00      117.330     -113.132        7.707       87.833      154.626       76.008     7714.698    23909.255     5777.267        3.201        1.870      162.988      102.411        0.395      345.221       22.595      862.956
08/23/2014  11:32:00       82.147      -86.592       24.466       68.338      140.275       86.863     4670.116    19677.178     7545.116        2.336        1.595      119.358       90.636        0.577      345.575       23.203      862.925
08/23/2014  11:33:00       62.602       84.781      110.694       82.143       62.491       53.730     6747.525     3905.096     2886.931        1.845        0.677      105.389       41.100        0.152      345.407       22.915      862.904
08/23/2014  11:34:00       10.027      -27.805       62.038       80.820       72.120       58.313     6531.797     5201.303     3400.383        0.992        0.757       29.558       54.779        3.435      345.822       23.628      862.893
08/23/2014  11:35:00       62.952     -120.238        2.214       48.986       74.735       36.682     2399.588     5585.375     1345.577        1.388        0.467      135.721       39.305        0.084      344.915       22.074      862.896
08/23/2014  11:36:00      -36.726      -60.689       -8.123       78.987       56.449       35.646     6238.988     3186.446     1270.603        0.789        0.535       70.936       30.509        0.185      344.882       22.017      862.896
08/23/2014  11:37:00      -65.712      -19.233       18.395       62.247       65.973       31.058     3874.714     4352.454      964.590        0.711        0.460       68.468       36.964        0.291      344.858       21.975      862.871
08/23/2014  11:38:00     -146.687      -46.941      -11.147       39.686       53.043       26.202     1574.970     2813.556      686.563        1.446        0.254      154.015       11.065        0.005      344.798       21.872      862.869
08/23/2014  11:39:00     -172.519      -85.520      -13.533       38.027       40.181       31.527     1446.035     1614.518      993.966        2.066        0.203      192.552       22.950        0.014      344.509       21.377      862.851
08/23/2014  11:40:00     -181.054      -77.965      -12.510       49.011       40.557       27.848     2402.062     1644.856      775.536        2.192        0.241      197.127       17.599        0.008      344.707       21.715      862.835
08/23/2014  11:41:00     -169.753      -28.106      -13.612       40.804       30.690       22.476     1664.959      941.871      505.175        1.645        0.156      172.064       17.094        0.010      344.551       21.451      862.847
08/23/2014  11:42:00     -111.249        5.065       -7.100       41.186       39.955       27.579     1696.279     1596.407      760.597        0.825        0.203      111.364       24.517        0.048      344.699       21.703      862.835
08/23/2014  11:43:00     -134.005       34.825      -20.293       45.844       22.340       26.155     2101.645      499.087      684.081        1.143        0.164      138.456       26.390        0.036      344.560       21.464      862.823
08/23/2014  11:44:00      -80.989      -20.719       -1.308       78.088       32.758       27.071     6097.659     1073.059      732.865        0.745        0.395       83.597       32.708        0.153      344.994       22.208      862.798
08/23/2014  11:45:00      -55.923      -20.825       -3.344       43.763       32.793       29.969     1915.189     1075.351      898.154        0.373        0.194       59.675       17.911        0.090      345.085       22.364      862.771
08/23/2014  11:46:00      -80.560      -34.790       -9.470       53.649       48.625       20.029     2878.256     2364.416      401.178        0.672        0.282       87.751       16.769        0.037      345.095       22.380      862.756
08/23/2014  11:47:00      -11.607      -59.548       -1.919       31.741       40.216       28.474     1007.500     1617.297      810.769        0.356        0.172       60.668       16.931        0.078      345.047       22.299      862.735
08/23/2014  11:48:00       43.503      -58.148        6.470       45.928       50.193       43.129     2109.369     2519.375     1860.125        0.590        0.324       72.620       36.800        0.257      345.680       23.386      862.718
08/23/2014  11:49:00      -10.433      -17.398        7.963       28.400       32.514       27.752      806.571     1057.147      770.162        0.155        0.132       20.286       18.165        0.802      346.058       24.034      862.706
08/23/2014  11:50:00      -63.073      -26.060       14.207       34.641       45.454       32.484     1200.017     2066.033     1055.222        0.459        0.216       68.245       19.475        0.081      345.376       22.863      862.718
08/23/2014  11:51:00      -39.863       10.003        0.701       76.492       64.373       41.232     5851.060     4143.934     1700.051        0.669        0.585       41.099       46.549        1.283      345.351       22.819      862.705
08/23/2014  11:52:00       90.147       46.962       48.706       74.588       58.405       58.210     5563.362     3411.185     3388.377        1.253        0.618      101.646       49.974        0.242      345.702       23.421      862.696
08/23/2014  11:53:00       52.761       15.827       60.296       87.874       98.064       69.714     7721.875     9616.469     4860.012        1.443        1.110       55.084       66.802        1.471      345.902       23.764      862.682
08/23/2014  11:54:00       98.944      -40.621       17.728       91.884       96.446       69.735     8442.673     9301.879     4862.915        1.718        1.130      106.958       62.900        0.346      345.866       23.703      862.679
08/23/2014  11:55:00      121.682      105.207       58.701       96.863       80.302       65.856     9382.433     6448.387     4337.019        2.474        1.008      160.857       49.878        0.096      345.801       23.588      862.660
08/23/2014  11:56:00       59.880       69.336       96.904       79.549       72.794       47.397     6328.103     5298.930     2246.473        1.583        0.694       91.614       38.093        0.173      345.778       23.551      862.652
08/23/2014  11:57:00       77.104       83.065       64.660       76.005       60.537       44.356     5776.776     3664.700     1967.419        1.422        0.570      113.335       22.764        0.040      345.598       23.243      862.649
08/23/2014  11:58:00      166.561      103.936      102.431      142.292      103.225       92.630    20247.135    10655.462     8580.350        4.425        1.974      196.330       86.518        0.194      345.629       23.294      862.630
08/23/2014  11:59:00      121.068     -159.627       12.247       68.909      108.325       65.817     4748.496    11734.315     4331.853        3.055        1.041      200.346       57.043        0.081      345.264       22.668      862.629
08/23/2014  12:00:00      140.244     -136.044       15.021       87.174       89.807       61.853     7599.281     8065.271     3825.855        2.894        0.975      195.388       49.703        0.065      345.496       23.066      862.625
08/23/2014  12:01:00      115.826      -36.639       56.407       89.554      121.002       68.032     8019.997    14641.550     4628.332        2.261        1.364      121.482       69.282        0.325      345.691       23.401      862.626
08/23/2014  12:02:00       75.648      105.408      106.567      105.477       98.213       57.796    11125.396     9645.743     3340.351        2.615        1.206      129.744       54.005        0.173      345.678       23.378      862.631
08/23/2014  12:03:00      141.381       92.725       38.488       74.120       39.966       58.300     5493.752     1597.277     3398.919        2.028        0.524      169.076       54.714        0.105      345.391       22.886      862.636
08/23/2014  12:04:00       39.404       71.311       88.274       48.829       85.011       58.656     2384.238     7226.940     3440.581        1.374        0.653       81.474       53.895        0.438      346.199       24.275      862.619
08/23/2014  12:05:00      186.013      149.269       78.604       81.236       69.666       89.046     6599.214     4853.290     7929.179        4.122        0.969      238.499       68.168        0.082      345.303       22.733      862.616
08/23/2014  12:06:00      106.113       79.295       64.559       85.176       68.639       75.778     7254.866     4711.343     5742.250        1.971        0.885      132.468       66.335        0.251      345.602       23.248      862.605
08/23/2014  12:07:00      126.692       33.681       40.868       76.675       75.853       56.380     5879.006     5753.693     3178.664        1.683        0.741      131.093       51.377        0.154      345.466       23.016      862.617
08/23/2014  12:08:00       12.461       -6.668       27.421       36.820       61.266       35.995     1355.718     3753.487     1295.655        0.368        0.320       14.133       34.215        5.861      345.878       23.724      862.589
08/23/2014  12:09:00       30.837       33.961       21.265       34.268       26.632       29.547     1174.280      709.283      873.040        0.266        0.138       45.872       23.417        0.261      346.201       24.278      862.572
08/23/2014  12:10:00       60.410       62.378       -0.068       85.072       74.555       41.863     7237.266     5558.463     1752.513        1.104        0.727       86.836       45.509        0.275      345.225       22.602      862.560
08/23/2014  12:11:00       44.350       18.531        0.723       55.131       67.272       37.726     3039.462     4525.489     1423.224        0.565        0.449       48.066       27.515        0.328      345.327       22.779      862.543
08/23/2014  12:12:00       41.851       49.221       38.676       48.227       53.372       33.113     2325.856     2848.532     1096.469        0.597        0.314       64.608       19.279        0.089      346.031       23.987      862.526
08/23/2014  12:13:00       18.629       88.843       38.519       45.208       62.147       54.705     2043.779     3862.233     2992.687        0.931        0.445       90.775       44.998        0.246      346.154       24.198      862.525
08/23/2014  12:14:00       75.304      113.929        3.540       82.391       94.720       59.846     6788.250     8971.851     3581.592        1.900        0.967      136.566       51.989        0.145      346.036       23.992      862.502
08/23/2014  12:15:00      112.745      102.464       16.417       85.093       69.985       62.103     7240.734     4897.842     3856.784        1.973        0.800      152.349       38.200        0.063      345.493       23.061      862.499
08/23/2014  12:16:00       39.266      148.048       -8.460       52.639       69.388       43.467     2770.893     4814.750     1889.397        1.650        0.474      153.167       36.858        0.058      345.888       23.739      862.516
08/23/2014  12:17:00       93.074      115.691        3.426       79.438       71.577       51.069     6310.412     5123.252     2608.053        1.805        0.702      148.483       42.410        0.082      345.574       23.200      862.519
08/23/2014  12:18:00       92.099       71.216       35.720       77.738       62.188       55.651     6043.244     3867.376     3096.997        1.392        0.650      116.421       23.868        0.042      345.642       23.317      862.504
08/23/2014  12:19:00       35.592     -125.905       -1.835       70.282      115.437       65.749     4939.555    13325.810     4322.930        1.985        1.129      130.839       53.762        0.169      345.900       23.759      862.484
08/23/2014  12:20:00      127.433     -209.752      -20.495       81.475      121.216       87.920     6638.214    14693.331     7729.881        4.485        1.453      245.429       82.408        0.113      345.376       22.860      862.454
08/23/2014  12:21:00       40.388     -123.009        6.875       92.951      111.301       48.267     8639.944    12387.837     2329.664        2.008        1.168      129.470       68.226        0.278      345.361       22.835      862.438
08/23/2014  12:22:00      -55.577       83.523        1.187       58.159       57.091       34.296     3382.500     3259.373     1176.218        0.894        0.391      100.324       35.718        0.127      345.769       23.538      862.433
08/23/2014  12:23:00      -45.709       -9.782       22.120       58.397       53.432       37.243     3410.252     2854.964     1387.016        0.516        0.383       46.744       36.740        0.618      346.011       23.953      862.430
08/23/2014  12:24:00      -38.412       -6.991        2.306       57.191       31.449       29.431     3270.806      989.035      866.177        0.333        0.256       39.043       29.526        0.572      346.023       23.973      862.400
08/23/2014  12:25:00        1.403       94.294        0.471       64.322       54.417       51.057     4137.347     2961.172     2606.787        0.930        0.485       94.305       30.266        0.103      346.029       23.983      862.390
08/23/2014  12:26:00      -76.967       90.241       -7.390       43.651       56.487       37.386     1905.366     3190.793     1397.686        1.031        0.325      118.606       28.019        0.056      345.464       23.013      862.390
08/23/2014  12:27:00      -32.388       33.346       13.763       50.138       65.110       29.965     2513.817     4239.339      897.874        0.500        0.383       46.486       30.203        0.422      345.945       23.839      862.374
08/23/2014  12:28:00       37.350       53.661        6.359       58.890       46.858       34.413     3468.091     2195.700     1184.243        0.558        0.342       65.380       16.856        0.066      345.954       23.855      862.382
08/23/2014  12:29:00       83.204       30.529       27.636       55.863       52.255       36.072     3120.720     2730.569     1301.210        0.788        0.358       88.627       22.562        0.065      345.544       23.151      862.376
08/23/2014  12:30:00       -8.474      -68.235      -13.280       47.118       44.584       23.414     2220.104     1987.691      548.232        0.483        0.238       68.759       23.038        0.112      345.213       22.582      862.354
08/23/2014  12:31:00      -29.953      -15.509       25.050       55.106       35.196       31.422     3036.707     1238.787      987.341        0.351        0.263       33.730       36.602        1.178      346.059       24.035      862.340
08/23/2014  12:32:00      -15.497      -15.833       19.605       23.263       26.188       21.909      541.189      685.804      480.015        0.129        0.085       22.155       18.700        0.712      345.886       23.737      862.325
08/23/2014  12:33:00       25.659      -38.107       25.646       44.655       43.603       34.684     1994.054     1901.189     1202.959        0.393        0.255       45.940       23.519        0.262      345.727       23.465      862.304
08/23/2014  12:34:00       22.125        3.852       31.202       43.073       25.166       22.377     1855.299      633.318      500.719        0.223        0.149       22.458       10.193        0.206      346.215       24.302      862.290
08/23/2014  12:35:00       16.909       21.283        7.984       20.274       14.321       17.680      411.017      205.084      312.574        0.087        0.046       27.182        5.071        0.035      346.032       23.988      862.278
08/23/2014  12:36:00       69.931       33.897       83.342       88.712       63.361       66.166     7869.868     4014.598     4377.951        1.462        0.813       77.713       64.311        0.685      345.951       23.848      862.263
08/23/2014  12:37:00       83.617      -22.973       74.361      100.470      185.493      109.563    10094.183    34407.580    12003.965        3.477        2.825       86.716      140.960        2.642      345.982       23.898      862.246
08/23/2014  12:38:00       98.216      -77.102       39.676       94.727      119.864       78.581     8973.286    14367.284     6174.942        2.333        1.476      124.864       87.143        0.487      345.849       23.672      862.260
08/23/2014  12:39:00       49.356       13.658       61.601       66.771       97.483       70.026     4458.310     9502.922     4903.672        1.264        0.943       51.211       79.705        2.422      345.864       23.698      862.260
08/23/2014  12:40:00        7.482        7.815       44.444       23.822       32.958       20.033      567.498     1086.246      401.330        0.207        0.103       10.819       17.562        2.635      346.354       24.541      862.235
08/23/2014  12:41:00      -66.736      -15.939       16.320       72.784       47.557       39.188     5297.539     2261.705     1535.734        0.703        0.455       68.613       43.958        0.410      346.137       24.169      862.218
08/23/2014  12:42:00      -94.880      -75.100       16.089       99.730       61.922       50.814     9946.061     3834.312     2582.107        1.563        0.818      121.005       41.949        0.120      345.790       23.572      862.201
08/23/2014  12:43:00     -124.269     -111.887       -4.134       98.905       88.224       58.430     9782.257     7783.502     3414.115        2.448        1.049      167.217       57.809        0.120      345.547       23.154      862.191
08/23/2014  12:44:00     -205.930      -93.122      -28.340       42.709       54.188       34.303     1824.072     2936.327     1176.670        2.891        0.297      226.006       22.972        0.010      345.270       22.677      862.189
08/23/2014  12:45:00      -75.494      -93.282        8.900       96.504       62.406       40.036     9312.966     3894.495     1602.875        1.464        0.741      120.004       29.206        0.059      345.758       23.517      862.178
08/23/2014  12:46:00     -159.668      -83.660      -14.844       33.970       40.176       19.602     1153.932     1614.117      384.231        1.793        0.158      180.258       11.854        0.004      345.311       22.751      862.169
08/23/2014  12:47:00     -101.980      -21.291        5.965       62.536       55.651       35.856     3910.809     3097.075     1285.687        0.959        0.415      104.179       39.667        0.145      346.007       23.947      862.156
08/23/2014  12:48:00      -61.647      -34.008       -3.610       43.728       44.416       27.221     1912.137     1972.766      741.008        0.480        0.231       70.405       20.902        0.088      345.812       23.611      862.162
08/23/2014  12:49:00      -11.277       -4.791       13.337       70.484       50.424       38.681     4968.037     2542.544     1496.228        0.467        0.450       12.252       38.929       10.095      345.993       23.921      862.169
08/23/2014  12:50:00      145.579       33.656       29.290      140.192       91.576       77.772    19653.780     8386.200     6048.480        2.863        1.704      149.419       74.361        0.248      345.979       23.897      862.150
08/23/2014  12:51:00       69.758       76.263       50.313       77.691       65.481       60.023     6035.895     4287.799     3602.789        1.357        0.696      103.355       46.235        0.200      346.132       24.160      862.143
08/23/2014  12:52:00      155.126      109.855       66.658      103.005       63.070       57.796    10610.013     3977.885     3340.409        2.925        0.896      190.084       48.506        0.065      345.972       23.884      862.151
08/23/2014  12:53:00      147.378      100.429       49.496       83.553       80.475       50.221     6981.168     6476.215     2522.193        2.511        0.799      178.343       35.777        0.040      345.694       23.407      862.149
08/23/2014  12:54:00      105.383       87.879       30.986       91.711       71.933       51.261     8410.891     5174.336     2627.714        1.800        0.811      137.216       45.510        0.110      345.867       23.703      862.138
08/23/2014  12:55:00       67.656       84.395       13.952       58.081       53.386       48.767     3373.388     2850.067     2378.189        1.025        0.430      108.166       35.715        0.109      346.271       24.399      862.125
08/23/2014  12:56:00      112.047       85.734       37.581       82.630       71.074       61.700     6827.727     5051.538     3806.878        1.850        0.784      141.085       46.882        0.110      346.060       24.035      862.114
08/23/2014  12:57:00       66.302       90.262       75.711       65.338       79.070       53.527     4269.026     6252.027     2865.139        1.583        0.669      111.996       46.478        0.172      345.752       23.505      862.116
08/23/2014  12:58:00        9.397       30.308       58.965       42.728       61.094       49.779     1825.698     3732.533     2477.961        0.626        0.402       31.732       24.825        0.612      346.291       24.434      862.098
08/23/2014  12:59:00       81.275       77.792       21.627       79.682       36.434       43.883     6349.285     1327.422     1925.698        1.136        0.480      112.504       40.668        0.131      345.717       23.446      862.077
08/23/2014  13:00:00      127.643       96.560       41.311       57.565       40.863       51.449     3313.782     1669.791     2647.004        1.748        0.382      160.052       38.547        0.058      345.563       23.181      862.065
08/23/2014  13:01:00       38.848       34.209       53.092       44.713       32.555       29.197     1999.235     1059.835      852.445        0.470        0.196       51.763       18.679        0.130      346.392       24.606      862.051
08/23/2014  13:02:00      -21.576      -11.037       40.650       40.856       48.833       42.247     1669.217     2384.621     1784.833        0.404        0.292       24.235       29.335        1.465      346.756       25.233      862.045
08/23/2014  13:03:00       46.281      -19.921       67.033       72.676      117.891       63.862     5281.733    13898.252     4078.313        1.514        1.163       50.386       60.823        1.457      346.743       25.209      862.038
08/23/2014  13:04:00       34.308        5.916       67.212       80.415      128.539       87.622     6466.597    16522.259     7677.543        1.819        1.533       34.814       87.496        6.316      346.640       25.032      862.032
08/23/2014  13:05:00      151.029       13.671       72.785       85.187      130.808       73.741     7256.895    17110.757     5437.713        2.904        1.490      151.646       81.565        0.289      345.947       23.842      862.029
08/23/2014  13:06:00       43.052       27.966       59.708       87.910       82.828       75.897     7728.141     6860.404     5760.312        1.327        1.017       51.338       69.769        1.847      346.256       24.373      862.021
08/23/2014  13:07:00       76.430       94.736      114.548       73.885      109.900       90.582     5458.966    12078.070     8205.138        2.683        1.287      121.723       89.647        0.542      345.828       23.636      862.027
08/23/2014  13:08:00       38.156     -106.178        2.180       54.412       84.944       49.547     2960.644     7215.545     2454.922        1.268        0.632      112.825       50.104        0.197      345.700       23.419      862.027
08/23/2014  13:09:00      -22.966       -3.254        9.784       39.841       52.334       28.438     1587.337     2738.832      808.745        0.288        0.257       23.196       31.530        1.848      346.054       24.025      862.020
08/23/2014  13:10:00       18.414        2.184       -3.409       52.821       90.657       52.770     2790.104     8218.778     2784.716        0.707        0.690       18.543       36.841        3.947      345.729       23.468      861.993
08/23/2014  13:11:00      -66.567      -38.985        5.094       82.872       52.557       37.890     6867.808     2762.202     1435.626        0.852        0.553       77.143       38.946        0.255      346.170       24.224      861.970
08/23/2014  13:12:00      -60.409      -42.209        7.496       73.668       48.837       33.103     5426.976     2385.101     1095.818        0.720        0.445       73.695       25.037        0.115      345.924       23.803      861.954
08/23/2014  13:13:00      -49.525       19.134       13.507       34.753       24.891       23.122     1207.740      619.563      534.649        0.268        0.118       53.092       14.321        0.073      345.997       23.929      861.928
08/23/2014  13:14:00      -39.730      -90.254        6.052       36.124       49.547       29.979     1304.933     2454.949      898.769        0.721        0.233       98.612       26.543        0.072      345.668       23.362      861.924
08/23/2014  13:15:00      -91.267      -63.675        8.811       80.399       58.134       36.142     6463.938     3379.618     1306.267        1.180        0.557      111.284       47.548        0.183      346.029       23.984      861.896
08/23/2014  13:16:00      -48.846     -116.628       -2.375       53.246       32.129       26.484     2835.185     1032.246      701.415        1.028        0.228      126.444       24.225        0.037      345.633       23.303      861.873
08/23/2014  13:17:00       10.775       13.419       35.542       32.987       42.042       33.589     1088.146     1767.494     1128.194        0.277        0.199       17.209       20.470        1.415      346.997       25.648      861.875
08/23/2014  13:18:00       41.111      106.294       -1.249       52.733       56.953       38.128     2780.742     3243.673     1453.753        1.023        0.374      113.967       18.988        0.028      346.140       24.172      861.873
08/23/2014  13:19:00       54.838       92.942        6.564       43.049       46.343       39.012     1853.204     2147.701     1521.920        0.860        0.276      107.914       32.426        0.090      345.997       23.928      861.863
08/23/2014  13:20:00       23.080       23.418       10.635       26.505       27.779       25.555      702.516      771.680      653.041        0.166        0.106       32.880       13.963        0.180      346.593       24.952      861.857
08/23/2014  13:21:00       43.115       54.484       -5.261       64.720       70.871       42.012     4188.721     5022.698     1764.988        0.791        0.549       69.480       28.902        0.173      346.189       24.259      861.840
08/23/2014  13:22:00       28.214        6.595        7.804       46.827       51.437       33.994     2192.740     2645.798     1155.621        0.345        0.300       28.975       15.402        0.283      346.389       24.602      861.830
08/23/2014  13:23:00       25.378       -3.549        4.995       56.496       85.234       36.005     3191.809     7264.763     1296.365        0.621        0.588       25.625       17.013        0.441      346.472       24.743      861.808
08/23/2014  13:24:00       80.029        0.093       45.669       98.995       80.836       61.079     9800.000     6534.461     3730.617        1.427        1.003       80.029       37.465        0.219      346.677       25.097      861.788
08/23/2014  13:25:00      257.705      143.419       48.645       81.292       75.133       56.766     6608.358     5644.995     3222.347        5.241        0.774      294.925       22.756        0.006      345.859       23.687      861.778
08/23/2014  13:26:00      139.103      100.434       43.035       67.021       50.330       44.340     4491.844     2533.100     1966.018        2.014        0.450      171.571       27.796        0.026      345.863       23.697      861.748
08/23/2014  13:27:00      135.542       54.348       57.776       74.418       64.292       54.294     5538.101     4133.462     2947.793        1.864        0.631      146.032       34.847        0.057      346.144       24.179      861.743
08/23/2014  13:28:00      126.381       72.312       47.382      107.600       97.206       72.627    11577.744     9448.937     5274.754        2.487        1.315      145.606       21.972        0.023      346.241       24.344      861.741
08/23/2014  13:29:00      297.892      190.970       73.525      129.442      101.692      108.269    16755.340    10341.224    11722.160        8.471        1.941      353.849       49.280        0.019      346.066       24.042      861.707
08/23/2014  13:30:00      103.132       73.118       19.464       93.518       73.008       55.185     8745.606     5330.201     3045.409        1.674        0.856      126.421       38.942        0.095      346.306       24.457      861.724
08/23/2014  13:31:00      113.917       56.336       93.187      110.013       95.834       87.140    12102.781     9184.186     7593.445        2.685        1.444      127.085       77.972        0.376      346.443       24.692      861.718
08/23/2014  13:32:00      210.623      141.740      142.048      152.006      128.271       91.254    23105.921    16453.570     8327.304        6.625        2.394      253.874       97.114        0.146      346.102       24.107      861.692
08/23/2014  13:33:00      249.229       91.356       46.529      132.081       96.021       84.521    17445.395     9220.120     7143.740        5.321        1.690      265.444       71.254        0.072      346.006       23.940      861.704
08/23/2014  13:34:00      169.593       76.817       74.396      126.873       79.875       69.875    16096.832     6380.027     4882.487        3.377        1.368      186.179       67.260        0.131      346.464       24.727      861.705
08/23/2014  13:35:00      128.374      103.302       47.175      102.904       75.240       68.801    10589.162     5661.096     4733.609        2.518        1.049      164.776       59.125        0.129      346.464       24.728      861.714
08/23/2014  13:36:00      215.942      104.743       37.007      122.518      133.218       71.969    15010.663    17747.095     5179.477        4.845        1.897      240.005       47.735        0.040      346.144       24.178      861.703
08/23/2014  13:37:00       60.683       70.468      105.199       75.062       74.255       67.797     5634.379     5513.755     4596.437        1.773        0.787       92.995       55.667        0.358      346.807       25.318      861.703
08/23/2014  13:38:00       50.643       -3.651       56.280       65.539      120.432       59.865     4295.374    14503.948     3583.762        1.406        1.119       50.774       76.582        2.275      346.596       24.957      861.695
08/23/2014  13:39:00       20.613       56.098       63.908       38.063       46.207       39.888     1448.803     2135.093     1591.058        0.641        0.259       59.765       24.774        0.172      347.046       25.732      861.689
08/23/2014  13:40:00       69.384       61.961       85.039       80.039       81.973       67.872     6406.245     6719.589     4606.561        1.681        0.887       93.023       64.843        0.486      346.701       25.137      861.692
08/23/2014  13:41:00      143.411       44.337       35.358       63.063       74.568       43.662     3976.979     5560.413     1906.339        1.761        0.572      150.108       38.926        0.067      345.840       23.657      861.701
08/23/2014  13:42:00      115.723     -205.761      -17.097       83.452      130.864       56.865     6964.191    17125.276     3233.648        4.167        1.366      236.071       74.655        0.100      345.947       23.839      861.673
08/23/2014  13:43:00       44.228     -155.023      -25.430       61.543       75.386       39.648     3787.527     5682.983     1571.967        1.884        0.552      161.209       30.433        0.036      346.125       24.146      861.648
08/23/2014  13:44:00      -71.435      -91.258        7.908       76.859       41.297       43.091     5907.289     1705.480     1856.816        1.148        0.473      115.892       23.032        0.039      346.131       24.159      861.624
08/23/2014  13:45:00      -62.765      -57.426       13.104       92.647       80.886       42.683     8583.462     6542.579     1821.866        1.218        0.847       85.072       41.142        0.234      346.395       24.611      861.615
08/23/2014  13:46:00        3.740       29.686       60.293       28.760       31.380       40.483      827.154      984.699     1638.872        0.399        0.173       29.921       15.029        0.252      346.865       25.420      861.615
08/23/2014  13:47:00       32.437       36.028       53.645       63.757       58.542       37.162     4064.992     3427.143     1380.991        0.705        0.444       48.479       29.406        0.368      346.821       25.345      861.607
08/23/2014  13:48:00       64.761       86.987      114.222       82.818       78.052       64.543     6858.840     6092.062     4165.802        2.096        0.856      108.447       42.046        0.150      346.635       25.023      861.599
08/23/2014  13:49:00      138.320      127.252       93.700       93.328      100.395       89.776     8710.195    10079.227     8059.714        3.547        1.342      187.951       75.540        0.162      346.003       23.936      861.581
08/23/2014  13:50:00      129.047       64.373       43.309       80.024       52.834       48.387     6403.909     2791.429     2341.291        1.710        0.577      144.211       41.263        0.082      346.329       24.496      861.553
08/23/2014  13:51:00       29.972      -34.304       18.939       41.752       67.051       38.655     1743.203     4495.818     1494.206        0.508        0.387       45.553       38.533        0.716      346.798       25.305      861.521
08/23/2014  13:52:00        2.695       47.356       76.760       43.850       41.253       32.671     1922.811     1701.803     1067.421        0.642        0.235       47.433       24.708        0.271      347.119       25.857      861.492
08/23/2014  13:53:00       34.122      -34.144       38.079       35.446       39.926       29.442     1256.441     1594.056      866.819        0.375        0.186       48.271       21.280        0.194      346.795       25.300      861.491
08/23/2014  13:54:00      110.232     -118.943       -1.992       86.333       78.444       49.241     7453.385     6153.525     2424.632        2.116        0.802      162.168       45.991        0.080      346.520       24.827      861.464
08/23/2014  13:55:00       70.924     -148.919       -6.260       74.937      124.080       61.314     5615.487    15395.846     3759.390        2.600        1.239      164.946       60.791        0.136      346.364       24.556      861.460
08/23/2014  13:56:00       69.420        7.856       62.802       74.859       83.715       44.882     5603.832     7008.279     2014.409        1.172        0.731       69.863       51.422        0.542      346.576       24.922      861.468
08/23/2014  13:57:00      116.640       32.256        2.189       67.216       59.454       31.981     4517.943     3534.743     1022.761        1.186        0.454      121.018       10.714        0.008      346.269       24.396      861.440
08/23/2014  13:58:00       58.484      -98.083       21.891       50.156       96.537       57.193     2515.583     9319.333     3271.055        1.431        0.755      114.196       64.737        0.321      346.788       25.287      861.418
08/23/2014  13:59:00        3.174       61.634       77.216       34.357       43.446       34.377     1180.424     1887.529     1181.767        0.701        0.212       61.716       19.772        0.103      347.029       25.703      861.406
08/23/2014  14:00:00       33.722       65.268       90.030       58.907       74.157       59.750     3470.085     5499.321     3570.093        1.302        0.627       73.465       47.851        0.424      347.094       25.813      861.398
08/23/2014  14:01:00       62.475       73.117      114.683      108.033       92.811       76.197    11671.057     8613.886     5806.036        2.424        1.305       96.172       88.062        0.838      346.707       25.147      861.374
08/23/2014  14:02:00       31.818       43.492       24.469       33.385       47.642       44.364     1114.582     2269.791     1968.151        0.443        0.268       53.888       17.128        0.101      346.739       25.204      861.385
08/23/2014  14:03:00      209.709      156.914       38.089      122.413       73.399       63.972    14984.890     5387.406     4092.462        4.725        1.223      261.915       47.793        0.033      346.421       24.654      861.355
08/23/2014  14:04:00      309.128      188.200       56.449      139.483      104.559      103.057    19455.538    10932.597    10620.699        8.758        2.050      361.911       51.753        0.020      346.547       24.868      861.326
08/23/2014  14:05:00      322.815      211.994       69.088      111.210      103.807       90.664    12367.755    10775.826     8219.941        9.264        1.568      386.200       44.978        0.014      346.344       24.521      861.311
08/23/2014  14:06:00      241.006       98.057       51.060      157.529      129.217       70.424    24815.493    16697.141     4959.504        5.838        2.324      260.190       46.392        0.032      346.582       24.931      861.321
08/23/2014  14:07:00      115.818       77.069       73.209      115.461      101.405       86.662    13331.164    10282.889     7510.367        2.791        1.556      139.117       52.296        0.141      347.095       25.815      861.325
08/23/2014  14:08:00      251.556      127.005       42.563      135.068       78.868       78.924    18243.336     6220.211     6228.941        5.595        1.535      281.799       46.305        0.027      346.474       24.743      861.360
08/23/2014  14:09:00      173.087       87.939       31.186       76.489       59.813       42.424     5850.519     3577.655     1799.806        2.494        0.561      194.145       27.051        0.019      346.078       24.064      861.375
08/23/2014  14:10:00       52.704       56.741       -2.151       65.615       44.195       35.639     4305.377     1953.229     1270.169        0.676        0.376       77.442       31.007        0.160      346.108       24.119      861.357
08/23/2014  14:11:00       61.659      -34.623        3.210       46.315       36.752       35.587     2145.046     1350.675     1266.470        0.489        0.238       70.714       15.882        0.050      346.396       24.614      861.322
08/23/2014  14:12:00      104.931       82.574       41.440       89.974       71.090       54.377     8095.360     5053.850     2956.892        1.782        0.805      133.525       48.422        0.132      346.618       24.995      861.310
08/23/2014  14:13:00        9.228      145.207      -13.980       60.044       53.102       39.780     3605.282     2819.789     1582.456        1.469        0.400      145.500       37.220        0.065      346.334       24.506      861.313
08/23/2014  14:14:00      -82.652      104.752       -7.298       58.182       63.274       38.765     3385.120     4003.652     1502.734        1.337        0.445      133.432       31.971        0.057      346.591       24.949      861.287
08/23/2014  14:15:00       36.494      100.913       14.152       90.345       38.292       39.965     8162.155     1466.311     1597.170        1.147        0.561      107.309       42.980        0.160      346.635       25.025      861.269
08/23/2014  14:16:00      100.268      100.126       -1.876       88.908       84.708       58.432     7904.570     7175.396     3414.351        1.928        0.925      141.700       50.224        0.126      346.734       25.193      861.239
08/23/2014  14:17:00      122.479       76.003       18.010       74.888       63.904       44.251     5608.284     4083.682     1958.192        1.637        0.583      144.144       11.685        0.007      346.254       24.369      861.235
08/23/2014  14:18:00      -34.160       35.341        3.924       47.895       73.801       33.718     2293.944     5446.553     1136.911        0.565        0.444       49.152       35.074        0.509      346.613       24.986      861.203
08/23/2014  14:19:00       -0.243       73.379       -1.738       39.772       48.254       29.395     1581.835     2328.468      864.077        0.508        0.239       73.379       23.089        0.099      346.670       25.084      861.192
08/23/2014  14:20:00       27.136       89.099       -1.265       38.047       47.256       40.793     1447.559     2233.104     1664.071        0.701        0.267       93.139       28.058        0.091      346.587       24.943      861.175
08/23/2014  14:21:00      130.520      138.497       17.999       96.521       85.250       58.754     9316.255     7267.477     3452.062        2.828        1.002      190.307       38.118        0.040      346.470       24.739      861.180
08/23/2014  14:22:00      190.395      136.396        5.564       76.845       62.496       57.141     5905.136     3905.774     3265.107        3.398        0.654      234.210       28.929        0.015      346.112       24.122      861.178
08/23/2014  14:23:00       40.301       53.611        1.886       75.562       38.011       33.604     5709.655     1444.860     1129.232        0.639        0.414       67.069       39.218        0.342      346.425       24.666      861.167
08/23/2014  14:24:00      -37.026        2.296      -29.867       18.966       39.117       18.888      359.714     1530.153      356.749        0.226        0.112       37.097       20.099        0.294      346.091       24.088      861.133
08/23/2014  14:25:00      -40.801      -32.279       -0.923       32.725       52.960       30.988     1070.934     2804.727      960.271        0.377        0.242       52.025       25.322        0.237      346.396       24.614      861.095
08/23/2014  14:26:00      -36.947       -1.217      -11.159       32.015       29.102       21.526     1024.960      846.922      463.375        0.191        0.117       36.968       13.197        0.127      346.356       24.543      861.076
08/23/2014  14:27:00       77.034       63.990       52.573       77.969       60.293       55.784     6079.186     3635.300     3111.853        1.281        0.641      100.145       45.692        0.208      346.788       25.288      861.066
08/23/2014  14:28:00      -22.481      -42.781       11.492       89.279       74.420       47.524     7970.743     5538.332     2258.543        0.911        0.788       48.328       24.796        0.263      347.060       25.755      861.039
08/23/2014  14:29:00      -80.694       78.930      -26.479       56.603       67.851       40.045     3203.937     4603.818     1603.566        1.143        0.471      112.878       24.027        0.045      346.879       25.445      861.017
08/23/2014  14:30:00      -63.371       82.466      -10.322       46.210       35.503       36.894     2135.379     1260.483     1361.183        0.784        0.238      104.003       23.820        0.052      346.793       25.296      861.018
08/23/2014  14:31:00       -8.339       52.091       14.275       35.227       74.198       34.963     1240.948     5505.285     1222.397        0.548        0.398       52.755       34.024        0.416      346.834       25.366      860.996
08/23/2014  14:32:00       35.602       27.664        0.376       31.936       34.209       23.866     1019.935     1170.239      569.596        0.240        0.138       45.087       15.883        0.124      346.860       25.411      860.973
08/23/2014  14:33:00       27.605       47.098        5.534       47.324       54.130       27.487     2239.559     2930.047      755.540        0.447        0.296       54.591       26.048        0.228      347.101       25.828      860.956
08/23/2014  14:34:00      -16.539      135.302       -6.684       56.173       53.863       35.896     3155.412     2901.216     1288.518        1.298        0.367      136.309       32.695        0.058      347.170       25.945      860.949
08/23/2014  14:35:00       23.758       86.152        6.606       57.184       58.016       45.583     3270.067     3365.896     2077.821        0.837        0.436       89.368       42.454        0.226      346.866       25.422      860.944
08/23/2014  14:36:00       87.027       69.312       10.892       73.528       77.797       53.796     5406.390     6052.330     2893.966        1.342        0.718      111.256       22.235        0.040      346.955       25.575      860.929
08/23/2014  14:37:00       44.850       21.346       22.896       64.766       49.201       41.063     4194.584     2420.752     1686.161        0.564        0.415       49.671       13.991        0.079      346.923       25.520      860.921
08/23/2014  14:38:00       68.708       87.770       -1.378       50.015       79.631       53.000     2501.515     6341.072     2809.049        1.204        0.583      111.465       48.598        0.190      346.767       25.251      860.918
08/23/2014  14:39:00       66.171       68.504       12.026       71.951       41.051       33.481     5176.975     1685.166     1120.979        0.860        0.399       95.244       24.698        0.067      346.314       24.473      860.903
08/23/2014  14:40:00        8.030       75.144      -15.669       30.220       43.471       24.934      913.221     1889.687      621.681        0.469        0.171       75.572       23.160        0.094      346.340       24.516      860.895
08/23/2014  14:41:00       40.014       67.935       -2.590       50.583       68.319       28.730     2558.676     4667.500      825.429        0.714        0.403       78.843       20.147        0.065      346.402       24.623      860.875
08/23/2014  14:42:00      -12.170      126.175       -1.697       51.309       94.325       38.080     2632.585     8897.258     1450.057        1.452        0.649      126.761       47.318        0.139      346.674       25.090      860.850
08/23/2014  14:43:00      -42.287      169.558      -16.059       81.141      109.197       45.910     6583.860    11923.944     2107.740        2.570        1.031      174.752       29.931        0.029      346.779       25.269      860.831
08/23/2014  14:44:00     -154.109      127.619      -33.209       42.474       54.857       35.924     1804.058     3009.282     1290.529        2.362        0.305      200.090       27.744        0.019      346.413       24.640      860.804
08/23/2014  14:45:00     -102.303      112.527      -21.947       60.375       57.083       35.499     3645.129     3258.441     1260.174        1.589        0.408      152.080       34.613        0.052      346.652       25.054      860.777
08/23/2014  14:46:00      -67.036       90.769       -3.977       53.361       65.917       38.549     2847.434     4345.109     1486.044        1.071        0.434      112.840       39.191        0.121      347.046       25.732      860.769
08/23/2014  14:47:00      -57.995       81.905        0.715       61.698      104.889       33.460     3806.634    11001.691     1119.574        1.300        0.796      100.359       21.479        0.046      346.705       25.144      860.747
08/23/2014  14:48:00      -70.959       24.829       -5.695       41.110       98.992       35.373     1690.014     9799.371     1251.284        0.921        0.637       75.177       26.545        0.125      346.962       25.587      860.736
08/23/2014  14:49:00       29.852      270.144      -32.515       51.044       63.809       27.444     2605.527     4071.604      753.188        4.118        0.372      271.788       25.850        0.009      346.411       24.635      860.733
08/23/2014  14:50:00        8.442       60.515       11.890       51.556       62.783       42.963     2658.036     3941.696     1845.792        0.616        0.422       61.101       35.998        0.347      347.004       25.659      860.733
08/23/2014  14:51:00      102.539      132.787       -2.385       56.713       95.760       66.302     3216.338     9169.926     4395.970        2.246        0.839      167.770       65.101        0.151      346.777       25.267      860.719
08/23/2014  14:52:00       16.538       81.503        5.297       58.836       55.896       35.813     3461.716     3124.344     1282.577        0.740        0.393       83.164       39.210        0.222      346.807       25.320      860.722
08/23/2014  14:53:00       45.802      153.147       -2.076       74.249      127.415       60.650     5512.891    16234.494     3678.471        2.549        1.271      159.849       67.229        0.177      346.879       25.445      860.721
08/23/2014  14:54:00       57.002      136.054       -4.493       48.261       89.584       50.648     2329.080     8025.246     2565.172        1.735        0.646      147.513       53.997        0.134      346.786       25.282      860.729
08/23/2014  14:55:00       26.331      187.320      -11.399       54.869      106.106       53.636     3010.612    11258.405     2876.772        2.653        0.857      189.161       62.474        0.109      346.642       25.035      860.730
08/23/2014  14:56:00       70.093      157.893       -2.144       72.656       83.810       57.313     5278.879     7024.063     3284.799        2.271        0.779      172.752       45.122        0.068      346.777       25.266      860.747
08/23/2014  14:57:00      193.921      143.360       17.874       83.425       63.675       66.035     6959.725     4054.521     4360.668        3.692        0.769      241.158       46.535        0.037      346.679       25.095      860.725
08/23/2014  14:58:00      162.000      121.536       32.269      125.690       82.956       65.006    15797.996     6881.665     4225.812        3.448        1.345      202.521       55.939        0.076      347.127       25.869      860.708
08/23/2014  14:59:00      177.591      151.400        2.661      125.697       72.922       49.407    15799.756     5317.644     2441.026        3.901        1.178      233.368       38.228        0.027      346.504       24.796      860.730
08/23/2014  15:00:00        2.773       29.002      -15.738       45.406       55.050       30.347     2061.708     3030.523      920.942        0.355        0.301       29.134       20.164        0.479      346.552       24.881      860.715
08/23/2014  15:01:00      -80.141       66.697      -16.817       44.282       41.535       26.049     1960.888     1725.172      678.552        0.776        0.218      104.265       21.396        0.042      346.703       25.142      860.691
08/23/2014  15:02:00      -12.375       13.796       14.746       25.690       33.883       19.638      659.951     1148.073      385.633        0.138        0.110       18.533       16.779        0.820      347.251       26.084      860.684
08/23/2014  15:03:00       23.975       88.272      -14.219       28.796       59.904       31.326      829.210     3588.512      981.289        0.698        0.270       91.469       37.032        0.164      346.639       25.032      860.664
08/23/2014  15:04:00        5.599       41.607        0.734       37.152       23.146       22.245     1380.264      535.716      494.846        0.209        0.121       41.982        5.576        0.018      347.077       25.787      860.642
08/23/2014  15:05:00       53.853       76.869       47.064       52.856       71.711       51.755     2793.765     5142.483     2678.625        1.082        0.531       93.856       30.281        0.104      347.445       26.419      860.633
08/23/2014  15:06:00      141.731      135.938      123.828      107.840       99.100       72.821    11629.396     9820.795     5302.907        4.032        1.338      196.385       56.559        0.083      346.967       25.593      860.628
08/23/2014  15:07:00       22.825       68.304       96.369       67.388      104.939       60.938     4541.110    11012.139     3713.407        1.687        0.963       72.017       60.488        0.705      347.177       25.956      860.602
08/23/2014  15:08:00      193.509       95.186       66.096      103.934       98.786       90.821    10802.302     9758.650     8248.380        3.984        1.440      215.653       73.497        0.116      346.998       25.647      860.596
08/23/2014  15:09:00      124.231       83.061       73.798       84.509       83.934       78.743     7141.847     7044.967     6200.427        2.408        1.019      149.440       66.417        0.198      346.797       25.301      860.604
08/23/2014  15:10:00      136.267      141.851      111.990      104.026       82.650       65.833    10821.321     6830.959     4334.012        3.660        1.099      196.699       46.043        0.055      346.912       25.498      860.605
08/23/2014  15:11:00      242.634      209.683      115.568      165.494      110.418      117.362    27388.338    12192.111    13773.889        8.476        2.668      320.684      105.795        0.109      346.822       25.343      860.607
08/23/2014  15:12:00      178.477       51.230       61.988      131.046       93.838       68.251    17173.082     8805.498     4658.209        3.447        1.532      185.684       63.986        0.119      346.978       25.612      860.622
08/23/2014  15:13:00      165.831       76.392       41.497       91.201       89.667       61.715     8317.540     8040.126     3808.795        2.761        1.008      182.580       30.354        0.028      346.857       25.403      860.617
08/23/2014  15:14:00       93.632      126.759      131.146       96.153      113.316       93.866     9245.345    12840.611     8810.844        3.646        1.545      157.590       82.796        0.276      346.791       25.290      860.597
08/23/2014  15:15:00      113.045       87.255       81.912       76.117       71.374       55.106     5793.818     5094.287     3036.656        2.051        0.696      142.802       51.616        0.131      346.561       24.895      860.602
08/23/2014  15:16:00       38.568       64.826      103.173       61.813       88.826       64.116     3820.849     7889.974     4110.881        1.607        0.791       75.431       64.318        0.727      347.092       25.810      860.586
08/23/2014  15:17:00      110.022       82.827      110.378       96.560      127.613      107.507     9323.849    16284.974    11557.821        3.415        1.858      137.714      104.569        0.577      346.664       25.073      860.586
08/23/2014  15:18:00      148.692      119.289      114.387       99.724       84.722       71.423     9944.953     7177.821     5101.225        3.582        1.111      190.628       62.517        0.108      346.699       25.132      860.599
08/23/2014  15:19:00       68.481       38.971       81.743       73.356       72.795       53.914     5381.116     5299.183     2906.760        1.324        0.679       78.793       48.872        0.385      346.838       25.372      860.591
08/23/2014  15:20:00      141.049       12.830       67.590      111.371      102.399       77.571    12403.436    10485.651     6017.319        2.676        1.445      141.631       76.208        0.290      346.887       25.455      860.577
08/23/2014  15:21:00       87.397       43.661       82.749      120.866      113.222       64.099    14608.638    12819.328     4108.740        2.396        1.577       97.696       54.940        0.316      347.232       26.051      860.551
08/23/2014  15:22:00      152.086     -137.087        9.223      125.419      130.705       61.005    15730.040    17083.896     3721.567        3.926        1.827      204.751       79.983        0.153      347.019       25.684      860.551
08/23/2014  15:23:00      176.470     -265.365      -47.250       90.796       73.117       29.322     8244.003     5346.083      859.768        5.912        0.722      318.685       23.491        0.005      346.600       24.960      860.535
08/23/2014  15:24:00       64.892     -165.547       40.117       70.411      119.799       57.861     4957.680    14351.849     3347.897        2.794        1.133      177.811       62.696        0.124      346.814       25.330      860.535
08/23/2014  15:25:00       78.877      -10.931       44.128       83.747       73.847       50.644     7013.638     5453.351     2564.818        1.166        0.752       79.631       57.049        0.513      346.968       25.598      860.541
08/23/2014  15:26:00       76.652      -79.110       18.647       45.965       60.256       50.371     2112.787     3630.761     2537.257        1.038        0.414      110.154       46.388        0.177      346.804       25.315      860.524
08/23/2014  15:27:00       25.475     -136.671       -6.697       35.445       53.161       26.578     1256.344     2826.092      706.365        1.208        0.239      139.025       12.575        0.008      346.768       25.250      860.502
08/23/2014  15:28:00       37.350     -102.945       -3.718       51.559       41.244       29.832     2658.303     1701.105      889.970        0.863        0.262      109.511       23.309        0.045      346.777       25.269      860.479
08/23/2014  15:29:00       37.097     -108.382      -25.515       44.011       66.626       26.231     1937.003     4439.090      688.065        1.042        0.353      114.555       23.416        0.042      347.061       25.756      860.462
08/23/2014  15:30:00      -39.574      -22.591       10.396       36.276       29.198       24.535     1315.983      852.529      601.952        0.248        0.139       45.568       21.128        0.215      347.143       25.900      860.457
08/23/2014  15:31:00       77.054       -6.824       50.417       87.217      147.642       86.133     7606.860    21798.297     7418.926        2.267        1.841       77.356      109.046        1.987      346.964       25.589      860.458
08/23/2014  15:32:00      104.846      -83.364       40.988       57.504      140.155       70.701     3306.702    19643.373     4998.616        2.378        1.397      133.949       92.278        0.475      346.728       25.182      860.463
08/23/2014  15:33:00       81.475        6.689       31.185       48.122       78.212       45.450     2315.712     6117.043     2065.663        0.907        0.525       81.749       38.569        0.223      346.884       25.452      860.456
08/23/2014  15:34:00       65.683       67.810        7.461       69.069       41.754       35.061     4770.572     1743.357     1229.307        0.835        0.387       94.406       33.359        0.125      346.956       25.576      860.444
08/23/2014  15:35:00      152.420       29.480       -5.149       59.553       66.292       34.177     3546.529     4394.624     1168.067        1.662        0.455      155.244       26.506        0.029      346.664       25.073      860.433
08/23/2014  15:36:00       97.615       86.900       63.486      132.002       97.145       60.710    17424.617     9437.162     3685.727        2.582        1.527      130.691       54.230        0.172      347.259       26.096      860.390
08/23/2014  15:37:00      138.927       86.655       41.947       92.750       71.456       57.989     8602.507     5106.017     3362.778        2.282        0.854      163.737       33.951        0.043      347.205       26.004      860.414
08/23/2014  15:38:00      252.923      158.895       24.758       96.521       89.409       60.883     9316.335     7994.052     3706.732        5.542        1.051      298.693       44.911        0.023      347.213       26.017      860.412
08/23/2014  15:39:00      136.305      117.985        9.459      128.798       63.947       60.560    16589.040     4089.161     3667.566        2.846        1.217      180.276       29.062        0.026      347.075       25.780      860.415
08/23/2014  15:40:00      213.741      141.006       21.728      118.330       88.261       58.751    14002.001     7790.034     3451.735        4.564        1.262      256.062       21.829        0.007      346.912       25.498      860.416
08/23/2014  15:41:00       89.308      101.149        5.060       92.731       74.145       59.207     8599.060     5497.510     3505.494        1.791        0.880      134.934       41.212        0.093      346.981       25.619      860.423
08/23/2014  15:42:00       69.249      202.883      -27.465       86.451       90.678       60.621     7473.809     8222.532     3674.942        3.304        0.969      214.376       54.078        0.064      346.717       25.162      860.425
08/23/2014  15:43:00       11.494      297.911      -47.034       56.546       66.886       31.127     3197.401     4473.803      968.910        4.987        0.432      298.133       33.166        0.012      346.531       24.842      860.401
08/23/2014  15:44:00       13.928      170.939      -15.539       51.468       83.586       35.427     2648.995     6986.654     1255.064        2.027        0.545      171.506       40.877        0.057      346.908       25.494      860.389
08/23/2014  15:45:00       64.167       89.823       -1.234       57.233       65.784       36.638     3275.663     4327.492     1342.374        1.056        0.447      110.388       34.306        0.097      346.835       25.368      860.372
08/23/2014  15:46:00       38.292       57.385       83.994       58.647       44.923       41.268     3439.458     2018.069     1703.080        0.949        0.358       68.988       24.088        0.122      347.080       25.790      860.343
08/23/2014  15:47:00       46.949       73.454       69.323       71.550       60.215       55.843     5119.401     3625.860     3118.466        1.213        0.593       87.176       48.397        0.308      347.183       25.969      860.320
08/23/2014  15:48:00       64.799       56.663       61.970       56.490       41.553       36.052     3191.068     1726.641     1299.714        0.873        0.311       86.079       27.809        0.104      347.098       25.821      860.310
08/23/2014  15:49:00      120.723       83.384        5.010       47.573       50.076       35.566     2263.159     2507.572     1264.950        1.379        0.302      146.720       21.942        0.022      346.847       25.389      860.306
08/23/2014  15:50:00       93.163       68.666       11.465       34.965       33.613       35.431     1222.557     1129.829     1255.321        0.857        0.180      115.734       23.896        0.043      346.709       25.151      860.294
08/23/2014  15:51:00       17.668       49.534       -3.936       56.496       34.470       31.241     3191.783     1188.152      976.023        0.407        0.268       52.591       26.526        0.254      346.844       25.385      860.273
08/23/2014  15:52:00       32.382       24.158        5.295       20.175       25.627       23.838      407.045      656.744      568.249        0.165        0.082       40.400       19.187        0.226      346.836       25.370      860.253
08/23/2014  15:53:00       62.389     -108.573      -12.123       66.268      116.221       52.117     4391.454    13507.395     2716.141        1.822        1.031      125.222       61.022        0.237      347.059       25.751      860.238
08/23/2014  15:54:00       43.504     -114.627      -21.126       72.037       48.822       42.021     5189.310     2383.579     1765.746        1.241        0.467      122.605       31.821        0.067      346.865       25.419      860.232
08/23/2014  15:55:00      -81.783     -165.523       -7.247       56.895       74.277       43.371     3237.072     5517.139     1881.062        2.238        0.532      184.625       39.270        0.045      346.833       25.362      860.230
08/23/2014  15:56:00      -79.411      -89.041       -0.476       96.473       76.446       49.373     9307.018     5844.002     2437.674        1.591        0.879      119.308       48.615        0.166      346.919       25.512      860.208
08/23/2014  15:57:00       74.957     -248.624      -28.381      111.281       97.874       51.023    12383.369     9579.341     2603.300        4.640        1.228      259.677       51.278        0.039      346.867       25.419      860.195
08/23/2014  15:58:00      -49.157     -191.694      -22.834       65.953       59.342       47.084     4349.773     3521.529     2216.897        2.488        0.504      197.896       27.554        0.019      346.906       25.488      860.208
08/23/2014  15:59:00      -68.282      -84.790       11.630       60.296       66.479       38.585     3635.560     4419.516     1488.772        1.076        0.477      108.867       34.229        0.099      347.307       26.181      860.208
08/23/2014  16:00:00      -54.429     -155.422      -15.270       52.009       51.339       43.455     2704.982     2635.645     1888.308        1.729        0.361      164.677       33.176        0.041      347.284       26.141      860.211
08/23/2014  16:01:00      -35.361     -113.749        4.277       56.404       57.313       40.821     3181.371     3284.746     1666.374        1.117        0.407      119.118       15.327        0.017      347.374       26.297      860.209
08/23/2014  16:02:00        3.513       21.636       56.506       30.308       46.299       37.761      918.604     2143.633     1425.892        0.408        0.224       21.920       33.400        2.322      347.456       26.439      860.217
08/23/2014  16:03:00        3.494       28.280       58.584       22.458       27.592       19.255      504.353      761.339      370.751        0.294        0.082       28.495       16.317        0.328      347.455       26.435      860.229
08/23/2014  16:04:00       69.246       62.525       40.164       66.093       35.435       29.691     4368.227     1255.640      881.534        0.841        0.325       93.297       21.857        0.055      347.112       25.846      860.234
08/23/2014  16:05:00      -43.231       32.843        0.079       86.825       74.866       48.162     7538.553     5604.867     2319.617        0.920        0.773       54.292       44.553        0.673      347.382       26.310      860.198
08/23/2014  16:06:00       13.934       -7.871        5.985      127.575       90.784       52.462    16275.335     8241.725     2752.238        1.378        1.363       16.003       37.191        5.401      347.352       26.258      860.201
08/23/2014  16:07:00      -13.605       -9.804        1.547       42.087       55.325       25.388     1771.311     3060.910      644.573        0.288        0.274       16.769        6.054        0.130      347.493       26.501      860.205
08/23/2014  16:08:00       15.228      -36.758       39.095       78.265      131.424       40.997     6125.346    17272.186     1680.738        1.409        1.254       39.788       52.956        1.771      347.435       26.401      860.174
08/23/2014  16:09:00      -96.262     -134.774       -5.311      100.322       84.070       70.076    10064.488     7067.822     4910.637        2.475        1.102      165.621       64.141        0.150      347.083       25.795      860.151
08/23/2014  16:10:00        1.456      -65.938        5.489       73.353       37.977       39.750     5380.725     1442.249     1580.035        0.639        0.420       65.954       27.419        0.173      347.179       25.960      860.144
08/23/2014  16:11:00       42.752      -88.862       -0.540       97.469       94.235       37.370     9500.200     8880.292     1396.495        1.475        0.989       98.611       54.615        0.307      347.208       26.009      860.137
08/23/2014  16:12:00      116.041      -30.762       64.933       99.364       96.694       73.667     9873.167     9349.723     5426.760        2.163        1.232      120.049       60.451        0.254      347.242       26.068      860.102
08/23/2014  16:13:00      107.738     -142.332      -19.820       76.770       89.416       53.698     5893.636     7995.194     2883.480        2.451        0.839      178.510       60.813        0.116      346.888       25.456      860.118
08/23/2014  16:14:00       61.255      -83.347      -10.342       46.387       43.507       29.802     2151.775     1892.874      888.185        0.787        0.247      103.436       21.079        0.042      346.881       25.446      860.124
08/23/2014  16:15:00       58.014        1.369        5.496       40.129       45.083       27.938     1610.375     2032.493      780.506        0.391        0.221       58.030       19.486        0.113      346.942       25.553      860.121
08/23/2014  16:16:00       57.657       55.411       15.845       41.819       27.484       32.193     1748.856      755.346     1036.369        0.509        0.177       79.967       18.612        0.054      347.159       25.926      860.110
08/23/2014  16:17:00       93.526       51.831        7.182       60.322       48.373       26.083     3638.782     2339.905      680.347        0.907        0.333      106.928       17.613        0.027      346.896       25.473      860.101
08/23/2014  16:18:00      119.298       92.463        5.102      107.746       74.428       48.329    11609.208     5539.490     2335.669        2.114        0.974      150.935       43.068        0.081      346.915       25.503      860.076
08/23/2014  16:19:00      181.262       92.157       42.806       95.758       74.804       53.447     9169.677     5595.693     2856.603        3.040        0.881      203.344       31.273        0.024      347.135       25.880      860.066
08/23/2014  16:20:00      173.211       80.467       51.965       83.934       79.434       55.104     7044.976     6309.741     3036.418        2.778        0.820      190.989       35.201        0.034      347.122       25.858      860.051
08/23/2014  16:21:00      198.579      142.605       -0.220       84.791       90.661       68.588     7189.459     8219.404     4704.378        3.994        1.006      244.479       48.937        0.040      347.007       25.661      860.050
08/23/2014  16:22:00      157.471      124.239       11.536       77.882       69.912       49.490     6065.555     4887.719     2449.263        2.688        0.670      200.580       35.272        0.031      346.903       25.482      860.058
08/23/2014  16:23:00      128.978      172.481       -6.064       95.378      108.179       75.640     9096.972    11702.709     5721.365        3.647        1.326      215.372       69.101        0.103      346.882       25.447      860.066
08/23/2014  16:24:00       60.569      239.436      -32.412       66.208       85.185       58.544     4383.436     7256.406     3427.369        3.855        0.753      246.978       53.793        0.047      346.763       25.240      860.077
08/23/2014  16:25:00       56.283      164.106      -23.595       57.395       81.797       57.469     3294.241     6690.761     3302.653        2.197        0.664      173.489       55.328        0.102      346.811       25.324      860.088
08/23/2014  16:26:00       83.660      155.346      -16.413       73.710       66.626       47.944     5433.156     4439.003     2298.615        2.178        0.609      176.441       39.717        0.051      346.758       25.234      860.095
08/23/2014  16:27:00      -23.069      101.547      -18.497       28.313       40.977       20.642      801.616     1679.084      426.074        0.705        0.145      104.134       10.630        0.010      346.830       25.359      860.095
08/23/2014  16:28:00      -59.545      103.971      -23.352       80.466       49.255       23.210     6474.849     2426.040      538.693        1.217        0.472      119.815       17.820        0.022      347.107       25.835      860.089
08/23/2014  16:29:00     -163.521       73.705      -11.687       61.752       47.609       39.493     3813.358     2266.635     1559.727        1.997        0.382      179.364       31.699        0.031      347.165       25.935      860.066
08/23/2014  16:30:00     -151.275       95.898      -20.739       65.008       55.478       40.164     4225.982     3077.843     1613.162        2.071        0.446      179.110       37.045        0.043      347.177       25.955      860.044
08/23/2014  16:31:00      -86.235       16.128       -4.536       66.936       52.196       41.218     4480.464     2724.391     1698.883        0.831        0.445       87.731       32.696        0.139      347.175       25.955      860.040
08/23/2014  16:32:00      -31.580       16.510       -5.489       54.310       44.930       28.980     2949.533     2018.711      839.851        0.355        0.290       35.635       24.946        0.490      347.165       25.937      860.048
08/23/2014  16:33:00      -16.635      106.185        9.476       87.304       90.919       54.072     7622.026     8266.253     2923.808        1.522        0.941      107.480       45.800        0.182      347.242       26.067      860.048
08/23/2014  16:34:00       70.128       95.754       -8.056       52.176       77.349       44.346     2722.328     5982.940     1966.571        1.241        0.534      118.688       40.439        0.116      346.979       25.615      860.058
08/23/2014  16:35:00       46.734       54.092        7.167       33.772       36.025       34.927     1140.520     1297.832     1219.928        0.441        0.183       71.485       26.063        0.133      346.927       25.527      860.046
08/23/2014  16:36:00        9.410       43.200        3.854       48.593       31.994       30.655     2361.266     1023.622      939.753        0.315        0.216       44.213       30.360        0.472      346.963       25.589      860.031
08/23/2014  16:37:00      -17.125       43.270      -14.901       34.741       38.000       19.617     1206.939     1444.034      384.827        0.271        0.152       46.536       25.336        0.296      346.947       25.562      860.019
08/23/2014  16:38:00      -69.849       51.732       -5.467       26.929       34.734       23.661      725.197     1206.466      559.837        0.504        0.125       86.920       17.767        0.042      347.181       25.964      860.006
08/23/2014  16:39:00      -55.387       20.029       -1.714       26.473       28.092       20.021      700.840      789.155      400.845        0.268        0.095       58.897       17.467        0.088      347.152       25.916      859.992
08/23/2014  16:40:00       13.383       13.004      -13.593       29.395       22.050       19.796      864.055      486.205      391.878        0.114        0.087       18.660       13.939        0.558      347.038       25.719      859.985
08/23/2014  16:41:00       -1.237       -0.866       -1.518        9.291       10.429        7.468       86.317      108.771       55.775        0.013        0.013        1.510        5.740       14.457      347.212       26.017      859.973
08/23/2014  16:42:00        5.203       19.263       21.148       21.514       15.870       15.047      462.832      251.872      226.420        0.089        0.047       19.954        6.653        0.111      347.331       26.223      859.956
08/23/2014  16:43:00       25.352      -13.877       -5.586       19.620       21.290       18.933      384.928      453.246      358.458        0.103        0.060       28.902       12.424        0.185      347.072       25.777      859.948
08/23/2014  16:44:00      -11.906       -9.895       -3.875       18.596       40.534       17.832      345.815     1642.971      317.994        0.128        0.115       15.481       11.873        0.588      347.122       25.864      859.922
08/23/2014  16:45:00       17.862       82.056       -8.623       47.075       62.558       28.154     2216.094     3913.499      792.664        0.702        0.346       83.977       30.327        0.130      347.127       25.871      859.907
08/23/2014  16:46:00       29.994       81.672       -6.110       53.940       39.223       32.161     2909.523     1538.411     1034.345        0.654        0.274       87.005       23.048        0.070      346.977       25.612      859.898
08/23/2014  16:47:00       64.024      109.532       -8.911       56.926       74.142       45.911     3240.551     5496.997     2107.863        1.351        0.542      126.872       43.326        0.117      346.951       25.567      859.891
08/23/2014  16:48:00       62.271       44.554       10.055       34.212       24.585       26.833     1170.469      604.417      720.025        0.423        0.125       76.568       16.929        0.049      347.028       25.701      859.888
08/23/2014  16:49:00       49.668       78.697       -4.176       30.168       53.476       33.459      910.116     2859.659     1119.524        0.678        0.244       93.059       34.805        0.140      347.028       25.700      859.880
08/23/2014  16:50:00       33.098      129.103      -24.680       24.696       27.129       17.382      609.881      735.969      302.125        1.001        0.082      133.279        4.617        0.001      346.840       25.377      859.866
08/23/2014  16:51:00      -18.819       76.709      -26.404       34.250       39.322       15.743     1173.066     1546.193      247.836        0.495        0.148       78.984       13.708        0.030      346.990       25.637      859.847
08/23/2014  16:52:00      -45.252       47.462      -24.358       23.971       32.265       16.889      574.591     1041.043      285.246        0.340        0.095       65.578        8.271        0.016      346.999       25.650      859.834
08/23/2014  16:53:00      -17.956       59.828       -8.367       19.475       24.165       15.522      379.292      583.959      240.938        0.259        0.060       62.465        9.386        0.023      347.014       25.676      859.822
08/23/2014  16:54:00      -24.295       15.053       -6.495       19.936       23.818       17.787      397.449      567.298      316.375        0.107        0.064       28.581       14.562        0.260      347.180       25.962      859.823
08/23/2014  16:55:00       10.095      -38.106       13.177       42.420       74.157       22.178     1799.470     5499.227      491.867        0.476        0.390       39.420       12.781        0.105      347.277       26.130      859.824
08/23/2014  16:56:00      -26.306     -100.511       -8.592       31.533       23.815       14.505      994.359      567.171      210.403        0.632        0.089      103.896       14.228        0.019      346.888       25.459      859.828
08/23/2014  16:57:00      -56.322     -117.987       -4.728       37.609       43.972       15.365     1414.417     1933.573      236.091        1.035        0.179      130.740        8.688        0.004      346.972       25.605      859.820
08/23/2014  16:58:00      -30.658      -38.482       -1.972       31.168       16.946       16.558      971.456      287.163      274.178        0.198        0.077       49.202       13.473        0.075      347.154       25.918      859.817
08/23/2014  16:59:00      -48.502      -42.414        2.364       48.011       26.887       18.213     2305.083      722.923      331.723        0.376        0.168       64.432       19.241        0.089      347.622       26.726      859.819
08/23/2014  17:00:00      -69.392      -43.402       -8.816       45.238       29.807       22.465     2046.494      888.476      504.669        0.511        0.172       81.847       18.034        0.049      347.317       26.200      859.821
08/23/2014  17:01:00       36.904       21.112       41.853       62.675       52.451       39.585     3928.209     2751.116     1567.011        0.590        0.412       42.516       23.634        0.309      347.475       26.470      859.820
08/23/2014  17:02:00        7.132      -48.807        0.676       29.055       66.745       22.121      844.205     4454.833      489.351        0.411        0.289       49.325       27.491        0.311      347.651       26.775      859.817
08/23/2014  17:03:00       39.867        5.073       23.032       82.976       74.354       48.899     6884.985     5528.506     2391.108        0.847        0.740       40.189       51.698        1.655      347.452       26.432      859.828
08/23/2014  17:04:00      105.856       65.282       33.002       34.561       30.796       31.294     1194.455      948.423      979.299        0.984        0.156      124.367       17.471        0.020      347.004       25.659      859.829
08/23/2014  17:05:00       30.552        1.169        4.718       13.201       27.375       20.977      174.262      749.367      440.051        0.116        0.068       30.574       12.284        0.161      347.128       25.873      859.814
08/23/2014  17:06:00       47.005       64.731       14.965       58.079       41.947       43.241     3373.199     1759.519     1869.754        0.681        0.350       79.998       13.376        0.028      347.254       26.089      859.817
08/23/2014  17:07:00       45.160       80.675       -6.179       63.603       63.202       30.769     4045.304     3994.540      946.707        0.878        0.449       92.455       37.722        0.166      347.084       25.795      859.821
08/23/2014  17:08:00      -11.221       65.031      -10.777       27.007       38.488       24.158      729.371     1481.328      583.613        0.363        0.140       65.992       26.572        0.162      347.108       25.839      859.832
08/23/2014  17:09:00       96.401       61.419       14.127       67.213       69.478       33.145     4517.626     4827.238     1098.595        1.185        0.522      114.304       24.060        0.044      347.332       26.223      859.819
08/23/2014  17:10:00      179.763       78.987       20.113       78.636       70.128       47.219     6183.649     4917.989     2229.621        2.614        0.667      196.351       19.230        0.010      347.441       26.410      859.812
08/23/2014  17:11:00      263.067      130.509       41.481      129.196       97.824       57.205    16691.710     9569.544     3272.359        5.874        1.477      293.661       46.164        0.025      347.205       26.002      859.815
08/23/2014  17:12:00       82.611      124.273        9.142      107.285       91.723       65.148    11509.977     8413.073     4244.272        2.325        1.208      149.225       55.885        0.140      347.155       25.919      859.811
08/23/2014  17:13:00      234.193      139.125       83.175      135.908       70.362       71.624    18470.954     4950.824     5129.961        5.483        1.428      272.401       66.328        0.059      347.252       26.081      859.792
08/23/2014  17:14:00      234.988      126.231       47.834      127.514      103.428       89.531    16259.928    10697.342     8015.849        5.420        1.749      266.747       57.464        0.046      347.147       25.902      859.800
08/23/2014  17:15:00      199.685      108.790       33.196      134.637      117.896       66.186    18127.064    13899.502     4380.568        4.460        1.820      227.397       25.424        0.013      347.153       25.912      859.791
08/23/2014  17:16:00      167.423       93.298       61.324      114.662       92.345       71.469    13147.302     8527.653     5107.856        3.363        1.339      191.664       58.458        0.093      347.257       26.094      859.765
08/23/2014  17:17:00      130.888      165.244       17.183      113.499      123.254       98.085    12882.050    15191.460     9620.655        4.121        1.885      210.802       90.043        0.182      347.210       26.011      859.806
08/23/2014  17:18:00       76.099      145.744        9.207       74.128      120.300       74.500     5494.988    14472.011     5550.234        2.631        1.276      164.415       75.133        0.209      347.144       25.899      859.819
08/23/2014  17:19:00       99.193      122.416        4.763       99.855       79.376       67.724     9970.986     6300.623     4586.562        2.285        1.043      157.559       53.188        0.114      347.215       26.021      859.812
08/23/2014  17:20:00       87.363      219.396      -17.228      119.751      170.121       65.803    14340.308    28940.993     4330.024        5.183        2.381      236.150       83.835        0.126      347.150       25.908      859.802
08/23/2014  17:21:00      179.508      139.595       54.266      131.002       92.567       74.703    17161.577     8568.633     5580.535        4.298        1.566      227.398       40.595        0.032      347.249       26.079      859.786
08/23/2014  17:22:00      259.504      162.736       39.918       82.717       87.246       75.717     6842.173     7611.899     5733.133        5.780        1.009      306.309       45.350        0.022      347.147       25.901      859.805
08/23/2014  17:23:00      245.523      139.260       27.305      112.655       75.371       60.178    12691.228     5680.860     3621.412        5.120        1.100      282.267       33.829        0.014      347.095       25.812      859.812
08/23/2014  17:24:00      197.085      118.688       30.834       92.280       74.970       60.763     8515.539     5620.534     3692.147        3.585        0.891      230.064       39.644        0.030      347.116       25.849      859.804
08/23/2014  17:25:00      144.434      115.386       16.820       80.283       58.391       54.532     6445.413     3409.469     2973.703        2.364        0.641      184.865       43.519        0.055      347.116       25.850      859.801
08/23/2014  17:26:00      127.164       73.945       19.563       88.070       75.033       47.647     7756.241     5629.960     2270.254        1.884        0.783      147.100       11.521        0.006      347.183       25.966      859.791
08/23/2014  17:27:00      139.737      131.309       12.636       99.240       73.701       63.131     9848.502     5431.823     3985.518        2.809        0.963      191.752       51.188        0.071      347.131       25.875      859.789
08/23/2014  17:28:00       81.482       85.070        7.504       82.441       61.974       56.328     6796.456     3840.779     3172.801        1.387        0.691      117.798       32.407        0.076      347.165       25.936      859.781
08/23/2014  17:29:00      124.775      128.939       18.501       70.711       68.309       50.214     4999.994     4666.171     2521.414        2.236        0.609      179.427       39.487        0.048      347.054       25.744      859.778
08/23/2014  17:30:00      178.870      117.971       25.132       64.863       53.834       47.133     4207.267     2898.151     2221.557        2.793        0.466      214.270       28.269        0.017      347.164       25.934      859.774
08/23/2014  17:31:00       74.897       94.276       -0.649       81.755       67.178       59.489     6683.947     4512.824     3538.942        1.461        0.737      120.405       34.744        0.083      347.366       26.282      859.767
08/23/2014  17:32:00      142.023      106.711       35.568      117.222       81.839       94.543    13741.113     6697.566     8938.303        3.109        1.469      177.645       48.092        0.073      347.408       26.353      859.750
08/23/2014  17:33:00      292.734      155.493       38.336      116.610      115.899       82.553    13597.977    13432.623     6815.049        7.259        1.692      331.469       38.436        0.013      347.158       25.920      859.760
08/23/2014  17:34:00      204.825      110.830       57.509      110.006       91.523       72.660    12101.413     8376.440     5279.490        4.165        1.288      232.887       23.888        0.011      347.193       25.984      859.770
08/23/2014  17:35:00      173.089      105.690       36.059       88.745       78.369       53.540     7875.665     6141.762     2866.498        2.965        0.844      202.806       38.443        0.036      347.241       26.065      859.760
08/23/2014  17:36:00       74.118       70.172       61.157      120.742       65.451       69.730    14578.650     4283.872     4862.282        1.894        1.186      102.066       58.112        0.324      347.474       26.468      859.744
08/23/2014  17:37:00       80.855      139.431        0.947       81.721      100.085       67.737     6678.318    10016.956     4588.254        2.363        1.064      161.179       60.548        0.141      347.334       26.226      859.762
08/23/2014  17:38:00       25.140      174.222      -17.153       63.151       78.832       48.647     3988.042     6214.535     2366.541        2.192        0.628      176.027       39.706        0.051      347.175       25.952      859.762
08/23/2014  17:39:00       92.469       57.255       18.903       84.199       65.798       38.721     7089.421     4329.337     1499.309        1.255        0.646      108.759       32.074        0.087      347.135       25.884      859.743
08/23/2014  17:40:00      197.265       86.904       20.428       81.888       55.669       55.599     6705.648     3099.069     3091.248        2.989        0.645      215.560       43.745        0.041      347.063       25.757      859.725
08/23/2014  17:41:00       95.405       69.765       17.383       74.081       43.318       44.298     5488.003     1876.476     1962.348        1.180        0.466      118.192       18.551        0.025      347.178       25.957      859.715
08/23/2014  17:42:00      135.373       53.168        8.299       48.475       43.477       32.303     2349.811     1890.276     1043.512        1.325        0.264      145.439       21.299        0.021      347.015       25.678      859.710
08/23/2014  17:43:00      193.095      102.390       10.497       52.026       49.118       38.989     2706.658     2412.614     1520.107        2.726        0.332      218.562       35.066        0.026      347.201       25.995      859.694
08/23/2014  17:44:00       52.218       43.433       12.586       72.454       52.711       35.456     5249.519     2778.443     1257.160        0.703        0.464       67.920       22.007        0.105      347.458       26.442      859.684
08/23/2014  17:45:00       14.268       39.469       10.627       29.355       27.721       18.849      861.697      768.468      355.297        0.193        0.099       41.969       13.921        0.110      347.498       26.509      859.670
08/23/2014  17:46:00        4.840       98.774      -13.853       18.165       44.553       17.807      329.966     1984.931      317.090        0.630        0.132       98.892       13.005        0.017      347.155       25.919      859.667
08/23/2014  17:47:00       26.197       59.845        1.344       36.002       41.480       32.854     1296.172     1720.551     1079.392        0.418        0.205       65.328       29.505        0.204      347.336       26.232      859.665
08/23/2014  17:48:00       60.331       30.571       15.463       64.786       47.968       29.039     4197.219     2300.966      843.267        0.608        0.367       67.635       26.155        0.150      347.492       26.501      859.657
08/23/2014  17:49:00       93.266       17.816       10.375       81.276       56.913       41.021     6605.852     3239.072     1682.756        1.032        0.576       94.952       16.652        0.031      347.488       26.493      859.652
08/23/2014  17:50:00      128.773       76.202       16.636       85.909       41.556       41.327     7380.355     1726.912     1707.907        1.674        0.541      149.630       33.901        0.051      347.386       26.315      859.653
08/23/2014  17:51:00       90.166       83.341       -2.751       56.985       38.480       37.324     3247.235     1480.689     1393.107        1.060        0.306      122.783       16.289        0.018      347.399       26.339      859.639
08/23/2014  17:52:00       82.939       48.040       32.758       43.376       28.513       30.326     1881.509      812.982      919.663        0.694        0.181       95.848       22.918        0.057      347.564       26.624      859.639
08/23/2014  17:53:00      101.141       81.462       52.395       61.473       43.231       34.271     3778.934     1868.956     1174.515        1.322        0.341      129.868       21.997        0.029      347.615       26.711      859.633
08/23/2014  17:54:00      175.886       84.065       41.413       95.182       81.121       75.434     9059.570     6580.697     5690.290        3.052        1.067      194.943       23.655        0.015      347.431       26.392      859.625
08/23/2014  17:55:00      125.939       57.595       70.450      115.662       91.611       71.974    13377.621     8392.591     5180.244        2.554        1.348      138.484       65.828        0.226      347.422       26.377      859.615
08/23/2014  17:56:00      164.506       -7.155       54.291      115.195      107.405       63.385    13269.838    11535.791     4017.654        2.944        1.441      164.661       66.200        0.162      347.416       26.367      859.610
08/23/2014  17:57:00      113.095       34.553       56.718       88.709      119.909       58.284     7869.278    14378.059     3396.981        2.142        1.282      118.256       41.299        0.122      347.374       26.295      859.608
08/23/2014  17:58:00      142.536      110.102        3.933       54.310       50.777       36.329     2949.606     2578.273     1319.800        1.965        0.342      180.108       19.064        0.011      347.290       26.151      859.622
08/23/2014  17:59:00       81.122       70.249        3.133       58.882       48.752       42.451     3467.142     2376.750     1802.047        0.958        0.382      107.311       25.373        0.056      347.209       26.013      859.603
08/23/2014  18:00:00       75.761       41.538       17.821       54.820       42.624       23.393     3005.243     1816.791      547.248        0.657        0.268       86.401       16.596        0.037      347.235       26.057      859.579
08/23/2014  18:01:00       68.350      -67.174       -7.120       57.013       94.082       29.920     3250.441     8851.492      895.215        1.111        0.650       95.834       30.257        0.100      347.401       26.342      859.567
08/23/2014  18:02:00        4.900      -41.741       19.919       49.488       69.458       39.305     2449.022     4824.421     1544.893        0.549        0.441       42.028       25.738        0.375      347.620       26.721      859.548
08/23/2014  18:03:00      100.823        5.790       38.675       71.902      101.220       65.464     5169.925    10245.488     4285.473        1.569        0.985      100.989       70.947        0.494      347.309       26.185      859.537
08/23/2014  18:04:00       75.432      -92.128       19.201       62.672       69.821       42.539     3927.807     4874.904     1809.548        1.258        0.531      119.069       32.454        0.074      347.331       26.222      859.509
08/23/2014  18:05:00       34.394      -74.193       25.553       55.482      115.157       48.954     3078.230    13261.219     2396.471        1.303        0.937       81.777       64.419        0.621      347.333       26.225      859.510
08/23/2014  18:06:00       46.522        2.406       34.712       36.010       65.268       41.946     1296.708     4259.955     1759.458        0.534        0.366       46.584       19.996        0.184      347.466       26.455      859.495
08/23/2014  18:07:00       27.832       75.290       96.347       40.706       69.642       35.223     1656.978     4850.031     1240.652        1.174        0.387       80.269       39.905        0.247      347.528       26.562      859.510
08/23/2014  18:08:00      111.796      120.912      121.961      133.786       89.487       64.558    17898.590     8008.002     4167.781        3.603        1.504      164.675       63.157        0.147      347.352       26.257      859.506
08/23/2014  18:09:00       96.302       86.083       85.030       96.283       55.949       50.183     9270.512     3130.298     2518.346        1.941        0.746      129.167       23.965        0.034      347.395       26.331      859.500
08/23/2014  18:10:00       76.888       41.366       32.228       49.772       77.499       55.396     2477.286     6006.123     3068.705        1.010        0.578       87.310       41.683        0.228      347.475       26.470      859.508
08/23/2014  18:11:00      119.876       71.519       27.303       90.929       58.330       50.804     8268.138     3402.430     2580.999        1.724        0.713      139.590       28.666        0.042      347.430       26.392      859.492
08/23/2014  18:12:00      168.095      104.339       47.531      114.264       67.855       64.212    13056.236     4604.268     4123.234        3.159        1.089      197.845       52.337        0.070      347.439       26.405      859.499
08/23/2014  18:13:00      120.703      132.272       -6.519      113.806       82.800       71.897    12951.730     6855.874     5169.238        2.854        1.249      179.068       54.729        0.093      347.154       25.917      859.502
08/23/2014  18:14:00      185.842      150.718       23.759      133.507       76.919       75.534    17824.030     5916.497     5705.422        4.363        1.472      239.276       61.724        0.067      347.176       25.953      859.486
08/23/2014  18:15:00       71.864      107.422        9.491       89.896      107.536       58.668     8081.239    11564.019     3441.950        1.994        1.154      129.244       53.861        0.174      347.256       26.091      859.471
08/23/2014  18:16:00      159.667      167.528       -4.559       99.271      101.197       83.473     9854.816    10240.749     6967.682        4.032        1.353      231.428       74.842        0.105      347.177       25.953      859.460
08/23/2014  18:17:00       63.411      112.080       -5.789       93.746       90.522       46.899     8788.330     8194.182     2199.490        1.790        0.959      128.774       40.873        0.101      347.278       26.131      859.456
08/23/2014  18:18:00       48.906      140.077      -14.619       74.497       97.819       54.449     5549.850     9568.607     2964.699        2.015        0.904      148.369       59.603        0.161      347.203       26.000      859.449
08/23/2014  18:19:00       62.431       80.905        9.193       69.735       63.587       48.937     4863.006     4043.297     2394.814        1.091        0.565      102.192       36.884        0.130      347.237       26.060      859.441
08/23/2014  18:20:00       49.062       76.667       -0.953       56.950       50.405       37.278     3243.280     2540.648     1389.626        0.773        0.359       91.022       33.667        0.137      347.149       25.909      859.432
08/23/2014  18:21:00      182.468      106.332       27.645       94.547       52.367       55.864     8939.159     2742.334     3120.766        3.008        0.740      211.189       20.655        0.010      347.261       26.098      859.425
08/23/2014  18:22:00      101.984       87.071       20.097       74.405       54.092       45.822     5536.151     2925.967     2099.693        1.447        0.528      134.098       35.371        0.070      347.360       26.273      859.420
08/23/2014  18:23:00      129.043       90.736       13.596       98.663       69.863       41.266     9734.433     4880.853     1702.882        2.069        0.816      157.750       23.070        0.021      347.354       26.261      859.425
08/23/2014  18:24:00      185.938      127.136       27.934      105.647       76.193       56.027    11161.358     5805.439     3139.032        3.581        1.005      225.247       32.469        0.021      347.306       26.178      859.413
08/23/2014  18:25:00       49.353      311.149      -32.284       82.264      147.155       60.049     6767.373    21654.718     3605.868        6.615        1.601      315.039       72.749        0.053      347.176       25.954      859.437
08/23/2014  18:26:00       41.822      157.923      -19.034       48.392      105.854       46.568     2341.808    11205.159     2168.546        2.138        0.786      163.367       58.680        0.129      347.224       26.037      859.437
08/23/2014  18:27:00      161.291      130.708       23.105      138.186       81.973       55.137    19095.386     6719.537     3040.104        3.624        1.443      207.604       36.841        0.031      347.120       25.856      859.467
08/23/2014  18:28:00      182.158      162.750        2.526      114.018       99.596       66.006    13000.025     9919.440     4356.740        4.347        1.364      244.272       54.561        0.050      347.045       25.727      859.458
08/23/2014  18:29:00      239.574      175.506       32.912      184.312      128.614       80.693    33970.855    16541.636     6511.402        7.314        2.851      296.981       44.007        0.022      347.036       25.711      859.472
08/23/2014  18:30:00      321.361      208.072       21.721      125.142       93.174       69.128    15660.608     8681.472     4778.654        8.807        1.456      382.840       39.931        0.011      346.985       25.624      859.460
08/23/2014  18:31:00      284.047      181.916       39.948      158.258      109.701       78.290    25045.523    12034.254     6129.280        7.928        2.160      337.307       55.948        0.028      347.023       25.688      859.485
08/23/2014  18:32:00      102.062      181.803       -0.057      155.147      109.473       61.441    24070.637    11984.409     3774.955        4.164        1.992      208.492       50.408        0.058      347.099       25.821      859.513
08/23/2014  18:33:00       56.616      180.889      -19.716       66.650      118.055       49.693     4442.196    13936.992     2469.389        2.858        1.042      189.542       59.228        0.098      347.128       25.872      859.544
08/23/2014  18:34:00       26.632      337.848      -29.584       93.655      210.626       77.035     8771.208    44363.333     5934.467        8.739        2.953      338.896      104.956        0.096      346.991       25.633      859.547
08/23/2014  18:35:00       73.660       93.534        4.502       83.313       83.704       62.099     6940.977     7006.310     3856.313        1.600        0.890      119.057       41.429        0.121      347.020       25.687      859.550
08/23/2014  18:36:00      133.263      156.312        4.019      117.868       95.893       67.950    13892.979     9195.557     4617.143        3.495        1.385      205.408       60.059        0.085      346.995       25.641      859.569
08/23/2014  18:37:00      129.724      152.615       -1.969      130.661      107.099       62.526    17072.316    11470.295     3909.515        3.628        1.623      200.299       39.359        0.039      346.905       25.487      859.575
08/23/2014  18:38:00       71.291      252.737      -25.394       83.467      120.982       79.363     6966.708    14636.542     6298.470        4.875        1.395      262.599       75.243        0.082      346.902       25.480      859.600
08/23/2014  18:39:00      118.152      318.054      -17.634      133.011      213.080       98.320    17691.884    45403.176     9666.902        9.408        3.638      339.290      101.042        0.089      346.787       25.283      859.597
08/23/2014  18:40:00       98.790      190.300       12.135      112.300      140.090      106.061    12611.289    19625.229    11248.860        4.479        2.174      214.415       90.310        0.177      346.785       25.280      859.603
08/23/2014  18:41:00       20.830      274.737      -25.755       79.254      172.328       68.409     6281.189    29696.830     4679.785        5.861        2.033      275.526       81.051        0.087      346.770       25.254      859.629
08/23/2014  18:42:00       77.461      207.360        1.539      109.781      185.231      100.251    12051.878    34310.516    10050.199        5.270        2.821      221.356       97.603        0.194      346.775       25.262      859.617
08/23/2014  18:43:00       44.664      296.315      -31.070       91.812      143.832       81.770     8429.469    20687.750     6686.390        6.328        1.790      299.662       89.525        0.089      346.787       25.283      859.601
08/23/2014  18:44:00       79.599      216.211       -0.136      106.663      139.659       87.950    11376.991    19504.700     7735.125        4.584        1.931      230.398       86.742        0.142      346.766       25.245      859.593
08/23/2014  18:45:00       30.944      345.153      -41.988      104.508      158.092       64.025    10921.963    24993.130     4099.206        8.092        2.001      346.538       68.678        0.039      346.741       25.201      859.591
08/23/2014  18:46:00       48.370      375.264      -43.420       67.947      136.581       70.332     4616.737    18654.282     4946.562        8.663        1.411      378.369       64.840        0.029      346.719       25.164      859.571
08/23/2014  18:47:00       96.671      177.205        0.573       97.745      129.913       82.850     9554.037    16877.279     6864.141        3.701        1.665      201.858       73.923        0.134      346.697       25.128      859.556
08/23/2014  18:48:00      118.385      191.904       19.582      129.588      136.079       95.168    16793.015    18517.382     9056.861        4.779        2.218      225.482       78.851        0.122      346.672       25.086      859.543
08/23/2014  18:49:00      104.612      239.359        6.503      155.473      175.647      101.552    24171.872    30851.933    10312.908        6.679        3.267      261.221      110.126        0.178      346.657       25.058      859.546
08/23/2014  18:50:00       73.794      231.411       -3.669      147.912      168.279      115.847    21877.974    28317.766    13420.627        6.130        3.181      242.892      108.523        0.200      346.623       25.002      859.551
08/23/2014  18:51:00       33.081      334.919      -25.327      119.295      164.142       83.440    14231.286    26942.670     6962.201        8.101        2.407      336.548       85.971        0.065      346.573       24.915      859.557
08/23/2014  18:52:00       61.743      265.425      -14.220      106.646      176.066       98.294    11373.359    30999.081     9661.775        6.324        2.602      272.512      102.695        0.142      346.553       24.881      859.555
08/23/2014  18:53:00      -34.875      344.635      -21.179      104.556      169.863       79.272    10932.024    28853.450     6284.023        8.324        2.303      346.395       86.942        0.063      346.565       24.900      859.556
08/23/2014  18:54:00       -3.606      265.973       -4.862      119.494      194.665       73.314    14278.908    37894.554     5375.014        6.415        2.877      265.998       92.618        0.121      346.556       24.886      859.552
08/23/2014  18:55:00       48.168      121.277       -3.796       82.051       71.551       63.364     6732.415     5119.593     4015.005        1.645        0.793      130.492       44.747        0.118      346.583       24.935      859.563
08/23/2014  18:56:00       81.061      268.749      -27.819      102.070      152.607       97.299    10418.339    23288.746     9467.158        6.136        2.159      280.708       89.127        0.101      346.523       24.828      859.560
08/23/2014  18:57:00       19.365      327.438      -22.115       92.978      176.728       80.204     8644.885    31232.628     6432.753        7.719        2.316      328.011       89.208        0.074      346.509       24.804      859.563
08/23/2014  18:58:00       40.760      314.135      -31.298      100.571      187.460       94.809    10114.474    35141.201     8988.778        7.777        2.712      316.769      108.921        0.118      346.514       24.814      859.561
08/23/2014  18:59:00       13.548      294.679      -32.285       96.617      112.729       70.178     9334.923    12707.728     4924.932        5.751        1.348      294.991       67.031        0.052      346.483       24.759      859.566
08/23/2014  19:00:00      -23.033      448.282      -49.710      102.463      129.635       68.847    10498.655    16805.308     4739.917       11.799        1.602      448.873       69.977        0.024      346.433       24.674      859.581
08/23/2014  19:01:00      -22.077      427.320      -53.833       85.555      137.806       52.305     7319.729    18990.358     2735.802       10.751        1.452      427.890       60.781        0.020      346.444       24.693      859.576
08/23/2014  19:02:00       28.544      333.249      -21.673      126.254      224.152      115.043    15939.967    50244.168    13234.947        9.586        3.971      334.469      119.809        0.128      346.374       24.571      859.571
08/23/2014  19:03:00       65.900      235.984       -8.333      117.613      192.054      101.830    13832.927    36884.735    10369.332        6.058        3.054      245.013      101.165        0.170      346.360       24.550      859.591
08/23/2014  19:04:00       67.768      215.310       16.048      100.050      130.551       96.178    10010.025    17043.443     9250.253        4.375        1.815      225.723       91.813        0.165      346.344       24.523      859.603
08/23/2014  19:05:00        5.535      349.508      -37.903      102.351      158.415       76.639    10475.761    25095.304     5873.508        8.253        2.072      349.552       89.807        0.066      346.338       24.510      859.606
08/23/2014  19:06:00       37.197      433.948      -58.657       82.863      119.619       62.525     6866.298    14308.705     3909.434       10.910        1.254      435.539       58.157        0.018      346.296       24.438      859.612
08/23/2014  19:07:00       69.081      227.022       -4.014      111.797      151.593       91.462    12498.680    22980.531     8365.306        5.008        2.192      237.300       87.971        0.137      346.275       24.402      859.606
08/23/2014  19:08:00       62.199      312.867      -17.379      102.109      208.896       98.160    10426.268    43637.388     9635.295        8.286        3.185      318.990      124.233        0.152      346.280       24.411      859.619
08/23/2014  19:09:00       11.168      401.096      -46.289       87.827      184.709       67.818     7713.662    34117.385     4599.249       10.478        2.322      401.251       87.589        0.048      346.266       24.386      859.635
08/23/2014  19:10:00      -59.911      355.617      -44.392       93.796      155.371       55.009     8797.715    24140.193     3025.978        8.399        1.798      360.628       74.387        0.043      346.296       24.439      859.643
08/23/2014  19:11:00     -102.650      388.716      -32.557       96.196      136.407       59.590     9253.585    18606.778     3550.942        9.705        1.571      402.041       58.766        0.021      346.259       24.374      859.644
08/23/2014  19:12:00       32.604      219.742      -13.285       93.522      127.425       74.786     8746.325    16237.033     5592.892        4.005        1.529      222.148       76.419        0.118      346.249       24.356      859.652
08/23/2014  19:13:00       26.995      205.810      -12.197       71.475      104.865       52.672     5108.609    10996.656     2774.376        3.105        0.944      207.573       58.723        0.080      346.254       24.367      859.666
08/23/2014  19:14:00       38.775      182.588      -16.772       61.814       85.217       57.383     3820.927     7261.898     3292.811        2.475        0.719      186.660       54.102        0.084      346.251       24.361      859.674
08/23/2014  19:15:00       34.483      162.035      -16.971       56.757       77.369       50.756     3221.301     5985.931     2576.139        1.976        0.589      165.664       47.724        0.083      346.221       24.310      859.701
08/23/2014  19:16:00       -2.541      183.532      -14.702       57.164      106.486       42.788     3267.766    11339.231     1830.782        2.517        0.822      183.550       46.646        0.065      346.208       24.288      859.724
08/23/2014  19:17:00       37.119      305.987      -17.416       91.832      126.878       76.785     8433.136    16098.093     5895.961        6.286        1.521      308.230       83.932        0.074      346.224       24.313      859.734
08/23/2014  19:18:00       41.419      288.322      -33.020       77.710      158.455       81.537     6038.784    25107.995     6648.226        6.186        1.890      291.282       93.400        0.103      346.190       24.254      859.743
08/23/2014  19:19:00       73.572      246.559      -21.878       81.595      187.779       75.671     6657.727    35260.857     5726.149        5.715        2.382      257.301       91.371        0.126      346.138       24.167      859.739
08/23/2014  19:20:00       40.956      306.443      -22.874       81.274      121.211       79.151     6605.502    14692.104     6264.806        6.183        1.378      309.168       75.484        0.060      346.148       24.183      859.752
08/23/2014  19:21:00       73.654      315.181      -31.525      105.071      186.215       93.970    11039.944    34676.189     8830.298        8.014        2.727      323.673      107.163        0.110      346.136       24.162      859.754
08/23/2014  19:22:00       52.140      165.639       -8.283       94.167      102.618       52.776     8867.372    10530.375     2785.341        2.620        1.109      173.652       49.751        0.082      346.108       24.117      859.746
08/23/2014  19:23:00       39.905      299.038      -20.102       77.264      125.320       72.806     5969.796    15704.989     5300.768        5.919        1.349      301.689       72.219        0.057      346.109       24.117      859.730
08/23/2014  19:24:00       10.227      185.054      -10.304       84.454       98.634       47.846     7132.406     9728.760     2289.229        2.680        0.958      185.336       49.204        0.070      346.079       24.066      859.733
08/23/2014  19:25:00      -20.141      255.690      -20.179       80.538       82.276       51.600     6486.427     6769.363     2662.552        4.105        0.796      256.482       49.387        0.037      346.095       24.092      859.740
08/23/2014  19:26:00       26.526      231.015      -35.560       47.731       94.701       40.965     2278.278     8968.292     1678.138        3.413        0.646      232.532       46.519        0.040      346.075       24.058      859.742
08/23/2014  19:27:00      -20.676      334.376      -42.319       67.806      126.613       46.882     4597.619    16030.850     2197.968        6.842        1.141      335.015       42.546        0.016      346.083       24.073      859.744
08/23/2014  19:28:00       25.636      203.170      -19.659       74.816      119.451       48.197     5597.500    14268.636     2322.938        3.225        1.109      204.781       46.891        0.052      346.030       23.981      859.753
08/23/2014  19:29:00       67.647      205.075      -21.489       92.357      165.789       70.266     8529.723    27485.927     4937.299        4.402        2.048      215.944       86.837        0.162      346.017       23.960      859.756
08/23/2014  19:30:00       34.313      344.852      -30.171      113.054      147.550       81.212    12781.288    21771.051     6595.412        8.107        2.057      346.555       87.168        0.063      346.022       23.967      859.763
08/23/2014  19:31:00       37.507      205.766      -17.054       70.289       93.874       65.205     4940.560     8812.291     4251.667        3.102        0.900      209.157       61.240        0.086      346.021       23.966      859.762
08/23/2014  19:32:00      -33.565      204.325      -14.191       76.779      123.653       64.927     5894.992    15290.052     4215.507        3.423        1.270      207.063       70.566        0.116      346.015       23.956      859.772
08/23/2014  19:33:00       36.296      142.098        3.019       90.228      109.179       71.404     8141.146    11919.997     5098.595        2.333        1.258      146.660       51.423        0.123      345.982       23.900      859.772
08/23/2014  19:34:00        2.254      270.954      -40.536       86.759      112.538       53.093     7527.132    12664.713     2818.863        4.903        1.151      270.963       57.354        0.045      346.022       23.966      859.767
08/23/2014  19:35:00       -8.734      253.377       -7.611      105.540      107.470       66.088    11138.700    11549.852     4367.615        4.569        1.353      253.528       60.591        0.057      345.992       23.915      859.762
08/23/2014  19:36:00      -23.952      325.900      -34.324       74.183      109.349       49.372     5503.159    11957.302     2437.576        6.393        0.995      326.779       52.689        0.026      346.005       23.937      859.764
08/23/2014  19:37:00      -46.578      316.882      -26.540       74.936      133.168       55.436     5615.341    17733.596     3073.142        6.485        1.321      320.287       63.594        0.039      346.018       23.960      859.776
08/23/2014  19:38:00       15.248      283.394      -31.031       64.277      154.426       54.862     4131.594    23847.354     3009.881        5.624        1.549      283.804       75.053        0.070      346.014       23.953      859.785
08/23/2014  19:39:00       51.590      226.221      -17.606       83.882      121.909       63.888     7036.217    14861.835     4081.694        4.006        1.299      232.029       63.494        0.075      345.981       23.898      859.801
08/23/2014  19:40:00       19.508      319.162      -48.004       58.111       98.059       36.447     3376.877     9615.624     1328.372        5.943        0.716      319.758       35.347        0.012      346.012       23.949      859.813
08/23/2014  19:41:00        4.697      177.307      -14.143       73.275      114.270       64.436     5369.157    13057.585     4152.003        2.711        1.129      177.369       64.843        0.134      345.947       23.839      859.825
08/23/2014  19:42:00       25.538      212.992      -19.918       66.782      150.546       55.685     4459.826    22663.971     3100.865        3.831        1.511      214.518       74.821        0.122      345.978       23.892      859.836
08/23/2014  19:43:00      -47.914      334.281      -24.320       95.671      106.806       76.012     9152.933    11407.550     5777.895        7.048        1.317      337.697       66.342        0.039      345.977       23.889      859.838
08/23/2014  19:44:00       20.625      211.077       -1.795       82.331      125.895       78.912     6778.447    15849.510     6227.026        3.691        1.443      212.082       78.352        0.136      345.938       23.823      859.856
08/23/2014  19:45:00       -5.668      278.451      -27.435       63.155      130.612       64.597     3988.568    17059.520     4172.718        5.177        1.261      278.509       77.102        0.077      345.943       23.832      859.859
08/23/2014  19:46:00        8.918      196.713      -12.366       71.221       84.809       56.646     5072.494     7192.565     3208.826        2.720        0.774      196.915       52.545        0.071      345.916       23.787      859.869
08/23/2014  19:47:00        4.912      250.421      -17.706       71.568      123.948       57.303     5121.978    15363.101     3283.665        4.340        1.188      250.470       61.921        0.061      345.953       23.849      859.873
08/23/2014  19:48:00      -60.743      293.423      -28.442       91.782      145.472       61.363     8423.943    21162.052     3765.477        6.197        1.668      299.645       75.631        0.064      345.960       23.861      859.882
08/23/2014  19:49:00       -1.778      270.866      -33.170       62.546       92.423       42.682     3911.993     8541.976     1821.733        4.437        0.714      270.872       41.157        0.023      345.943       23.832      859.896
08/23/2014  19:50:00       32.799      181.893      -26.217       62.527      143.567       55.349     3909.671    20611.624     3063.491        3.121        1.379      184.827       67.206        0.132      345.897       23.753      859.910
08/23/2014  19:51:00       30.237      333.774      -33.245       85.316       99.814       68.677     7278.808     9962.831     4716.550        6.769        1.098      335.141       68.187        0.041      345.932       23.812      859.906
08/23/2014  19:52:00        5.769      208.476      -11.376       64.011      109.132       61.205     4097.393    11909.842     3746.009        3.169        0.988      208.556       49.921        0.057      345.880       23.724      859.915
08/23/2014  19:53:00       35.207      355.403      -52.646       72.351       88.147       47.796     5234.643     7769.897     2284.442        7.280        0.764      357.143       45.021        0.016      345.931       23.811      859.908
08/23/2014  19:54:00      -17.251      312.071      -30.881       76.550      120.241       58.851     5859.964    14457.846     3463.462        6.121        1.189      312.547       67.775        0.047      345.906       23.769      859.913
08/23/2014  19:55:00       26.083      267.416      -15.857       89.072      131.724       72.627     7933.798    17351.174     5274.671        5.150        1.528      268.685       78.039        0.084      345.877       23.720      859.920
08/23/2014  19:56:00        9.843      175.849      -11.368       74.011       92.169       48.647     5477.555     8495.155     2366.538        2.374        0.817      176.124       37.228        0.045      345.862       23.695      859.932
08/23/2014  19:57:00       -9.173      354.628      -52.704       66.609      106.484       42.201     4436.819    11338.738     1780.926        7.309        0.878      354.746       51.025        0.021      345.912       23.778      859.936
08/23/2014  19:58:00       14.739      256.961      -21.206       79.735      127.505       67.119     6357.609    16257.467     4504.941        4.690        1.356      257.384       74.138        0.083      345.856       23.683      859.946
08/23/2014  19:59:00       -3.026      190.413       -8.819       61.178      111.069       55.502     3742.714    12336.234     3080.519        2.775        0.958      190.437       56.223        0.087      345.840       23.655      859.955
08/23/2014  20:00:00      -28.432      258.329      -31.904       54.866      106.055       41.830     3010.241    11247.564     1749.733        4.228        0.800      259.889       54.100        0.043      345.865       23.698      859.968
08/23/2014  20:01:00       -1.196      272.496      -23.198       81.806      136.215       50.910     6692.232    18554.626     2591.828        5.131        1.392      272.498       68.348        0.063      345.851       23.674      859.984
08/23/2014  20:02:00      -16.636      171.750      -14.332       61.335       73.200       47.726     3761.942     5358.265     2277.808        2.069        0.570      172.554       45.893        0.071      345.779       23.552      859.990
08/23/2014  20:03:00        6.386      141.201      -21.344       50.651       69.990       38.835     2565.494     4898.606     1508.129        1.470        0.449      141.345       35.817        0.064      345.800       23.589      859.998
08/23/2014  20:04:00        3.468      312.409      -46.616       45.607       90.029       39.619     2080.018     8105.199     1569.628        5.577        0.588      312.428       32.184        0.011      345.887       23.734      860.000
08/23/2014  20:05:00      -15.826      186.937      -18.823       51.830       80.141       39.449     2686.374     6422.519     1556.261        2.311        0.533      187.606       38.930        0.043      345.800       23.587      860.007
08/23/2014  20:06:00        5.798      217.355      -25.968       62.334       75.240       41.087     3885.560     5661.085     1688.168        2.959        0.562      217.433       35.593        0.027      345.839       23.654      860.016
08/23/2014  20:07:00      -23.483      292.958      -33.421       81.017       65.114       43.533     6563.780     4239.896     1895.141        5.009        0.635      293.898       41.752        0.020      345.846       23.665      860.017
08/23/2014  20:08:00        3.001      308.498      -34.183       66.430       95.224       45.408     4412.897     9067.685     2061.878        5.594        0.777      308.512       50.003        0.026      345.863       23.693      860.024
08/23/2014  20:09:00      -40.536      249.962      -22.140       69.351       84.736       34.529     4809.594     7180.108     1192.240        3.890        0.659      253.228       32.421        0.016      345.806       23.596      860.041
08/23/2014  20:10:00       14.690      204.842      -23.746       64.503      114.612       42.263     4160.587    13135.840     1786.141        3.091        0.954      205.368       50.404        0.060      345.806       23.598      860.038
08/23/2014  20:11:00      -22.517      289.699      -36.163       60.503       72.505       39.531     3660.644     5256.985     1562.696        4.811        0.524      290.573       37.269        0.016      345.859       23.686      860.045
08/23/2014  20:12:00       17.913      202.635      -20.830       53.704       99.445       45.989     2884.098     9889.323     2115.025        2.835        0.744      203.425       52.872        0.068      345.794       23.576      860.050
08/23/2014  20:13:00        2.624      250.533      -29.541       61.910      107.502       52.076     3832.849    11556.760     2711.932        4.087        0.905      250.547       50.617        0.041      345.779       23.552      860.067
08/23/2014  20:14:00        8.969      200.682      -20.981       61.763      132.716       56.225     3814.687    17613.583     3161.216        3.269        1.229      200.882       69.972        0.121      345.740       23.486      860.068
08/23/2014  20:15:00        0.092      272.429      -29.518       47.998       65.200       41.129     2303.814     4250.987     1691.555        4.167        0.412      272.429       39.335        0.021      345.804       23.593      860.084
08/23/2014  20:16:00       37.885      154.045      -10.687       65.382      112.174       52.162     4274.810    12583.083     2720.826        2.243        0.979      158.635       63.698        0.161      345.708       23.429      860.095
08/23/2014  20:17:00       35.516      233.060      -25.247       70.703      102.099       48.517     4998.904    10424.206     2353.859        3.699        0.889      235.751       56.672        0.058      345.762       23.522      860.102
08/23/2014  20:18:00       27.008      125.074       -8.125       50.269       92.231       45.720     2526.959     8506.577     2090.315        1.478        0.656      127.957       50.773        0.157      345.703       23.421      860.108
08/23/2014  20:19:00       26.662      204.377      -15.528       74.107      114.448       57.250     5491.839    13098.317     3277.618        3.229        1.093      206.108       66.546        0.104      345.753       23.508      860.124
08/23/2014  20:20:00       29.863      259.635      -41.913       62.044       69.266       38.642     3849.505     4797.755     1493.233        4.010        0.507      261.347       39.597        0.023      345.771       23.535      860.134
08/23/2014  20:21:00       24.280      194.196      -20.346       65.598       93.919       46.271     4303.040     8820.768     2140.991        2.699        0.763      195.708       55.222        0.080      345.710       23.433      860.139
08/23/2014  20:22:00       13.257      149.283       -6.809       48.681       69.361       49.431     2369.853     4810.951     2443.398        1.606        0.481      149.870       48.181        0.103      345.672       23.369      860.155
08/23/2014  20:23:00       -4.380      189.759      -14.615       61.491       74.953       36.442     3781.190     5617.890     1328.004        2.348        0.536      189.810       39.776        0.044      345.703       23.419      860.160
08/23/2014  20:24:00       11.745      201.493      -17.383       68.729       96.052       53.467     4723.619     9225.925     2858.756        2.892        0.840      201.835       47.007        0.054      345.678       23.378      860.156
08/23/2014  20:25:00       41.523      191.841       -8.495       84.588       97.333       59.022     7155.067     9473.666     3483.635        2.935        1.006      196.283       63.583        0.105      345.736       23.477      860.160
08/23/2014  20:26:00        9.922      184.295       -7.089       62.324       94.253       55.884     3884.287     8883.596     3123.014        2.500        0.795      184.562       56.715        0.094      345.687       23.392      860.170
08/23/2014  20:27:00       24.040      159.010      -22.793       39.135       89.802       41.068     1531.540     8064.408     1686.620        1.883        0.564      160.817       52.790        0.108      345.686       23.391      860.185
08/23/2014  20:28:00       18.775      141.969       -6.073       62.003       87.030       52.074     3844.371     7574.270     2711.709        1.733        0.707      143.205       56.853        0.158      345.677       23.378      860.198
08/23/2014  20:29:00       70.213       52.834       26.899       63.469       52.651       55.156     4028.311     2772.100     3042.211        0.914        0.492       87.871       39.584        0.203      345.648       23.327      860.208
08/23/2014  20:30:00       21.865       86.542        2.118       40.715       74.205       37.062     1657.742     5506.334     1373.565        0.825        0.427       89.262       43.017        0.232      345.588       23.224      860.217
08/23/2014  20:31:00       -6.468      171.885      -11.723       47.710       83.120       33.849     2276.216     6908.991     1145.735        2.003        0.517      172.007       42.994        0.062      345.644       23.318      860.232
08/23/2014  20:32:00       14.228      173.298      -19.093       43.572       74.685       46.927     1898.548     5577.828     2202.116        2.014        0.484      173.881       48.872        0.079      345.611       23.263      860.239
08/23/2014  20:33:00        6.105      162.980      -22.268       44.324       47.093       33.892     1964.601     2217.728     1148.655        1.621        0.267      163.095       29.065        0.032      345.617       23.274      860.248
08/23/2014  20:34:00       13.196      109.754        5.625       64.963       67.947       50.724     4220.147     4616.797     2572.923        1.183        0.570      110.544       45.364        0.168      345.572       23.197      860.265
08/23/2014  20:35:00       21.552      166.361        0.527       60.191       98.426       54.872     3622.934     9687.644     3010.991        2.223        0.816      167.751       55.392        0.109      345.618       23.274      860.271
08/23/2014  20:36:00        3.503      106.656      -10.000       46.747       58.549       46.877     2185.251     3428.025     2197.421        0.965        0.391      106.714       40.714        0.146      345.585       23.221      860.284
08/23/2014  20:37:00        8.977      189.804      -27.934       39.849       48.496       24.439     1587.977     2351.821      597.254        2.071        0.227      190.016       24.920        0.017      345.654       23.337      860.289
08/23/2014  20:38:00       16.525      188.421      -32.074       39.589       50.953       30.268     1567.252     2596.236      916.152        2.094        0.254      189.144       30.546        0.026      345.662       23.351      860.309
08/23/2014  20:39:00       16.079      163.046      -11.721       46.462      102.821       41.622     2158.707    10572.118     1732.372        2.072        0.723      163.837       52.526        0.103      345.597       23.240      860.318
08/23/2014  20:40:00       15.496      172.661       -9.926       63.741       55.547       43.489     4062.953     3085.492     1891.299        1.959        0.452      173.355       39.019        0.051      345.630       23.295      860.336
08/23/2014  20:41:00       12.413      158.909      -19.273       51.280       78.802       34.639     2629.600     6209.774     1199.895        1.791        0.502      159.393       40.600        0.065      345.645       23.323      860.344
08/23/2014  20:42:00       15.940      164.387      -22.065       37.637       76.804       27.019     1416.532     5898.802      730.004        1.790        0.402      165.159       36.086        0.048      345.560       23.176      860.370
08/23/2014  20:43:00       25.220       58.456       -0.425       32.928       20.740       19.281     1084.237      430.145      371.772        0.297        0.094       63.665       13.213        0.043      345.505       23.082      860.383
08/23/2014  20:44:00      -12.550       92.623        7.945       46.369       54.293       31.726     2150.110     2947.723     1006.529        0.745        0.305       93.470       34.254        0.134      345.488       23.053      860.402
08/23/2014  20:45:00        8.777      115.292      -14.871       36.476       46.351       21.846     1330.503     2148.399      477.266        0.877        0.198      115.625       17.281        0.022      345.559       23.175      860.413
08/23/2014  20:46:00       27.553       73.096       -0.244       38.734       63.873       37.788     1500.341     4079.706     1427.969        0.655        0.350       78.116       37.837        0.235      345.471       23.025      860.425
08/23/2014  20:47:00       31.789      146.452      -20.515       29.710       44.015       23.121      882.656     1937.308      534.587        1.312        0.168      149.862       23.713        0.025      345.571       23.195      860.439
08/23/2014  20:48:00       22.374      119.846      -16.888       30.631       33.869       17.438      938.243     1147.138      304.098        0.877        0.119      121.917       17.496        0.021      345.560       23.177      860.452
08/23/2014  20:49:00       -0.348       90.091      -11.518       16.139       29.306       14.141      260.466      858.848      199.956        0.478        0.066       90.092       15.330        0.029      345.577       23.208      860.463
08/23/2014  20:50:00       13.700       59.800       -6.538       26.778       32.512       17.408      717.061     1057.022      303.046        0.294        0.104       61.349       13.888        0.051      345.522       23.112      860.462
08/23/2014  20:51:00       -4.892      104.804       -7.903       32.798       48.054       25.067     1075.741     2309.171      628.355        0.754        0.201      104.918       19.932        0.036      345.536       23.136      860.475
08/23/2014  20:52:00       14.346      102.484        1.791       36.216       45.125       32.101     1311.571     2036.250     1030.484        0.754        0.219      103.483       30.284        0.086      345.473       23.028      860.468
08/23/2014  20:53:00       12.762       99.515       -6.994       32.846       40.760       26.916     1078.853     1661.368      724.467        0.679        0.173      100.330       24.852        0.061      345.464       23.013      860.478
08/23/2014  20:54:00       19.044       81.777       -5.992       32.150       56.392       30.190     1033.601     3180.090      911.412        0.610        0.256       83.965       27.921        0.111      345.454       22.995      860.485
08/23/2014  20:55:00        5.052      131.628      -21.316       28.404       39.061       21.919      806.789     1525.765      480.458        1.031        0.141      131.725       23.215        0.031      345.522       23.111      860.482
08/23/2014  20:56:00      -17.871       87.834      -15.460       23.851       23.780       13.846      568.847      565.503      191.708        0.480        0.066       89.634       11.237        0.016      345.506       23.086      860.485
08/23/2014  20:57:00      -30.303       56.153      -10.811       19.232       35.007       16.412      369.871     1225.493      269.345        0.303        0.093       63.808       12.689        0.040      345.396       22.896      860.485
08/23/2014  20:58:00      -39.831       26.398       -6.449       11.851       23.036       11.945      140.449      530.652      142.686        0.157        0.041       47.785       13.348        0.078      345.426       22.947      860.497
08/23/2014  20:59:00      -52.967      -20.204        1.771       19.386       16.595       13.122      375.814      275.383      172.196        0.202        0.041       56.689        5.934        0.011      345.394       22.892      860.480
08/23/2014  21:00:00      -63.462      -13.852      -10.320       23.811       25.828       11.015      566.951      667.062      121.320        0.284        0.068       64.956        9.613        0.022      345.257       22.658      860.488
08/23/2014  21:01:00      -67.879      -43.889       -1.538       34.620       23.738       17.464     1198.551      563.478      304.989        0.430        0.103       80.832       17.715        0.048      345.122       22.426      860.479
08/23/2014  21:02:00      -50.208      -27.983        1.850       24.187       23.312       18.040      584.994      543.457      325.440        0.238        0.073       57.480       13.682        0.057      345.032       22.272      860.483
08/23/2014  21:03:00      -22.501      -17.011        5.350       21.080       17.718       15.836      444.380      313.937      250.770        0.092        0.050       28.208       10.620        0.142      344.995       22.210      860.488
08/23/2014  21:04:00      -73.797      -22.817       -2.650       21.527       13.130       13.784      463.411      172.399      189.999        0.340        0.041       77.244       12.356        0.026      345.011       22.238      860.487
08/23/2014  21:05:00      -77.744      -51.599       -0.658       27.504       19.653       14.146      756.466      386.228      200.109        0.502        0.067       93.309       13.017        0.019      344.980       22.184      860.488
08/23/2014  21:06:00      -74.224      -40.142       -6.698       32.548       25.487       17.401     1059.361      649.613      302.779        0.459        0.101       84.383       12.629        0.022      344.965       22.159      860.502
08/23/2014  21:07:00      -55.142      -32.682       -2.288       32.301       28.812       16.580     1043.346      830.138      274.890        0.313        0.107       64.100       11.564        0.033      344.998       22.215      860.506
08/23/2014  21:08:00       -9.809      -16.653       -1.524       22.896       17.450       14.638      524.235      304.518      214.259        0.071        0.052       19.327       10.495        0.295      344.939       22.113      860.519
08/23/2014  21:09:00       -0.349       -3.133        7.756       20.931       20.882       13.199      438.093      436.075      174.224        0.056        0.052        3.152        5.991        3.613      344.863       21.984      860.532
08/23/2014  21:10:00      -48.264      -29.308       -3.479       30.882       28.231       13.583      953.690      797.000      184.489        0.257        0.097       56.465       13.307        0.056      344.864       21.985      860.532
08/23/2014  21:11:00      -74.260      -32.400       -9.951       17.002       16.829       15.318      289.053      283.219      234.628        0.373        0.040       81.021       10.478        0.017      344.869       21.995      860.544
08/23/2014  21:12:00      -49.927      -40.692       -2.147       26.831       13.820       12.168      719.921      190.987      148.052        0.261        0.053       64.409       10.903        0.029      344.922       22.086      860.552
08/23/2014  21:13:00       -1.598      -34.232       16.539       32.128       19.684       17.971     1032.180      387.458      322.949        0.159        0.087       34.269       18.967        0.306      344.876       22.007      860.560
08/23/2014  21:14:00      -14.769      -28.671        3.300       26.414       15.734       17.860      697.717      247.553      318.989        0.116        0.063       32.251       16.396        0.258      344.975       22.174      860.586
08/23/2014  21:15:00        2.740      -69.512       -2.435       17.307       26.004       12.522      299.547      676.186      156.790        0.299        0.057       69.566       11.804        0.029      345.002       22.222      860.594
08/23/2014  21:16:00       11.537      -41.335        5.167       15.004       22.950       14.723      225.126      526.721      216.773        0.142        0.048       42.915       11.117        0.067      345.038       22.284      860.602
08/23/2014  21:17:00      -36.350      -13.596       -1.055       17.907        9.634        8.966      320.676       92.811       80.395        0.100        0.025       38.809        4.147        0.011      344.993       22.206      860.615
08/23/2014  21:18:00      -44.621      -14.583       -1.197       24.185       16.361       10.230      584.897      267.679      104.649        0.158        0.048       46.943        9.789        0.043      345.063       22.326      860.605
08/23/2014  21:19:00      -58.924       -3.909       -5.940       18.184       17.925       13.506      330.648      321.323      182.419        0.218        0.042       59.053       11.382        0.037      344.990       22.201      860.602
08/23/2014  21:20:00      -56.123      -15.166       -1.781       20.650       14.101       11.783      426.413      198.840      138.847        0.207        0.038       58.136       12.002        0.043      344.871       21.996      860.600
08/23/2014  21:21:00      -85.608      -30.609       -5.992       22.736       18.424       14.715      516.916      339.457      216.529        0.469        0.054       90.916       12.307        0.018      344.808       21.889      860.588
08/23/2014  21:22:00      -89.629      -23.150       -4.756       44.728       37.323       12.934     2000.596     1392.985      167.297        0.608        0.178       92.571       13.817        0.022      344.801       21.878      860.581
08/23/2014  21:23:00      -75.166        8.679      -11.282       21.152       17.143       15.045      447.390      293.877      226.360        0.341        0.048       75.666       11.206        0.022      344.812       21.897      860.593
08/23/2014  21:24:00      -37.071       -2.670       -3.319       17.330       13.042       12.152      300.323      170.093      147.663        0.101        0.031       37.167        6.664        0.032      344.873       22.002      860.603
08/23/2014  21:25:00      -43.694       -4.713       -8.856       15.942       15.686       10.148      254.162      246.052      102.982        0.131        0.030       43.948        9.881        0.051      344.808       21.889      860.612
08/23/2014  21:26:00      -43.239        5.024      -10.648       17.614       13.604        8.312      310.252      185.073       69.085        0.129        0.028       43.530        6.912        0.025      344.853       21.965      860.624
08/23/2014  21:27:00      -79.764        6.958      -12.508       19.562       13.762        8.917      382.690      189.405       79.520        0.361        0.033       80.067        7.053        0.008      344.959       22.148      860.614
08/23/2014  21:28:00      -48.623       -5.230       -9.390       21.785       13.054       13.595      474.598      170.405      184.814        0.165        0.041       48.904       13.638        0.078      344.802       21.879      860.614
08/23/2014  21:29:00      -54.205       16.187       -9.239       12.671       17.300       14.418      160.544      299.281      207.874        0.198        0.033       56.571        8.353        0.022      344.730       21.757      860.619
08/23/2014  21:30:00      -64.600       16.779      -11.248       23.213       21.178       15.649      538.850      448.491      244.901        0.291        0.062       66.744       10.797        0.026      344.766       21.817      860.606
08/23/2014  21:31:00      -66.257       17.208      -17.972       18.260       20.909       13.487      333.416      437.190      181.908        0.298        0.048       68.455       11.033        0.026      344.641       21.604      860.605
08/23/2014  21:32:00      -82.161       27.083      -12.512       27.204       25.601       16.615      740.057      655.408      276.071        0.466        0.084       86.510       18.513        0.046      344.712       21.726      860.602
08/23/2014  21:33:00      -69.582       23.208       -9.671       26.417       27.597       15.769      697.870      761.600      248.666        0.359        0.085       73.351       12.555        0.029      344.472       21.313      860.597
08/23/2014  21:34:00      -61.552       22.200       -8.966       19.199       25.707        9.891      368.583      660.847       97.840        0.274        0.056       65.433        9.171        0.020      344.440       21.261      860.610
08/23/2014  21:35:00      -97.524       44.222      -12.290       25.961       33.440       14.993      673.976     1118.230      224.793        0.682        0.101      107.082       10.455        0.010      344.595       21.526      860.609
08/23/2014  21:36:00     -108.213       19.113      -14.437       28.062       35.879       22.229      787.492     1287.287      494.116        0.743        0.128      109.888       20.424        0.035      344.546       21.443      860.598
08/23/2014  21:37:00     -114.405       -4.881      -12.653       35.867       28.886       16.097     1286.447      834.422      259.128        0.783        0.119      114.509       16.199        0.020      344.516       21.390      860.604
08/23/2014  21:38:00     -142.698        8.366      -10.334       25.885       25.769       17.824      670.040      664.055      317.695        1.110        0.083      142.943       14.623        0.010      344.440       21.261      860.594
08/23/2014  21:39:00     -104.942       16.747      -12.575       28.504       22.543       16.742      812.461      508.189      280.296        0.653        0.080      106.270       15.334        0.021      344.440       21.260      860.588
08/23/2014  21:40:00      -96.007        3.222      -14.447       20.831       32.080       19.333      433.911     1029.135      373.763        0.564        0.092       96.061       12.921        0.018      344.448       21.273      860.588
08/23/2014  21:41:00     -129.233      -18.703       -5.522       45.963       30.272       23.347     2112.581      916.401      545.101        1.033        0.179      130.579       22.957        0.031      344.373       21.145      860.584
08/23/2014  21:42:00      -97.515      -11.979       -1.954       61.421       33.052       21.114     3772.597     1092.426      445.813        0.748        0.266       98.248       25.704        0.068      344.352       21.111      860.576
08/23/2014  21:43:00      -62.110       -9.046       -1.057       30.213       27.460       16.298      912.814      754.064      265.639        0.294        0.097       62.765        6.377        0.010      344.208       20.862      860.581
08/23/2014  21:44:00      -65.429       -8.574       -8.970       17.930       18.617       12.566      321.468      346.594      157.905        0.263        0.041       65.989        7.017        0.011      344.274       20.976      860.576
08/23/2014  21:45:00      -77.734      -14.961       -7.472       24.557       32.434       16.236      603.047     1051.982      263.598        0.412        0.096       79.160       13.517        0.029      344.348       21.102      860.572
08/23/2014  21:46:00      -90.439      -12.216      -10.046       27.099       26.387       17.998      734.339      696.253      323.932        0.509        0.088       91.260       19.413        0.045      344.391       21.176      860.580
08/23/2014  21:47:00      -78.461      -35.756       -6.730       22.652       17.210       10.484      513.126      296.195      109.924        0.420        0.046       86.224        9.000        0.011      344.295       21.014      860.569
08/23/2014  21:48:00      -66.546      -31.669       -6.759       23.566       18.968       11.675      555.369      359.786      136.303        0.326        0.053       73.697        9.771        0.018      344.207       20.861      860.568
08/23/2014  21:49:00      -54.668      -31.409       -5.167       18.255       10.260       14.582      333.234      105.270      212.628        0.233        0.033       63.048       11.750        0.035      344.176       20.806      860.569
08/23/2014  21:50:00      -23.687      -18.600       -4.760       28.883       18.660       10.974      834.199      348.189      120.439        0.112        0.065       30.117       13.020        0.187      344.175       20.807      860.568
08/23/2014  21:51:00      -12.305      -26.717        5.703       22.623       17.638       14.261      511.814      311.115      203.382        0.096        0.051       29.414        5.164        0.031      344.235       20.910      860.577
08/23/2014  21:52:00       -0.306      -35.700       15.625       18.944       18.035       13.959      358.864      325.257      194.852        0.120        0.044       35.701       11.294        0.100      344.228       20.898      860.574
08/23/2014  21:53:00       -9.854      -19.407       -0.102       18.016       13.275       10.635      324.570      176.218      113.105        0.054        0.031       21.765        7.527        0.120      344.261       20.955      860.581
08/23/2014  21:54:00      -35.816      -18.525       -3.914       27.754       14.487       11.416      770.292      209.879      130.334        0.138        0.056       40.323       13.750        0.116      344.314       21.045      860.580
08/23/2014  21:55:00      -58.695      -23.806       -2.942       11.484       13.397        9.293      131.875      179.493       86.368        0.221        0.020       63.339        7.281        0.013      344.214       20.875      860.577
08/23/2014  21:56:00      -43.462      -24.542        4.666       21.952       21.449       13.517      481.908      460.070      182.717        0.182        0.056       49.912       11.690        0.055      344.324       21.061      860.582
08/23/2014  21:57:00      -64.040      -45.733       -3.238       26.282       22.383       14.808      690.720      501.013      219.273        0.381        0.071       78.693       12.142        0.024      344.182       20.820      860.578
08/23/2014  21:58:00      -77.585      -57.037      -15.148       15.636       15.485        9.622      244.482      239.798       92.575        0.504        0.029       96.295        3.872        0.002      344.196       20.842      860.574
08/23/2014  21:59:00      -91.540      -41.254       -4.082       28.867       20.346       14.414      833.281      413.976      207.762        0.578        0.073      100.406       16.082        0.026      344.170       20.799      860.576
08/23/2014  22:00:00      -73.472      -16.357       -3.808       29.067       19.694       16.726      844.872      387.837      279.745        0.360        0.076       75.271       16.569        0.048      344.126       20.723      860.576
08/23/2014  22:01:00      -95.067      -27.855      -12.846       20.844       14.562       12.799      434.470      212.061      163.810        0.539        0.041       99.064        8.652        0.008      344.091       20.664      860.573
08/23/2014  22:02:00      -93.735      -20.805       -6.652       27.433       19.644       15.375      752.570      385.888      236.393        0.532        0.069       96.016       13.432        0.020      344.001       20.510      860.581
08/23/2014  22:03:00     -100.393      -32.015       -5.384       22.243       18.996       13.763      494.742      360.844      189.424        0.609        0.052      105.374        8.795        0.007      343.916       20.365      860.582
08/23/2014  22:04:00      -92.473      -48.902       -4.512       27.354       22.508       15.825      748.227      506.598      250.436        0.623        0.075      104.607       14.766        0.020      344.002       20.512      860.578
08/23/2014  22:05:00      -72.019      -31.516       -0.818       18.009       16.940       11.670      324.325      286.957      136.187        0.346        0.037       78.613        4.043        0.003      343.967       20.452      860.589
08/23/2014  22:06:00      -62.730      -23.398       -1.052       23.472       19.196       15.274      550.928      368.472      233.306        0.282        0.058       66.951       13.352        0.040      343.969       20.454      860.596
08/23/2014  22:07:00      -89.940      -49.405       -3.743       40.447       29.250       15.638     1635.922      855.581      244.556        0.664        0.137      102.616       19.494        0.036      343.952       20.427      860.602
08/23/2014  22:08:00      -74.150      -44.209        6.676       29.277       31.198       21.133      857.164      973.297      446.614        0.489        0.114       86.329       14.730        0.029      343.914       20.362      860.596
08/23/2014  22:09:00      -80.385      -43.235        2.195       32.923       26.318       16.884     1083.911      692.648      285.056        0.520        0.103       91.274       12.174        0.018      343.888       20.318      860.592
08/23/2014  22:10:00      -83.762      -42.827       -0.932       32.961       25.695       15.099     1086.456      660.254      227.972        0.541        0.099       94.076       16.553        0.031      343.938       20.402      860.613
08/23/2014  22:11:00      -84.297      -21.489       -1.269       34.037       21.517       19.111     1158.505      462.966      365.218        0.478        0.099       86.993       21.163        0.059      343.781       20.135      860.621
08/23/2014  22:12:00      -95.441      -40.257        1.819       33.984       30.453       18.513     1154.915      927.408      342.732        0.658        0.121      103.584       15.691        0.023      343.743       20.069      860.624
08/23/2014  22:13:00     -106.404      -50.919        1.014       27.438       27.208       17.718      752.822      740.284      313.938        0.786        0.090      117.960       15.061        0.016      343.757       20.092      860.639
08/23/2014  22:14:00     -118.552      -43.869        1.776       47.000       32.642       21.339     2208.954     1065.498      455.347        0.986        0.186      126.408       21.781        0.030      343.776       20.125      860.637
08/23/2014  22:15:00     -104.482      -14.542       -2.535       36.134       28.452       19.046     1305.673      809.538      362.763        0.681        0.124      105.489       17.913        0.029      343.774       20.122      860.647
08/23/2014  22:16:00      -81.860      -27.934        5.725       38.150       31.135       19.437     1455.402      969.372      377.808        0.516        0.140       86.494       17.334        0.040      343.650       19.911      860.655
08/23/2014  22:17:00     -113.896      -32.954       -1.950       34.397       25.581       19.071     1183.138      654.388      363.692        0.813        0.110      118.567       15.316        0.017      343.574       19.782      860.638
08/23/2014  22:18:00     -138.202      -49.632       -8.302       31.064       20.793       12.053      964.994      432.339      145.286        1.159        0.077      146.844       10.770        0.005      343.450       19.570      860.639
08/23/2014  22:19:00     -123.417      -37.488      -12.808       22.866       20.281       15.014      522.851      411.321      225.413        0.898        0.058      128.985       10.966        0.007      343.389       19.466      860.627
08/23/2014  22:20:00      -98.492      -28.153       -3.068       32.913       28.305       19.940     1083.268      801.189      397.619        0.639        0.114      102.436       18.758        0.034      343.334       19.371      860.630
08/23/2014  22:21:00     -100.597      -22.746       -8.289       43.175       24.548       18.533     1864.097      602.610      343.464        0.676        0.141      103.137       21.576        0.044      343.286       19.291      860.616
08/23/2014  22:22:00     -109.147       -0.594       -5.035       41.141       31.667       21.182     1692.623     1002.774      448.689        0.754        0.157      109.148       20.132        0.034      343.333       19.371      860.595
08/23/2014  22:23:00     -116.983        9.418       -9.993       40.886       37.557       22.706     1671.647     1410.513      515.574        0.873        0.180      117.361       19.410        0.027      343.338       19.379      860.600
08/23/2014  22:24:00     -127.109       37.139       -5.729       38.298       30.674       23.420     1466.767      940.874      548.490        1.026        0.148      132.424       14.593        0.012      343.478       19.618      860.592
08/23/2014  22:25:00     -146.321       49.566       -5.572       44.055       26.006       22.879     1940.881      676.288      523.431        1.352        0.157      154.488       18.004        0.014      343.616       19.852      860.590
08/23/2014  22:26:00     -143.247        7.883       -8.208       30.542       26.716       22.073      932.829      713.754      487.216        1.139        0.107      143.464       14.010        0.010      343.584       19.798      860.585
08/23/2014  22:27:00     -129.710        1.183       -7.862       33.722       42.544       25.941     1137.170     1809.965      672.910        1.025        0.181      129.715       20.641        0.025      343.486       19.632      860.572
08/23/2014  22:28:00     -119.584        5.851      -11.944       38.612       39.311       25.929     1490.909     1545.355      672.296        0.909        0.185      119.728       19.631        0.027      343.389       19.467      860.573
08/23/2014  22:29:00     -138.748      -12.036      -21.058       37.281       41.675       22.998     1389.857     1736.794      528.898        1.175        0.183      139.269       17.770        0.016      343.369       19.431      860.564
08/23/2014  22:30:00      -96.736      -23.999      -14.900       39.983       37.541       25.785     1598.641     1409.310      664.876        0.691        0.184       99.668       13.073        0.017      343.339       19.381      860.569
08/23/2014  22:31:00     -129.897       12.062      -23.413       42.185       45.710       23.625     1779.561     2089.402      558.145        1.100        0.221      130.456       16.171        0.015      343.306       19.326      860.579
08/23/2014  22:32:00     -147.848        1.789      -17.171       30.713       35.148       28.776      943.289     1235.352      828.057        1.258        0.150      147.859       20.144        0.019      343.266       19.257      860.582
08/23/2014  22:33:00     -157.042       23.417      -16.640       43.169       36.594       24.241     1863.528     1339.157      587.617        1.464        0.190      158.778       14.835        0.009      343.193       19.131      860.597
08/23/2014  22:34:00     -111.987        3.955       -8.204       43.556       39.800       27.074     1897.133     1584.028      733.021        0.842        0.211      112.056       21.986        0.038      343.138       19.039      860.597
08/23/2014  22:35:00     -106.329        6.315       -7.359       55.015       37.337       24.633     3026.600     1394.066      606.804        0.821        0.251      106.517       26.611        0.062      343.092       18.961      860.599
08/23/2014  22:36:00     -142.150        7.965      -13.469       38.538       36.445       29.269     1485.186     1328.243      856.701        1.206        0.184      142.373       22.101        0.024      343.162       19.080      860.594
08/23/2014  22:37:00     -135.438       12.377       -5.723       51.154       32.829       28.259     2616.745     1077.747      798.575        1.151        0.225      136.003       25.502        0.035      343.205       19.152      860.602
08/23/2014  22:38:00     -125.343       -1.782      -11.992       64.533       40.125       27.438     4164.563     1610.011      752.845        1.119        0.326      125.355       33.768        0.073      343.227       19.190      860.585
08/23/2014  22:39:00     -181.296        8.778      -17.982       57.604       41.645       24.068     3318.226     1734.315      579.290        1.945        0.282      181.508       14.645        0.007      343.251       19.230      860.581
08/23/2014  22:40:00     -159.335       11.108      -18.006       56.997       34.993       25.441     3248.620     1224.541      647.224        1.548        0.256      159.722       28.248        0.031      343.300       19.314      860.581
08/23/2014  22:41:00     -191.997       26.699      -16.189       36.246       42.080       23.931     1313.804     1770.703      572.714        2.075        0.183      193.844       17.262        0.008      343.323       19.352      860.576
08/23/2014  22:42:00     -170.053        0.934      -10.133       57.100       40.500       30.831     3260.385     1640.259      950.562        1.744        0.293      170.056       31.166        0.034      343.253       19.233      860.581
08/23/2014  22:43:00     -155.572       43.184      -15.857       67.790       36.882       30.959     4595.454     1360.268      958.431        1.662        0.346      161.455       27.860        0.030      343.348       19.396      860.563
08/23/2014  22:44:00     -198.051       62.195      -17.104       52.329       32.560       29.190     2738.372     1060.150      852.077        2.402        0.233      207.587       15.816        0.006      343.383       19.454      860.556
08/23/2014  22:45:00     -132.286       16.528       -9.563       67.784       39.697       31.591     4594.672     1575.833      997.997        1.251        0.358      133.315       33.142        0.062      343.229       19.194      860.552
08/23/2014  22:46:00     -164.367       60.199       -6.572       58.833       41.005       27.583     3461.267     1681.416      760.834        1.829        0.295      175.044       22.794        0.017      343.381       19.450      860.566
08/23/2014  22:47:00     -133.392       49.639      -20.617       52.805       31.939       20.407     2788.336     1020.111      416.435        1.245        0.211      142.329        9.352        0.004      343.327       19.360      860.567
08/23/2014  22:48:00      -94.518      -29.604       -8.751       28.947       36.922       23.528      837.942     1363.225      553.569        0.632        0.138       99.045       15.401        0.024      343.323       19.353      860.575
08/23/2014  22:49:00      -76.172        8.923      -15.030       47.327       34.055       19.232     2239.880     1159.747      369.874        0.494        0.188       76.693       16.915        0.049      343.220       19.177      860.560
08/23/2014  22:50:00     -110.320        3.188      -14.385       38.681       25.449       18.911     1496.219      647.648      357.641        0.744        0.125      110.366        8.517        0.006      343.176       19.104      860.548
08/23/2014  22:51:00     -104.045       15.559      -11.037       38.636       36.532       22.869     1492.737     1334.570      522.987        0.727        0.168      105.202       14.910        0.020      343.497       19.649      860.540
08/23/2014  22:52:00      -80.777        6.278      -13.794       24.626       23.257       15.223      606.459      540.871      231.754        0.407        0.069       81.021       15.347        0.036      343.375       19.442      860.542
08/23/2014  22:53:00      -83.479       -9.980       -8.412       35.900       24.403       18.597     1288.806      595.502      345.844        0.468        0.112       84.073       18.015        0.046      343.295       19.306      860.533
08/23/2014  22:54:00      -70.425       -8.644       -2.623       33.822       31.224       19.363     1143.960      974.926      374.924        0.377        0.125       70.954       19.065        0.072      343.152       19.062      860.547
08/23/2014  22:55:00      -74.050      -50.566       -2.424       37.249       30.886       19.583     1387.483      953.951      383.494        0.538        0.136       89.668       12.256        0.019      343.114       18.999      860.549
08/23/2014  22:56:00      -45.925      -51.056       -4.511       45.972       28.887       19.331     2113.425      834.448      373.682        0.403        0.166       68.672       15.331        0.050      343.041       18.874      860.563
08/23/2014  22:57:00      -97.828      -72.649      -20.831       33.799       28.361       21.397     1142.371      804.368      457.842        0.884        0.120      121.853       13.538        0.012      343.022       18.841      860.573
08/23/2014  22:58:00      -55.022      -53.626        2.516       55.506       32.334       20.781     3080.890     1045.490      431.869        0.523        0.228       76.832       24.590        0.102      342.993       18.791      860.571
08/23/2014  22:59:00     -100.724      -70.508       -0.569       85.464       30.919       26.666     7304.123      955.962      711.079        1.204        0.449      122.949       32.901        0.072      343.279       19.279      860.587
08/23/2014  23:00:00      -49.477     -132.277        0.647       51.578       39.334       25.741     2660.284     1547.161      662.575        1.241        0.244      141.227       23.087        0.027      343.544       19.730      860.597
08/23/2014  23:01:00      -52.693      -74.542        5.913       58.497       39.413       26.741     3421.886     1553.419      715.101        0.703        0.285       91.286       26.791        0.086      343.399       19.483      860.612
08/23/2014  23:02:00     -116.197      -95.875        1.056       58.394       56.724       33.548     3409.842     3217.634     1125.487        1.522        0.388      150.645       22.302        0.022      343.304       19.322      860.624
08/23/2014  23:03:00      -82.114      -66.233       -4.835       54.251       40.513       29.841     2943.135     1641.337      890.513        0.831        0.274      105.497       27.527        0.068      343.314       19.338      860.631
08/23/2014  23:04:00      -52.242     -110.957        1.156       40.659       55.651       28.275     1653.186     3097.049      799.460        1.029        0.277      122.640       22.690        0.034      343.360       19.416      860.642
08/23/2014  23:05:00     -122.361      -98.134       -6.579       47.527       55.848       27.505     2258.852     3118.983      756.533        1.539        0.307      156.852       25.819        0.027      343.303       19.320      860.622
08/23/2014  23:06:00     -138.597      -85.351       -2.197       52.230       41.305       28.684     2727.942     1706.099      822.756        1.588        0.263      162.770       24.825        0.023      343.324       19.356      860.610
08/23/2014  23:07:00     -164.076      -89.828        5.882       50.164       37.757       26.850     2516.396     1425.614      720.931        1.984        0.233      187.056       28.305        0.023      343.318       19.343      860.602
08/23/2014  23:08:00     -134.976      -49.638       -1.372       36.701       34.243       19.702     1346.976     1172.612      388.160        1.180        0.145      143.814       14.216        0.010      343.279       19.278      860.606
08/23/2014  23:09:00     -102.647      -39.864        5.567       48.994       51.907       28.311     2400.405     2694.366      801.515        0.903        0.295      110.116       29.788        0.073      343.233       19.200      860.633
08/23/2014  23:10:00      -93.984      -60.831        0.245       33.657       30.972       21.863     1132.783      959.277      477.981        0.755        0.129      111.953       15.255        0.019      343.336       19.375      860.653
08/23/2014  23:11:00      -59.649      -55.495        2.278       23.744       28.869       16.563      563.774      833.391      274.349        0.416        0.084       81.472       15.667        0.037      343.349       19.398      860.660
08/23/2014  23:12:00      -43.318      -39.255        2.187       28.071       24.000       12.476      787.969      575.983      155.651        0.247        0.076       58.458       11.024        0.036      343.381       19.452      860.668
08/23/2014  23:13:00      -92.312      -24.339        6.648       45.874       30.242       20.772     2104.423      914.567      431.481        0.630        0.173       95.467       20.316        0.045      343.211       19.163      860.663
08/23/2014  23:14:00     -153.920      -37.641       -7.621       29.431       36.710       18.935      866.192     1347.625      358.541        1.387        0.129      158.455       14.462        0.008      343.148       19.057      860.645
08/23/2014  23:15:00     -185.743      -73.662       -0.418       27.225       33.261       18.836      741.194     1106.299      354.788        2.106        0.110      199.816       14.165        0.005      343.065       18.915      860.622
08/23/2014  23:16:00     -174.052      -51.892        4.620       51.811       37.533       29.078     2684.333     1408.724      845.508        1.897        0.247      181.623       27.961        0.024      343.049       18.885      860.611
08/23/2014  23:17:00     -156.670      -48.377       -2.105       49.719       39.224       26.936     2471.994     1538.487      725.559        1.581        0.237      163.969       27.084        0.027      343.045       18.880      860.607
08/23/2014  23:18:00      -99.136      -43.018       11.578       57.221       41.996       27.043     3274.277     1763.646      731.327        0.879        0.288      108.067       28.445        0.069      343.069       18.921      860.607
08/23/2014  23:19:00     -112.789      -42.015       -4.451       40.027       42.145       25.361     1602.146     1776.221      643.172        0.926        0.201      120.361       24.785        0.042      343.218       19.176      860.630
08/23/2014  23:20:00      -94.247       16.650       -3.091       24.208       23.589       15.400      586.049      556.447      237.147        0.527        0.069       95.707       11.632        0.015      343.081       18.941      860.633
08/23/2014  23:21:00      -94.886       40.099       -4.365       41.648       25.302       21.335     1734.543      640.167      455.197        0.673        0.141      103.011       18.904        0.034      342.962       18.739      860.617
08/23/2014  23:22:00     -123.806       10.740       -9.082       45.169       32.153       19.778     2040.257     1033.839      391.159        0.949        0.173      124.271       18.383        0.022      342.973       18.757      860.613
08/23/2014  23:23:00     -196.513       62.090      -17.688       52.860       41.485       30.666     2794.201     1721.008      940.413        2.412        0.273      206.089       22.180        0.012      343.110       18.989      860.610
08/23/2014  23:24:00     -160.792      -18.809       -6.826       50.727       49.319       26.315     2573.196     2432.364      692.487        1.598        0.285      161.888       23.147        0.020      343.112       18.993      860.602
08/23/2014  23:25:00     -136.610      -18.505      -10.538       64.465       53.473       30.405     4155.781     2859.375      924.485        1.353        0.397      137.857       31.145        0.051      343.030       18.854      860.586
08/23/2014  23:26:00     -144.367      -24.764      -11.498       42.559       44.765       26.621     1811.303     2003.944      708.686        1.305        0.226      146.476       21.700        0.022      343.064       18.912      860.585
08/23/2014  23:27:00     -143.700       38.458      -11.985       39.358       29.764       24.077     1549.059      885.874      579.682        1.264        0.151      148.757       20.728        0.019      342.970       18.753      860.589
08/23/2014  23:28:00     -137.012      -14.548      -11.542       65.872       45.233       28.477     4339.093     2046.041      810.946        1.316        0.360      137.783       31.058        0.051      342.952       18.721      860.580
08/23/2014  23:29:00      -74.414      -36.835       -1.109       57.283       42.148       30.275     3281.305     1776.426      916.552        0.643        0.299       83.032       26.519        0.102      342.874       18.589      860.573
08/23/2014  23:30:00     -157.728        1.134       -9.202       73.249       45.895       39.663     5365.464     2106.323     1573.168        1.700        0.452      157.732       35.114        0.050      342.859       18.563      860.580
08/23/2014  23:31:00     -177.014       17.634      -13.526       63.379       42.551       34.825     4016.893     1810.585     1212.784        1.943        0.352      177.890       29.993        0.028      342.841       18.531      860.567
08/23/2014  23:32:00      -96.328       16.062       -1.559       61.645       47.105       33.259     3800.103     2218.887     1106.138        0.833        0.356       97.658       29.886        0.094      342.765       18.403      860.553
08/23/2014  23:33:00     -176.443        8.209      -14.239       63.645       46.263       27.140     4050.643     2140.298      736.593        1.916        0.346      176.634       25.962        0.022      342.814       18.485      860.551
08/23/2014  23:34:00     -107.787       -9.498       -7.484       67.656       44.770       34.806     4577.293     2004.357     1211.434        0.978        0.390      108.205       32.096        0.088      342.780       18.428      860.531
08/23/2014  23:35:00     -183.561      -11.832      -16.421       48.538       41.002       31.243     2355.980     1681.157      976.147        1.956        0.251      183.942       25.567        0.019      342.795       18.454      860.528
08/23/2014  23:36:00     -121.135      -37.512      -10.017       53.112       59.547       31.516     2820.876     3545.880      993.283        1.177        0.368      126.810       24.056        0.036      342.731       18.344      860.526
08/23/2014  23:37:00     -100.415      -41.517       -0.552       40.624       42.823       23.859     1650.336     1833.839      569.252        0.793        0.203      108.659       22.843        0.044      342.611       18.141      860.515
08/23/2014  23:38:00      -97.469      -19.614       -9.733       49.013       43.523       24.481     2402.310     1894.215      599.318        0.744        0.245       99.423       25.430        0.065      342.674       18.248      860.515
08/23/2014  23:39:00     -100.406      -36.326       -6.467       44.309       48.290       21.163     1963.330     2331.940      447.887        0.809        0.237      106.775       17.628        0.027      342.671       18.242      860.505
08/23/2014  23:40:00     -140.848      -34.980      -18.256       52.714       35.510       21.262     2778.756     1260.987      452.071        1.294        0.225      145.126       26.327        0.033      342.512       17.973      860.498
08/23/2014  23:41:00     -125.028      -17.808      -12.723       38.318       28.976       25.331     1468.254      839.621      641.680        0.953        0.147      126.290       18.941        0.022      342.543       18.027      860.510
08/23/2014  23:42:00     -122.525       -5.352      -10.951       40.047       40.509       24.943     1603.723     1640.962      622.166        0.951        0.193      122.642       22.991        0.035      342.563       18.061      860.503
08/23/2014  23:43:00     -151.695        0.401       -5.563       50.278       49.098       28.543     2527.839     2410.655      814.728        1.440        0.288      151.695       23.035        0.023      342.606       18.131      860.499
08/23/2014  23:44:00     -122.518       26.069       -6.573       68.842       42.253       33.323     4739.183     1785.320     1110.435        1.168        0.382      125.261       36.090        0.083      342.610       18.139      860.503
08/23/2014  23:45:00     -169.930      -19.222      -19.201       50.087       40.485       21.626     2508.691     1639.034      467.689        1.711        0.231      171.014       24.944        0.021      342.701       18.295      860.518
08/23/2014  23:46:00      -51.376      -25.974        7.166       50.356       39.444       23.268     2535.744     1555.822      541.390        0.400        0.232       57.569       21.226        0.136      342.581       18.091      860.522
08/23/2014  23:47:00      -79.037      -23.575       -6.741       49.134       35.822       18.093     2414.141     1283.200      327.341        0.544        0.201       82.478       17.281        0.044      342.583       18.094      860.530
08/23/2014  23:48:00      -90.717      -64.300       -5.358       44.166       32.813       26.452     1950.592     1076.719      699.733        0.806        0.186      111.193       25.208        0.051      342.536       18.016      860.539
08/23/2014  23:49:00     -138.448      -46.417      -17.544       28.317       38.302       17.788      801.829     1467.075      316.421        1.211        0.129      146.022        9.531        0.004      342.544       18.028      860.526
08/23/2014  23:50:00     -105.357      -58.006       -6.521       32.253       29.371       24.999     1040.280      862.631      624.938        0.852        0.126      120.270       10.136        0.007      342.490       17.936      860.511
08/23/2014  23:51:00     -146.421      -38.197      -12.471       33.977       31.011       20.546     1154.456      961.704      422.145        1.280        0.127      151.321       17.505        0.013      342.420       17.817      860.507
08/23/2014  23:52:00     -114.862      -79.940       -8.673       54.695       43.786       30.401     2991.586     1917.181      924.225        1.274        0.292      139.942       27.235        0.038      342.418       17.813      860.481
08/23/2014  23:53:00     -109.158      -88.023        4.143       47.402       47.129       31.321     2246.951     2221.178      981.034        1.256        0.272      140.227       29.084        0.043      342.343       17.687      860.480
08/23/2014  23:54:00     -173.004      -46.825      -21.343       32.049       38.157       20.830     1027.120     1455.933      433.882        1.775        0.146      179.229       15.697        0.008      342.346       17.690      860.501
08/23/2014  23:55:00     -104.686      -52.191        1.396       60.744       40.730       26.671     3689.893     1658.913      711.325        0.987        0.303      116.974       25.697        0.048      342.360       17.714      860.499
08/23/2014  23:56:00     -112.245      -37.894       -2.260       33.221       32.009       23.034     1103.636     1024.552      530.581        0.835        0.133      118.469       15.672        0.017      342.521       17.990      860.499
08/23/2014  23:57:00     -107.553      -23.890       -5.097       44.459       26.362       20.640     1976.586      694.967      426.017        0.763        0.155      110.175       24.105        0.048      342.489       17.934      860.520
08/23/2014  23:58:00      -76.772      -30.558        1.538       32.582       28.114       16.652     1061.590      790.386      277.285        0.448        0.106       82.630       11.758        0.020      342.493       17.941      860.534
08/23/2014  23:59:00     -117.762      -68.200       -3.745       32.325       29.560       19.960     1044.902      873.766      398.410        1.042        0.116      136.085       19.182        0.020      342.491       17.938      860.537
